<?xml version="1.0" encoding="UTF-8" standalone="no" ?>
<gpx xmlns="http://www.topografix.com/GPX/1/1" xmlns:xsi="http://www.w3.org/2001/XMLSchema-instance" xsi:schemaLocation="http://www.topografix.com/GPX/1/1 http://www.topografix.com/GPX/1/1/gpx.xsd" version="1.1" creator="VisuGPX - https://www.visugpx.com">
  <metadata>
    <name>testjbo</name>
  </metadata>
  <trk>
    <name><![CDATA[Marche sportive]]></name>
    <trkseg>
      <trkpt lat="43.51022" lon="1.5188">
        <ele>154.2998</ele>
        <time>2020-09-27T10:43:17+02:00</time>
      </trkpt>
      <trkpt lat="43.5102" lon="1.51875">
        <ele>154.5</ele>
        <time>2020-09-27T10:43:23+02:00</time>
      </trkpt>
      <trkpt lat="43.51018" lon="1.51872">
        <ele>154.5</ele>
        <time>2020-09-27T10:43:25+02:00</time>
      </trkpt>
      <trkpt lat="43.5101" lon="1.51862">
        <ele>154.7998</ele>
        <time>2020-09-27T10:43:30+02:00</time>
      </trkpt>
      <trkpt lat="43.51008" lon="1.51859">
        <ele>155.2002</ele>
        <time>2020-09-27T10:43:32+02:00</time>
      </trkpt>
      <trkpt lat="43.51002" lon="1.51848">
        <ele>155.7002</ele>
        <time>2020-09-27T10:43:37+02:00</time>
      </trkpt>
      <trkpt lat="43.51001" lon="1.51845">
        <ele>155.7002</ele>
        <time>2020-09-27T10:43:38+02:00</time>
      </trkpt>
      <trkpt lat="43.50996" lon="1.51836">
        <ele>156.10059</ele>
        <time>2020-09-27T10:43:44+02:00</time>
      </trkpt>
      <trkpt lat="43.50995" lon="1.51833">
        <ele>156.40039</ele>
        <time>2020-09-27T10:43:46+02:00</time>
      </trkpt>
      <trkpt lat="43.50989" lon="1.51826">
        <ele>156.60059</ele>
        <time>2020-09-27T10:43:51+02:00</time>
      </trkpt>
      <trkpt lat="43.50988" lon="1.51824">
        <ele>156.60059</ele>
        <time>2020-09-27T10:43:52+02:00</time>
      </trkpt>
      <trkpt lat="43.50982" lon="1.51818">
        <ele>156.60059</ele>
        <time>2020-09-27T10:43:58+02:00</time>
      </trkpt>
      <trkpt lat="43.5098" lon="1.51816">
        <ele>156.2998</ele>
        <time>2020-09-27T10:43:59+02:00</time>
      </trkpt>
      <trkpt lat="43.50974" lon="1.51813">
        <ele>156.2002</ele>
        <time>2020-09-27T10:44:04+02:00</time>
      </trkpt>
      <trkpt lat="43.50972" lon="1.51813">
        <ele>156.2002</ele>
        <time>2020-09-27T10:44:05+02:00</time>
      </trkpt>
      <trkpt lat="43.50965" lon="1.51813">
        <ele>155.7998</ele>
        <time>2020-09-27T10:44:10+02:00</time>
      </trkpt>
      <trkpt lat="43.50964" lon="1.51813">
        <ele>155.7998</ele>
        <time>2020-09-27T10:44:11+02:00</time>
      </trkpt>
      <trkpt lat="43.50958" lon="1.51816">
        <ele>155.5</ele>
        <time>2020-09-27T10:44:16+02:00</time>
      </trkpt>
      <trkpt lat="43.50957" lon="1.51817">
        <ele>155.5</ele>
        <time>2020-09-27T10:44:17+02:00</time>
      </trkpt>
      <trkpt lat="43.50952" lon="1.51821">
        <ele>155.5</ele>
        <time>2020-09-27T10:44:21+02:00</time>
      </trkpt>
      <trkpt lat="43.50951" lon="1.51823">
        <ele>155.5</ele>
        <time>2020-09-27T10:44:23+02:00</time>
      </trkpt>
      <trkpt lat="43.50947" lon="1.51828">
        <ele>155.7002</ele>
        <time>2020-09-27T10:44:28+02:00</time>
      </trkpt>
      <trkpt lat="43.50946" lon="1.51829">
        <ele>155.2998</ele>
        <time>2020-09-27T10:44:29+02:00</time>
      </trkpt>
      <trkpt lat="43.50942" lon="1.51834">
        <ele>155.2998</ele>
        <time>2020-09-27T10:44:34+02:00</time>
      </trkpt>
      <trkpt lat="43.50941" lon="1.51835">
        <ele>155.5</ele>
        <time>2020-09-27T10:44:36+02:00</time>
      </trkpt>
      <trkpt lat="43.50936" lon="1.5184">
        <ele>155.2002</ele>
        <time>2020-09-27T10:44:40+02:00</time>
      </trkpt>
      <trkpt lat="43.50935" lon="1.51841">
        <ele>155.2002</ele>
        <time>2020-09-27T10:44:42+02:00</time>
      </trkpt>
      <trkpt lat="43.5093" lon="1.51845">
        <ele>155.40039</ele>
        <time>2020-09-27T10:44:47+02:00</time>
      </trkpt>
      <trkpt lat="43.50928" lon="1.51846">
        <ele>155.40039</ele>
        <time>2020-09-27T10:44:48+02:00</time>
      </trkpt>
      <trkpt lat="43.50922" lon="1.51848">
        <ele>155</ele>
        <time>2020-09-27T10:44:52+02:00</time>
      </trkpt>
      <trkpt lat="43.5092" lon="1.51848">
        <ele>155</ele>
        <time>2020-09-27T10:44:53+02:00</time>
      </trkpt>
      <trkpt lat="43.50913" lon="1.51852">
        <ele>154.7998</ele>
        <time>2020-09-27T10:44:58+02:00</time>
      </trkpt>
      <trkpt lat="43.50911" lon="1.51853">
        <ele>155.2002</ele>
        <time>2020-09-27T10:45:00+02:00</time>
      </trkpt>
      <trkpt lat="43.50904" lon="1.51857">
        <ele>154.90039</ele>
        <time>2020-09-27T10:45:05+02:00</time>
      </trkpt>
      <trkpt lat="43.50902" lon="1.51858">
        <ele>154.5</ele>
        <time>2020-09-27T10:45:06+02:00</time>
      </trkpt>
      <trkpt lat="43.50896" lon="1.51862">
        <ele>154.2002</ele>
        <time>2020-09-27T10:45:11+02:00</time>
      </trkpt>
      <trkpt lat="43.50895" lon="1.51863">
        <ele>154.2002</ele>
        <time>2020-09-27T10:45:12+02:00</time>
      </trkpt>
      <trkpt lat="43.5089" lon="1.51868">
        <ele>153.7002</ele>
        <time>2020-09-27T10:45:17+02:00</time>
      </trkpt>
      <trkpt lat="43.50889" lon="1.51869">
        <ele>154</ele>
        <time>2020-09-27T10:45:18+02:00</time>
      </trkpt>
      <trkpt lat="43.50885" lon="1.51874">
        <ele>154</ele>
        <time>2020-09-27T10:45:22+02:00</time>
      </trkpt>
      <trkpt lat="43.50884" lon="1.51876">
        <ele>153.5</ele>
        <time>2020-09-27T10:45:23+02:00</time>
      </trkpt>
      <trkpt lat="43.50879" lon="1.51882">
        <ele>153.7998</ele>
        <time>2020-09-27T10:45:28+02:00</time>
      </trkpt>
      <trkpt lat="43.50878" lon="1.51884">
        <ele>153.7998</ele>
        <time>2020-09-27T10:45:30+02:00</time>
      </trkpt>
      <trkpt lat="43.50875" lon="1.51891">
        <ele>153.60059</ele>
        <time>2020-09-27T10:45:34+02:00</time>
      </trkpt>
      <trkpt lat="43.50875" lon="1.51893">
        <ele>153.60059</ele>
        <time>2020-09-27T10:45:35+02:00</time>
      </trkpt>
      <trkpt lat="43.50872" lon="1.51901">
        <ele>153.5</ele>
        <time>2020-09-27T10:45:41+02:00</time>
      </trkpt>
      <trkpt lat="43.50871" lon="1.51903">
        <ele>153.5</ele>
        <time>2020-09-27T10:45:42+02:00</time>
      </trkpt>
      <trkpt lat="43.50868" lon="1.5191">
        <ele>153.7998</ele>
        <time>2020-09-27T10:45:46+02:00</time>
      </trkpt>
      <trkpt lat="43.50867" lon="1.51913">
        <ele>154.10059</ele>
        <time>2020-09-27T10:45:48+02:00</time>
      </trkpt>
      <trkpt lat="43.50862" lon="1.5192">
        <ele>154</ele>
        <time>2020-09-27T10:45:54+02:00</time>
      </trkpt>
      <trkpt lat="43.50861" lon="1.51922">
        <ele>154.2998</ele>
        <time>2020-09-27T10:45:55+02:00</time>
      </trkpt>
      <trkpt lat="43.50856" lon="1.51928">
        <ele>154.2002</ele>
        <time>2020-09-27T10:46:00+02:00</time>
      </trkpt>
      <trkpt lat="43.50855" lon="1.5193">
        <ele>154.40039</ele>
        <time>2020-09-27T10:46:01+02:00</time>
      </trkpt>
      <trkpt lat="43.5085" lon="1.51935">
        <ele>154.2002</ele>
        <time>2020-09-27T10:46:05+02:00</time>
      </trkpt>
      <trkpt lat="43.50849" lon="1.51936">
        <ele>154.2002</ele>
        <time>2020-09-27T10:46:06+02:00</time>
      </trkpt>
      <trkpt lat="43.50844" lon="1.51941">
        <ele>154</ele>
        <time>2020-09-27T10:46:11+02:00</time>
      </trkpt>
      <trkpt lat="43.50843" lon="1.51942">
        <ele>154</ele>
        <time>2020-09-27T10:46:12+02:00</time>
      </trkpt>
      <trkpt lat="43.50837" lon="1.51947">
        <ele>153.7998</ele>
        <time>2020-09-27T10:46:17+02:00</time>
      </trkpt>
      <trkpt lat="43.50835" lon="1.51947">
        <ele>153.7998</ele>
        <time>2020-09-27T10:46:18+02:00</time>
      </trkpt>
      <trkpt lat="43.5083" lon="1.51951">
        <ele>153.60059</ele>
        <time>2020-09-27T10:46:22+02:00</time>
      </trkpt>
      <trkpt lat="43.50828" lon="1.51952">
        <ele>153.40039</ele>
        <time>2020-09-27T10:46:23+02:00</time>
      </trkpt>
      <trkpt lat="43.50822" lon="1.51955">
        <ele>153.2998</ele>
        <time>2020-09-27T10:46:29+02:00</time>
      </trkpt>
      <trkpt lat="43.5082" lon="1.51956">
        <ele>153.2998</ele>
        <time>2020-09-27T10:46:30+02:00</time>
      </trkpt>
      <trkpt lat="43.50814" lon="1.51959">
        <ele>153</ele>
        <time>2020-09-27T10:46:36+02:00</time>
      </trkpt>
      <trkpt lat="43.50812" lon="1.5196">
        <ele>153</ele>
        <time>2020-09-27T10:46:37+02:00</time>
      </trkpt>
      <trkpt lat="43.50807" lon="1.51964">
        <ele>152.90039</ele>
        <time>2020-09-27T10:46:42+02:00</time>
      </trkpt>
      <trkpt lat="43.50805" lon="1.51964">
        <ele>152.90039</ele>
        <time>2020-09-27T10:46:43+02:00</time>
      </trkpt>
      <trkpt lat="43.508" lon="1.51968">
        <ele>152.60059</ele>
        <time>2020-09-27T10:46:48+02:00</time>
      </trkpt>
      <trkpt lat="43.50799" lon="1.51969">
        <ele>152.60059</ele>
        <time>2020-09-27T10:46:49+02:00</time>
      </trkpt>
      <trkpt lat="43.50793" lon="1.51975">
        <ele>152.7998</ele>
        <time>2020-09-27T10:46:54+02:00</time>
      </trkpt>
      <trkpt lat="43.50792" lon="1.51976">
        <ele>152.7998</ele>
        <time>2020-09-27T10:46:56+02:00</time>
      </trkpt>
      <trkpt lat="43.50788" lon="1.51982">
        <ele>153.10059</ele>
        <time>2020-09-27T10:47:00+02:00</time>
      </trkpt>
      <trkpt lat="43.50787" lon="1.51983">
        <ele>153.10059</ele>
        <time>2020-09-27T10:47:01+02:00</time>
      </trkpt>
      <trkpt lat="43.50782" lon="1.51988">
        <ele>153</ele>
        <time>2020-09-27T10:47:06+02:00</time>
      </trkpt>
      <trkpt lat="43.50781" lon="1.5199">
        <ele>153.2998</ele>
        <time>2020-09-27T10:47:07+02:00</time>
      </trkpt>
      <trkpt lat="43.50777" lon="1.51994">
        <ele>153.10059</ele>
        <time>2020-09-27T10:47:12+02:00</time>
      </trkpt>
      <trkpt lat="43.50775" lon="1.51996">
        <ele>153.10059</ele>
        <time>2020-09-27T10:47:13+02:00</time>
      </trkpt>
      <trkpt lat="43.5077" lon="1.52">
        <ele>153</ele>
        <time>2020-09-27T10:47:17+02:00</time>
      </trkpt>
      <trkpt lat="43.50769" lon="1.52002">
        <ele>153</ele>
        <time>2020-09-27T10:47:18+02:00</time>
      </trkpt>
      <trkpt lat="43.50764" lon="1.52007">
        <ele>153.10059</ele>
        <time>2020-09-27T10:47:23+02:00</time>
      </trkpt>
      <trkpt lat="43.50763" lon="1.52009">
        <ele>153.10059</ele>
        <time>2020-09-27T10:47:25+02:00</time>
      </trkpt>
      <trkpt lat="43.50757" lon="1.52014">
        <ele>152.90039</ele>
        <time>2020-09-27T10:47:29+02:00</time>
      </trkpt>
      <trkpt lat="43.50756" lon="1.52016">
        <ele>153.2998</ele>
        <time>2020-09-27T10:47:30+02:00</time>
      </trkpt>
      <trkpt lat="43.5075" lon="1.52023">
        <ele>153.2002</ele>
        <time>2020-09-27T10:47:35+02:00</time>
      </trkpt>
      <trkpt lat="43.50748" lon="1.52025">
        <ele>153.5</ele>
        <time>2020-09-27T10:47:36+02:00</time>
      </trkpt>
      <trkpt lat="43.50741" lon="1.52033">
        <ele>153.2998</ele>
        <time>2020-09-27T10:47:41+02:00</time>
      </trkpt>
      <trkpt lat="43.5074" lon="1.52034">
        <ele>153.2998</ele>
        <time>2020-09-27T10:47:42+02:00</time>
      </trkpt>
      <trkpt lat="43.50735" lon="1.5204">
        <ele>153.10059</ele>
        <time>2020-09-27T10:47:46+02:00</time>
      </trkpt>
      <trkpt lat="43.50733" lon="1.52041">
        <ele>153.10059</ele>
        <time>2020-09-27T10:47:47+02:00</time>
      </trkpt>
      <trkpt lat="43.50729" lon="1.52046">
        <ele>152.90039</ele>
        <time>2020-09-27T10:47:52+02:00</time>
      </trkpt>
      <trkpt lat="43.50727" lon="1.52047">
        <ele>152.90039</ele>
        <time>2020-09-27T10:47:53+02:00</time>
      </trkpt>
      <trkpt lat="43.50723" lon="1.52052">
        <ele>152.7998</ele>
        <time>2020-09-27T10:47:57+02:00</time>
      </trkpt>
      <trkpt lat="43.50721" lon="1.52054">
        <ele>152.7998</ele>
        <time>2020-09-27T10:47:59+02:00</time>
      </trkpt>
      <trkpt lat="43.50715" lon="1.52061">
        <ele>152.90039</ele>
        <time>2020-09-27T10:48:04+02:00</time>
      </trkpt>
      <trkpt lat="43.50714" lon="1.52063">
        <ele>152.90039</ele>
        <time>2020-09-27T10:48:05+02:00</time>
      </trkpt>
      <trkpt lat="43.50708" lon="1.52069">
        <ele>153</ele>
        <time>2020-09-27T10:48:10+02:00</time>
      </trkpt>
      <trkpt lat="43.50707" lon="1.5207">
        <ele>153</ele>
        <time>2020-09-27T10:48:11+02:00</time>
      </trkpt>
      <trkpt lat="43.50701" lon="1.52073">
        <ele>153</ele>
        <time>2020-09-27T10:48:16+02:00</time>
      </trkpt>
      <trkpt lat="43.507" lon="1.52074">
        <ele>153</ele>
        <time>2020-09-27T10:48:17+02:00</time>
      </trkpt>
      <trkpt lat="43.50694" lon="1.52077">
        <ele>153.10059</ele>
        <time>2020-09-27T10:48:22+02:00</time>
      </trkpt>
      <trkpt lat="43.50693" lon="1.52077">
        <ele>153.10059</ele>
        <time>2020-09-27T10:48:23+02:00</time>
      </trkpt>
      <trkpt lat="43.50688" lon="1.52079">
        <ele>153.2002</ele>
        <time>2020-09-27T10:48:28+02:00</time>
      </trkpt>
      <trkpt lat="43.50687" lon="1.52079">
        <ele>153.2002</ele>
        <time>2020-09-27T10:48:29+02:00</time>
      </trkpt>
      <trkpt lat="43.50681" lon="1.52081">
        <ele>153.2998</ele>
        <time>2020-09-27T10:48:33+02:00</time>
      </trkpt>
      <trkpt lat="43.5068" lon="1.52081">
        <ele>153.2998</ele>
        <time>2020-09-27T10:48:35+02:00</time>
      </trkpt>
      <trkpt lat="43.50675" lon="1.52081">
        <ele>153.40039</ele>
        <time>2020-09-27T10:48:39+02:00</time>
      </trkpt>
      <trkpt lat="43.50673" lon="1.52081">
        <ele>153.40039</ele>
        <time>2020-09-27T10:48:41+02:00</time>
      </trkpt>
      <trkpt lat="43.50667" lon="1.5208">
        <ele>153.40039</ele>
        <time>2020-09-27T10:48:45+02:00</time>
      </trkpt>
      <trkpt lat="43.50666" lon="1.5208">
        <ele>153.40039</ele>
        <time>2020-09-27T10:48:46+02:00</time>
      </trkpt>
      <trkpt lat="43.50659" lon="1.52077">
        <ele>153.2998</ele>
        <time>2020-09-27T10:48:51+02:00</time>
      </trkpt>
      <trkpt lat="43.50657" lon="1.52076">
        <ele>153.2998</ele>
        <time>2020-09-27T10:48:52+02:00</time>
      </trkpt>
      <trkpt lat="43.50651" lon="1.52075">
        <ele>153.2002</ele>
        <time>2020-09-27T10:48:57+02:00</time>
      </trkpt>
      <trkpt lat="43.50649" lon="1.52075">
        <ele>153.2002</ele>
        <time>2020-09-27T10:48:59+02:00</time>
      </trkpt>
      <trkpt lat="43.50643" lon="1.52075">
        <ele>153.10059</ele>
        <time>2020-09-27T10:49:03+02:00</time>
      </trkpt>
      <trkpt lat="43.50642" lon="1.52076">
        <ele>153</ele>
        <time>2020-09-27T10:49:04+02:00</time>
      </trkpt>
      <trkpt lat="43.50635" lon="1.52078">
        <ele>152.90039</ele>
        <time>2020-09-27T10:49:08+02:00</time>
      </trkpt>
      <trkpt lat="43.50633" lon="1.52078">
        <ele>152.90039</ele>
        <time>2020-09-27T10:49:10+02:00</time>
      </trkpt>
      <trkpt lat="43.50627" lon="1.52081">
        <ele>152.7998</ele>
        <time>2020-09-27T10:49:14+02:00</time>
      </trkpt>
      <trkpt lat="43.50625" lon="1.52081">
        <ele>152.7998</ele>
        <time>2020-09-27T10:49:15+02:00</time>
      </trkpt>
      <trkpt lat="43.5062" lon="1.52082">
        <ele>152.7002</ele>
        <time>2020-09-27T10:49:20+02:00</time>
      </trkpt>
      <trkpt lat="43.50619" lon="1.52082">
        <ele>152.7002</ele>
        <time>2020-09-27T10:49:21+02:00</time>
      </trkpt>
      <trkpt lat="43.50614" lon="1.5208">
        <ele>152.7002</ele>
        <time>2020-09-27T10:49:25+02:00</time>
      </trkpt>
      <trkpt lat="43.50613" lon="1.5208">
        <ele>152.7002</ele>
        <time>2020-09-27T10:49:26+02:00</time>
      </trkpt>
      <trkpt lat="43.50608" lon="1.52078">
        <ele>152.60059</ele>
        <time>2020-09-27T10:49:30+02:00</time>
      </trkpt>
      <trkpt lat="43.50606" lon="1.52078">
        <ele>152.60059</ele>
        <time>2020-09-27T10:49:31+02:00</time>
      </trkpt>
      <trkpt lat="43.50601" lon="1.52077">
        <ele>152.5</ele>
        <time>2020-09-27T10:49:36+02:00</time>
      </trkpt>
      <trkpt lat="43.50599" lon="1.52077">
        <ele>152.5</ele>
        <time>2020-09-27T10:49:37+02:00</time>
      </trkpt>
      <trkpt lat="43.50594" lon="1.52077">
        <ele>152.5</ele>
        <time>2020-09-27T10:49:42+02:00</time>
      </trkpt>
      <trkpt lat="43.50592" lon="1.52077">
        <ele>152.5</ele>
        <time>2020-09-27T10:49:43+02:00</time>
      </trkpt>
      <trkpt lat="43.50586" lon="1.52079">
        <ele>152.40039</ele>
        <time>2020-09-27T10:49:49+02:00</time>
      </trkpt>
      <trkpt lat="43.50584" lon="1.52079">
        <ele>152.40039</ele>
        <time>2020-09-27T10:49:50+02:00</time>
      </trkpt>
      <trkpt lat="43.50579" lon="1.52081">
        <ele>152.40039</ele>
        <time>2020-09-27T10:49:54+02:00</time>
      </trkpt>
      <trkpt lat="43.50577" lon="1.52082">
        <ele>152.40039</ele>
        <time>2020-09-27T10:49:55+02:00</time>
      </trkpt>
      <trkpt lat="43.50571" lon="1.52085">
        <ele>152.5</ele>
        <time>2020-09-27T10:49:59+02:00</time>
      </trkpt>
      <trkpt lat="43.5057" lon="1.52086">
        <ele>152.5</ele>
        <time>2020-09-27T10:50:01+02:00</time>
      </trkpt>
      <trkpt lat="43.50563" lon="1.52089">
        <ele>152.5</ele>
        <time>2020-09-27T10:50:05+02:00</time>
      </trkpt>
      <trkpt lat="43.50562" lon="1.5209">
        <ele>152.5</ele>
        <time>2020-09-27T10:50:06+02:00</time>
      </trkpt>
      <trkpt lat="43.50556" lon="1.52093">
        <ele>152.7002</ele>
        <time>2020-09-27T10:50:11+02:00</time>
      </trkpt>
      <trkpt lat="43.50554" lon="1.52094">
        <ele>152.60059</ele>
        <time>2020-09-27T10:50:12+02:00</time>
      </trkpt>
      <trkpt lat="43.50548" lon="1.52098">
        <ele>152.5</ele>
        <time>2020-09-27T10:50:18+02:00</time>
      </trkpt>
      <trkpt lat="43.50546" lon="1.52099">
        <ele>152.5</ele>
        <time>2020-09-27T10:50:19+02:00</time>
      </trkpt>
      <trkpt lat="43.50541" lon="1.52103">
        <ele>152.40039</ele>
        <time>2020-09-27T10:50:25+02:00</time>
      </trkpt>
      <trkpt lat="43.50539" lon="1.52104">
        <ele>152.40039</ele>
        <time>2020-09-27T10:50:26+02:00</time>
      </trkpt>
      <trkpt lat="43.50533" lon="1.52109">
        <ele>152.2002</ele>
        <time>2020-09-27T10:50:31+02:00</time>
      </trkpt>
      <trkpt lat="43.50531" lon="1.52109">
        <ele>152.2998</ele>
        <time>2020-09-27T10:50:32+02:00</time>
      </trkpt>
      <trkpt lat="43.50526" lon="1.52112">
        <ele>152.2998</ele>
        <time>2020-09-27T10:50:37+02:00</time>
      </trkpt>
      <trkpt lat="43.50524" lon="1.52113">
        <ele>152.2998</ele>
        <time>2020-09-27T10:50:38+02:00</time>
      </trkpt>
      <trkpt lat="43.50518" lon="1.52115">
        <ele>152.2002</ele>
        <time>2020-09-27T10:50:42+02:00</time>
      </trkpt>
      <trkpt lat="43.50517" lon="1.52115">
        <ele>152.10059</ele>
        <time>2020-09-27T10:50:43+02:00</time>
      </trkpt>
      <trkpt lat="43.50511" lon="1.52117">
        <ele>152.10059</ele>
        <time>2020-09-27T10:50:48+02:00</time>
      </trkpt>
      <trkpt lat="43.5051" lon="1.52118">
        <ele>152.2002</ele>
        <time>2020-09-27T10:50:49+02:00</time>
      </trkpt>
      <trkpt lat="43.50504" lon="1.5212">
        <ele>152.10059</ele>
        <time>2020-09-27T10:50:54+02:00</time>
      </trkpt>
      <trkpt lat="43.50502" lon="1.52121">
        <ele>152.10059</ele>
        <time>2020-09-27T10:50:55+02:00</time>
      </trkpt>
      <trkpt lat="43.50496" lon="1.52124">
        <ele>152</ele>
        <time>2020-09-27T10:50:59+02:00</time>
      </trkpt>
      <trkpt lat="43.50495" lon="1.52124">
        <ele>152</ele>
        <time>2020-09-27T10:51:01+02:00</time>
      </trkpt>
      <trkpt lat="43.50488" lon="1.52128">
        <ele>151.90039</ele>
        <time>2020-09-27T10:51:06+02:00</time>
      </trkpt>
      <trkpt lat="43.50487" lon="1.52129">
        <ele>151.90039</ele>
        <time>2020-09-27T10:51:08+02:00</time>
      </trkpt>
      <trkpt lat="43.50482" lon="1.52132">
        <ele>151.7998</ele>
        <time>2020-09-27T10:51:12+02:00</time>
      </trkpt>
      <trkpt lat="43.50481" lon="1.52132">
        <ele>151.7998</ele>
        <time>2020-09-27T10:51:13+02:00</time>
      </trkpt>
      <trkpt lat="43.50476" lon="1.52135">
        <ele>151.7998</ele>
        <time>2020-09-27T10:51:18+02:00</time>
      </trkpt>
      <trkpt lat="43.50474" lon="1.52136">
        <ele>151.7998</ele>
        <time>2020-09-27T10:51:19+02:00</time>
      </trkpt>
      <trkpt lat="43.50469" lon="1.5214">
        <ele>151.7002</ele>
        <time>2020-09-27T10:51:24+02:00</time>
      </trkpt>
      <trkpt lat="43.50468" lon="1.52142">
        <ele>151.7002</ele>
        <time>2020-09-27T10:51:25+02:00</time>
      </trkpt>
      <trkpt lat="43.50464" lon="1.52146">
        <ele>151.7002</ele>
        <time>2020-09-27T10:51:30+02:00</time>
      </trkpt>
      <trkpt lat="43.50463" lon="1.52147">
        <ele>151.7002</ele>
        <time>2020-09-27T10:51:31+02:00</time>
      </trkpt>
      <trkpt lat="43.50458" lon="1.52152">
        <ele>151.60059</ele>
        <time>2020-09-27T10:51:35+02:00</time>
      </trkpt>
      <trkpt lat="43.50457" lon="1.52153">
        <ele>151.60059</ele>
        <time>2020-09-27T10:51:36+02:00</time>
      </trkpt>
      <trkpt lat="43.50452" lon="1.52158">
        <ele>151.5</ele>
        <time>2020-09-27T10:51:41+02:00</time>
      </trkpt>
      <trkpt lat="43.50451" lon="1.52159">
        <ele>151.5</ele>
        <time>2020-09-27T10:51:42+02:00</time>
      </trkpt>
      <trkpt lat="43.50446" lon="1.52163">
        <ele>151.40039</ele>
        <time>2020-09-27T10:51:47+02:00</time>
      </trkpt>
      <trkpt lat="43.50445" lon="1.52164">
        <ele>151.40039</ele>
        <time>2020-09-27T10:51:49+02:00</time>
      </trkpt>
      <trkpt lat="43.5044" lon="1.5217">
        <ele>151.2998</ele>
        <time>2020-09-27T10:51:53+02:00</time>
      </trkpt>
      <trkpt lat="43.50439" lon="1.52171">
        <ele>151.2998</ele>
        <time>2020-09-27T10:51:54+02:00</time>
      </trkpt>
      <trkpt lat="43.50434" lon="1.52177">
        <ele>151.2002</ele>
        <time>2020-09-27T10:51:58+02:00</time>
      </trkpt>
      <trkpt lat="43.50433" lon="1.52178">
        <ele>151.2998</ele>
        <time>2020-09-27T10:52:00+02:00</time>
      </trkpt>
      <trkpt lat="43.50429" lon="1.52186">
        <ele>151.2998</ele>
        <time>2020-09-27T10:52:04+02:00</time>
      </trkpt>
      <trkpt lat="43.50428" lon="1.52188">
        <ele>151.40039</ele>
        <time>2020-09-27T10:52:05+02:00</time>
      </trkpt>
      <trkpt lat="43.50425" lon="1.52196">
        <ele>151.40039</ele>
        <time>2020-09-27T10:52:10+02:00</time>
      </trkpt>
      <trkpt lat="43.50425" lon="1.52198">
        <ele>151.40039</ele>
        <time>2020-09-27T10:52:11+02:00</time>
      </trkpt>
      <trkpt lat="43.50423" lon="1.52207">
        <ele>151.60059</ele>
        <time>2020-09-27T10:52:16+02:00</time>
      </trkpt>
      <trkpt lat="43.50422" lon="1.52209">
        <ele>151.60059</ele>
        <time>2020-09-27T10:52:18+02:00</time>
      </trkpt>
      <trkpt lat="43.50422" lon="1.52219">
        <ele>151.60059</ele>
        <time>2020-09-27T10:52:22+02:00</time>
      </trkpt>
      <trkpt lat="43.50422" lon="1.52221">
        <ele>151.7002</ele>
        <time>2020-09-27T10:52:23+02:00</time>
      </trkpt>
      <trkpt lat="43.50422" lon="1.52231">
        <ele>151.60059</ele>
        <time>2020-09-27T10:52:28+02:00</time>
      </trkpt>
      <trkpt lat="43.50423" lon="1.52234">
        <ele>151.60059</ele>
        <time>2020-09-27T10:52:29+02:00</time>
      </trkpt>
      <trkpt lat="43.50424" lon="1.52243">
        <ele>151.60059</ele>
        <time>2020-09-27T10:52:33+02:00</time>
      </trkpt>
      <trkpt lat="43.50424" lon="1.52245">
        <ele>151.60059</ele>
        <time>2020-09-27T10:52:35+02:00</time>
      </trkpt>
      <trkpt lat="43.50425" lon="1.52254">
        <ele>151.7002</ele>
        <time>2020-09-27T10:52:39+02:00</time>
      </trkpt>
      <trkpt lat="43.50425" lon="1.52257">
        <ele>151.7002</ele>
        <time>2020-09-27T10:52:40+02:00</time>
      </trkpt>
      <trkpt lat="43.50425" lon="1.52267">
        <ele>151.7002</ele>
        <time>2020-09-27T10:52:45+02:00</time>
      </trkpt>
      <trkpt lat="43.50426" lon="1.52269">
        <ele>151.7002</ele>
        <time>2020-09-27T10:52:46+02:00</time>
      </trkpt>
      <trkpt lat="43.50426" lon="1.5228">
        <ele>151.60059</ele>
        <time>2020-09-27T10:52:51+02:00</time>
      </trkpt>
      <trkpt lat="43.50426" lon="1.52283">
        <ele>151.60059</ele>
        <time>2020-09-27T10:52:53+02:00</time>
      </trkpt>
      <trkpt lat="43.50425" lon="1.52294">
        <ele>151.60059</ele>
        <time>2020-09-27T10:52:58+02:00</time>
      </trkpt>
      <trkpt lat="43.50425" lon="1.52297">
        <ele>151.60059</ele>
        <time>2020-09-27T10:53:00+02:00</time>
      </trkpt>
      <trkpt lat="43.50424" lon="1.52308">
        <ele>151.60059</ele>
        <time>2020-09-27T10:53:05+02:00</time>
      </trkpt>
      <trkpt lat="43.50424" lon="1.5231">
        <ele>151.60059</ele>
        <time>2020-09-27T10:53:06+02:00</time>
      </trkpt>
      <trkpt lat="43.50423" lon="1.5232">
        <ele>151.40039</ele>
        <time>2020-09-27T10:53:11+02:00</time>
      </trkpt>
      <trkpt lat="43.50423" lon="1.52323">
        <ele>151.40039</ele>
        <time>2020-09-27T10:53:12+02:00</time>
      </trkpt>
      <trkpt lat="43.50423" lon="1.52332">
        <ele>151.40039</ele>
        <time>2020-09-27T10:53:16+02:00</time>
      </trkpt>
      <trkpt lat="43.50423" lon="1.52334">
        <ele>151.40039</ele>
        <time>2020-09-27T10:53:17+02:00</time>
      </trkpt>
      <trkpt lat="43.50422" lon="1.52343">
        <ele>151.40039</ele>
        <time>2020-09-27T10:53:21+02:00</time>
      </trkpt>
      <trkpt lat="43.50422" lon="1.52345">
        <ele>151.40039</ele>
        <time>2020-09-27T10:53:23+02:00</time>
      </trkpt>
      <trkpt lat="43.50422" lon="1.52354">
        <ele>151.40039</ele>
        <time>2020-09-27T10:53:27+02:00</time>
      </trkpt>
      <trkpt lat="43.50422" lon="1.52356">
        <ele>151.40039</ele>
        <time>2020-09-27T10:53:28+02:00</time>
      </trkpt>
      <trkpt lat="43.50423" lon="1.52365">
        <ele>151.40039</ele>
        <time>2020-09-27T10:53:34+02:00</time>
      </trkpt>
      <trkpt lat="43.50423" lon="1.52367">
        <ele>151.40039</ele>
        <time>2020-09-27T10:53:35+02:00</time>
      </trkpt>
      <trkpt lat="43.50424" lon="1.52374">
        <ele>151.7002</ele>
        <time>2020-09-27T10:53:39+02:00</time>
      </trkpt>
      <trkpt lat="43.50425" lon="1.52376">
        <ele>151.7998</ele>
        <time>2020-09-27T10:53:40+02:00</time>
      </trkpt>
      <trkpt lat="43.50426" lon="1.52384">
        <ele>152.40039</ele>
        <time>2020-09-27T10:53:45+02:00</time>
      </trkpt>
      <trkpt lat="43.50426" lon="1.52387">
        <ele>152.40039</ele>
        <time>2020-09-27T10:53:47+02:00</time>
      </trkpt>
      <trkpt lat="43.50427" lon="1.52395">
        <ele>153.10059</ele>
        <time>2020-09-27T10:53:51+02:00</time>
      </trkpt>
      <trkpt lat="43.50427" lon="1.52398">
        <ele>153.10059</ele>
        <time>2020-09-27T10:53:52+02:00</time>
      </trkpt>
      <trkpt lat="43.50426" lon="1.52407">
        <ele>153.60059</ele>
        <time>2020-09-27T10:53:57+02:00</time>
      </trkpt>
      <trkpt lat="43.50426" lon="1.52409">
        <ele>153.60059</ele>
        <time>2020-09-27T10:53:58+02:00</time>
      </trkpt>
      <trkpt lat="43.50423" lon="1.52418">
        <ele>153.40039</ele>
        <time>2020-09-27T10:54:03+02:00</time>
      </trkpt>
      <trkpt lat="43.50422" lon="1.52419">
        <ele>153.60059</ele>
        <time>2020-09-27T10:54:04+02:00</time>
      </trkpt>
      <trkpt lat="43.50419" lon="1.52427">
        <ele>153.60059</ele>
        <time>2020-09-27T10:54:09+02:00</time>
      </trkpt>
      <trkpt lat="43.50419" lon="1.52428">
        <ele>153.7002</ele>
        <time>2020-09-27T10:54:10+02:00</time>
      </trkpt>
      <trkpt lat="43.50417" lon="1.52437">
        <ele>152.90039</ele>
        <time>2020-09-27T10:54:15+02:00</time>
      </trkpt>
      <trkpt lat="43.50416" lon="1.52439">
        <ele>152.90039</ele>
        <time>2020-09-27T10:54:16+02:00</time>
      </trkpt>
      <trkpt lat="43.50415" lon="1.52448">
        <ele>153.2002</ele>
        <time>2020-09-27T10:54:21+02:00</time>
      </trkpt>
      <trkpt lat="43.50415" lon="1.5245">
        <ele>153.2002</ele>
        <time>2020-09-27T10:54:22+02:00</time>
      </trkpt>
      <trkpt lat="43.50415" lon="1.52459">
        <ele>153.7002</ele>
        <time>2020-09-27T10:54:27+02:00</time>
      </trkpt>
      <trkpt lat="43.50415" lon="1.52461">
        <ele>153.7002</ele>
        <time>2020-09-27T10:54:28+02:00</time>
      </trkpt>
      <trkpt lat="43.50414" lon="1.5247">
        <ele>154.10059</ele>
        <time>2020-09-27T10:54:32+02:00</time>
      </trkpt>
      <trkpt lat="43.50414" lon="1.52472">
        <ele>154.40039</ele>
        <time>2020-09-27T10:54:33+02:00</time>
      </trkpt>
      <trkpt lat="43.50413" lon="1.52481">
        <ele>154.7002</ele>
        <time>2020-09-27T10:54:38+02:00</time>
      </trkpt>
      <trkpt lat="43.50413" lon="1.52483">
        <ele>154.7002</ele>
        <time>2020-09-27T10:54:39+02:00</time>
      </trkpt>
      <trkpt lat="43.50412" lon="1.52491">
        <ele>154.90039</ele>
        <time>2020-09-27T10:54:43+02:00</time>
      </trkpt>
      <trkpt lat="43.50412" lon="1.52493">
        <ele>154.90039</ele>
        <time>2020-09-27T10:54:44+02:00</time>
      </trkpt>
      <trkpt lat="43.50411" lon="1.52502">
        <ele>154.10059</ele>
        <time>2020-09-27T10:54:49+02:00</time>
      </trkpt>
      <trkpt lat="43.50411" lon="1.52504">
        <ele>154.10059</ele>
        <time>2020-09-27T10:54:50+02:00</time>
      </trkpt>
      <trkpt lat="43.5041" lon="1.52512">
        <ele>154.2998</ele>
        <time>2020-09-27T10:54:54+02:00</time>
      </trkpt>
      <trkpt lat="43.5041" lon="1.52514">
        <ele>154.40039</ele>
        <time>2020-09-27T10:54:56+02:00</time>
      </trkpt>
      <trkpt lat="43.50408" lon="1.52522">
        <ele>154.60059</ele>
        <time>2020-09-27T10:55:00+02:00</time>
      </trkpt>
      <trkpt lat="43.50408" lon="1.52524">
        <ele>154.60059</ele>
        <time>2020-09-27T10:55:01+02:00</time>
      </trkpt>
      <trkpt lat="43.50405" lon="1.52532">
        <ele>153.60059</ele>
        <time>2020-09-27T10:55:05+02:00</time>
      </trkpt>
      <trkpt lat="43.50404" lon="1.52534">
        <ele>153.60059</ele>
        <time>2020-09-27T10:55:06+02:00</time>
      </trkpt>
      <trkpt lat="43.50401" lon="1.52541">
        <ele>153.7002</ele>
        <time>2020-09-27T10:55:11+02:00</time>
      </trkpt>
      <trkpt lat="43.504" lon="1.52543">
        <ele>153.7002</ele>
        <time>2020-09-27T10:55:12+02:00</time>
      </trkpt>
      <trkpt lat="43.50396" lon="1.52549">
        <ele>153.7002</ele>
        <time>2020-09-27T10:55:16+02:00</time>
      </trkpt>
      <trkpt lat="43.50395" lon="1.52551">
        <ele>153.7002</ele>
        <time>2020-09-27T10:55:17+02:00</time>
      </trkpt>
      <trkpt lat="43.50393" lon="1.52557">
        <ele>153.7002</ele>
        <time>2020-09-27T10:55:22+02:00</time>
      </trkpt>
      <trkpt lat="43.50392" lon="1.52558">
        <ele>153.7002</ele>
        <time>2020-09-27T10:55:23+02:00</time>
      </trkpt>
      <trkpt lat="43.50389" lon="1.52565">
        <ele>154.10059</ele>
        <time>2020-09-27T10:55:27+02:00</time>
      </trkpt>
      <trkpt lat="43.50388" lon="1.52567">
        <ele>154.10059</ele>
        <time>2020-09-27T10:55:29+02:00</time>
      </trkpt>
      <trkpt lat="43.50385" lon="1.52575">
        <ele>153.2002</ele>
        <time>2020-09-27T10:55:33+02:00</time>
      </trkpt>
      <trkpt lat="43.50385" lon="1.52577">
        <ele>153.2002</ele>
        <time>2020-09-27T10:55:35+02:00</time>
      </trkpt>
      <trkpt lat="43.50382" lon="1.52586">
        <ele>153</ele>
        <time>2020-09-27T10:55:40+02:00</time>
      </trkpt>
      <trkpt lat="43.50381" lon="1.52589">
        <ele>153</ele>
        <time>2020-09-27T10:55:42+02:00</time>
      </trkpt>
      <trkpt lat="43.50379" lon="1.52596">
        <ele>152.10059</ele>
        <time>2020-09-27T10:55:47+02:00</time>
      </trkpt>
      <trkpt lat="43.50379" lon="1.52598">
        <ele>152.10059</ele>
        <time>2020-09-27T10:55:48+02:00</time>
      </trkpt>
      <trkpt lat="43.50376" lon="1.52605">
        <ele>151.90039</ele>
        <time>2020-09-27T10:55:53+02:00</time>
      </trkpt>
      <trkpt lat="43.50376" lon="1.52607">
        <ele>151.90039</ele>
        <time>2020-09-27T10:55:54+02:00</time>
      </trkpt>
      <trkpt lat="43.50373" lon="1.52614">
        <ele>151.40039</ele>
        <time>2020-09-27T10:55:58+02:00</time>
      </trkpt>
      <trkpt lat="43.50373" lon="1.52616">
        <ele>151.40039</ele>
        <time>2020-09-27T10:55:59+02:00</time>
      </trkpt>
      <trkpt lat="43.5037" lon="1.52623">
        <ele>151.40039</ele>
        <time>2020-09-27T10:56:04+02:00</time>
      </trkpt>
      <trkpt lat="43.50369" lon="1.52624">
        <ele>151.40039</ele>
        <time>2020-09-27T10:56:05+02:00</time>
      </trkpt>
      <trkpt lat="43.50367" lon="1.52632">
        <ele>151.7998</ele>
        <time>2020-09-27T10:56:10+02:00</time>
      </trkpt>
      <trkpt lat="43.50366" lon="1.52634">
        <ele>152</ele>
        <time>2020-09-27T10:56:11+02:00</time>
      </trkpt>
      <trkpt lat="43.50365" lon="1.52643">
        <ele>152.5</ele>
        <time>2020-09-27T10:56:16+02:00</time>
      </trkpt>
      <trkpt lat="43.50364" lon="1.52645">
        <ele>152.5</ele>
        <time>2020-09-27T10:56:17+02:00</time>
      </trkpt>
      <trkpt lat="43.50364" lon="1.52655">
        <ele>153</ele>
        <time>2020-09-27T10:56:22+02:00</time>
      </trkpt>
      <trkpt lat="43.50363" lon="1.52658">
        <ele>153</ele>
        <time>2020-09-27T10:56:24+02:00</time>
      </trkpt>
      <trkpt lat="43.50362" lon="1.52667">
        <ele>153.5</ele>
        <time>2020-09-27T10:56:28+02:00</time>
      </trkpt>
      <trkpt lat="43.50362" lon="1.52669">
        <ele>153.5</ele>
        <time>2020-09-27T10:56:30+02:00</time>
      </trkpt>
      <trkpt lat="43.5036" lon="1.52676">
        <ele>152.2998</ele>
        <time>2020-09-27T10:56:34+02:00</time>
      </trkpt>
      <trkpt lat="43.5036" lon="1.52677">
        <ele>153.10059</ele>
        <time>2020-09-27T10:56:35+02:00</time>
      </trkpt>
      <trkpt lat="43.50358" lon="1.52684">
        <ele>153.10059</ele>
        <time>2020-09-27T10:56:40+02:00</time>
      </trkpt>
      <trkpt lat="43.50358" lon="1.52685">
        <ele>153.90039</ele>
        <time>2020-09-27T10:56:41+02:00</time>
      </trkpt>
      <trkpt lat="43.50356" lon="1.52692">
        <ele>153.90039</ele>
        <time>2020-09-27T10:56:46+02:00</time>
      </trkpt>
      <trkpt lat="43.50356" lon="1.52694">
        <ele>154.5</ele>
        <time>2020-09-27T10:56:47+02:00</time>
      </trkpt>
      <trkpt lat="43.50355" lon="1.52702">
        <ele>154.2002</ele>
        <time>2020-09-27T10:56:52+02:00</time>
      </trkpt>
      <trkpt lat="43.50355" lon="1.52704">
        <ele>154.2002</ele>
        <time>2020-09-27T10:56:54+02:00</time>
      </trkpt>
      <trkpt lat="43.50353" lon="1.52711">
        <ele>154.60059</ele>
        <time>2020-09-27T10:56:58+02:00</time>
      </trkpt>
      <trkpt lat="43.50353" lon="1.52713">
        <ele>154.60059</ele>
        <time>2020-09-27T10:56:59+02:00</time>
      </trkpt>
      <trkpt lat="43.5035" lon="1.52718">
        <ele>154.60059</ele>
        <time>2020-09-27T10:57:04+02:00</time>
      </trkpt>
      <trkpt lat="43.50349" lon="1.5272">
        <ele>154.40039</ele>
        <time>2020-09-27T10:57:05+02:00</time>
      </trkpt>
      <trkpt lat="43.50346" lon="1.52725">
        <ele>154.40039</ele>
        <time>2020-09-27T10:57:10+02:00</time>
      </trkpt>
      <trkpt lat="43.50345" lon="1.52727">
        <ele>154.40039</ele>
        <time>2020-09-27T10:57:11+02:00</time>
      </trkpt>
      <trkpt lat="43.50342" lon="1.52733">
        <ele>154.2998</ele>
        <time>2020-09-27T10:57:16+02:00</time>
      </trkpt>
      <trkpt lat="43.50341" lon="1.52735">
        <ele>154.2998</ele>
        <time>2020-09-27T10:57:18+02:00</time>
      </trkpt>
      <trkpt lat="43.50338" lon="1.52741">
        <ele>154.60059</ele>
        <time>2020-09-27T10:57:22+02:00</time>
      </trkpt>
      <trkpt lat="43.50337" lon="1.52742">
        <ele>154.60059</ele>
        <time>2020-09-27T10:57:24+02:00</time>
      </trkpt>
      <trkpt lat="43.50333" lon="1.52747">
        <ele>154.40039</ele>
        <time>2020-09-27T10:57:28+02:00</time>
      </trkpt>
      <trkpt lat="43.50332" lon="1.52748">
        <ele>154.40039</ele>
        <time>2020-09-27T10:57:29+02:00</time>
      </trkpt>
      <trkpt lat="43.50328" lon="1.52752">
        <ele>153.7998</ele>
        <time>2020-09-27T10:57:34+02:00</time>
      </trkpt>
      <trkpt lat="43.50327" lon="1.52753">
        <ele>153.7998</ele>
        <time>2020-09-27T10:57:35+02:00</time>
      </trkpt>
      <trkpt lat="43.50322" lon="1.52756">
        <ele>154</ele>
        <time>2020-09-27T10:57:39+02:00</time>
      </trkpt>
      <trkpt lat="43.50321" lon="1.52757">
        <ele>154</ele>
        <time>2020-09-27T10:57:40+02:00</time>
      </trkpt>
      <trkpt lat="43.50317" lon="1.52761">
        <ele>153.60059</ele>
        <time>2020-09-27T10:57:45+02:00</time>
      </trkpt>
      <trkpt lat="43.50315" lon="1.52762">
        <ele>154.2998</ele>
        <time>2020-09-27T10:57:46+02:00</time>
      </trkpt>
      <trkpt lat="43.50311" lon="1.52766">
        <ele>154.10059</ele>
        <time>2020-09-27T10:57:51+02:00</time>
      </trkpt>
      <trkpt lat="43.5031" lon="1.52767">
        <ele>154.10059</ele>
        <time>2020-09-27T10:57:52+02:00</time>
      </trkpt>
      <trkpt lat="43.50307" lon="1.52773">
        <ele>154.7002</ele>
        <time>2020-09-27T10:57:57+02:00</time>
      </trkpt>
      <trkpt lat="43.50306" lon="1.52774">
        <ele>154.7002</ele>
        <time>2020-09-27T10:57:58+02:00</time>
      </trkpt>
      <trkpt lat="43.50302" lon="1.52781">
        <ele>155.10059</ele>
        <time>2020-09-27T10:58:03+02:00</time>
      </trkpt>
      <trkpt lat="43.503" lon="1.52782">
        <ele>155.10059</ele>
        <time>2020-09-27T10:58:04+02:00</time>
      </trkpt>
      <trkpt lat="43.50296" lon="1.52787">
        <ele>154.90039</ele>
        <time>2020-09-27T10:58:09+02:00</time>
      </trkpt>
      <trkpt lat="43.50295" lon="1.52788">
        <ele>155.40039</ele>
        <time>2020-09-27T10:58:10+02:00</time>
      </trkpt>
      <trkpt lat="43.5029" lon="1.52792">
        <ele>155.2998</ele>
        <time>2020-09-27T10:58:14+02:00</time>
      </trkpt>
      <trkpt lat="43.50289" lon="1.52793">
        <ele>155.2998</ele>
        <time>2020-09-27T10:58:15+02:00</time>
      </trkpt>
      <trkpt lat="43.50284" lon="1.52796">
        <ele>155.5</ele>
        <time>2020-09-27T10:58:20+02:00</time>
      </trkpt>
      <trkpt lat="43.50283" lon="1.52797">
        <ele>155.5</ele>
        <time>2020-09-27T10:58:21+02:00</time>
      </trkpt>
      <trkpt lat="43.50278" lon="1.52799">
        <ele>155.2998</ele>
        <time>2020-09-27T10:58:26+02:00</time>
      </trkpt>
      <trkpt lat="43.50277" lon="1.528">
        <ele>155.2998</ele>
        <time>2020-09-27T10:58:27+02:00</time>
      </trkpt>
      <trkpt lat="43.50273" lon="1.52803">
        <ele>155</ele>
        <time>2020-09-27T10:58:31+02:00</time>
      </trkpt>
      <trkpt lat="43.50271" lon="1.52804">
        <ele>155</ele>
        <time>2020-09-27T10:58:32+02:00</time>
      </trkpt>
      <trkpt lat="43.50267" lon="1.52807">
        <ele>155</ele>
        <time>2020-09-27T10:58:37+02:00</time>
      </trkpt>
      <trkpt lat="43.50266" lon="1.52807">
        <ele>155</ele>
        <time>2020-09-27T10:58:38+02:00</time>
      </trkpt>
      <trkpt lat="43.50262" lon="1.5281">
        <ele>154.60059</ele>
        <time>2020-09-27T10:58:42+02:00</time>
      </trkpt>
      <trkpt lat="43.50261" lon="1.52811">
        <ele>154.60059</ele>
        <time>2020-09-27T10:58:44+02:00</time>
      </trkpt>
      <trkpt lat="43.50257" lon="1.52815">
        <ele>155</ele>
        <time>2020-09-27T10:58:48+02:00</time>
      </trkpt>
      <trkpt lat="43.50256" lon="1.52816">
        <ele>154.60059</ele>
        <time>2020-09-27T10:58:50+02:00</time>
      </trkpt>
      <trkpt lat="43.50251" lon="1.5282">
        <ele>154.60059</ele>
        <time>2020-09-27T10:58:55+02:00</time>
      </trkpt>
      <trkpt lat="43.5025" lon="1.52821">
        <ele>154.60059</ele>
        <time>2020-09-27T10:58:56+02:00</time>
      </trkpt>
      <trkpt lat="43.50246" lon="1.52824">
        <ele>154.5</ele>
        <time>2020-09-27T10:59:00+02:00</time>
      </trkpt>
      <trkpt lat="43.50245" lon="1.52825">
        <ele>154.5</ele>
        <time>2020-09-27T10:59:01+02:00</time>
      </trkpt>
      <trkpt lat="43.50241" lon="1.52829">
        <ele>154.10059</ele>
        <time>2020-09-27T10:59:05+02:00</time>
      </trkpt>
      <trkpt lat="43.5024" lon="1.5283">
        <ele>154.10059</ele>
        <time>2020-09-27T10:59:07+02:00</time>
      </trkpt>
      <trkpt lat="43.50236" lon="1.52833">
        <ele>154.5</ele>
        <time>2020-09-27T10:59:11+02:00</time>
      </trkpt>
      <trkpt lat="43.50235" lon="1.52835">
        <ele>154.5</ele>
        <time>2020-09-27T10:59:13+02:00</time>
      </trkpt>
      <trkpt lat="43.5023" lon="1.5284">
        <ele>154.90039</ele>
        <time>2020-09-27T10:59:18+02:00</time>
      </trkpt>
      <trkpt lat="43.50228" lon="1.52841">
        <ele>154.90039</ele>
        <time>2020-09-27T10:59:19+02:00</time>
      </trkpt>
      <trkpt lat="43.50224" lon="1.52846">
        <ele>154.40039</ele>
        <time>2020-09-27T10:59:23+02:00</time>
      </trkpt>
      <trkpt lat="43.50223" lon="1.52847">
        <ele>154.40039</ele>
        <time>2020-09-27T10:59:24+02:00</time>
      </trkpt>
      <trkpt lat="43.50219" lon="1.52852">
        <ele>155</ele>
        <time>2020-09-27T10:59:29+02:00</time>
      </trkpt>
      <trkpt lat="43.50218" lon="1.52853">
        <ele>154.5</ele>
        <time>2020-09-27T10:59:30+02:00</time>
      </trkpt>
      <trkpt lat="43.50214" lon="1.52857">
        <ele>155</ele>
        <time>2020-09-27T10:59:34+02:00</time>
      </trkpt>
      <trkpt lat="43.50213" lon="1.52859">
        <ele>155</ele>
        <time>2020-09-27T10:59:36+02:00</time>
      </trkpt>
      <trkpt lat="43.50208" lon="1.52865">
        <ele>155</ele>
        <time>2020-09-27T10:59:40+02:00</time>
      </trkpt>
      <trkpt lat="43.50207" lon="1.52867">
        <ele>155</ele>
        <time>2020-09-27T10:59:41+02:00</time>
      </trkpt>
      <trkpt lat="43.50203" lon="1.52874">
        <ele>155.2998</ele>
        <time>2020-09-27T10:59:46+02:00</time>
      </trkpt>
      <trkpt lat="43.50202" lon="1.52876">
        <ele>155.2998</ele>
        <time>2020-09-27T10:59:47+02:00</time>
      </trkpt>
      <trkpt lat="43.50199" lon="1.52883">
        <ele>155.60059</ele>
        <time>2020-09-27T10:59:51+02:00</time>
      </trkpt>
      <trkpt lat="43.50198" lon="1.52885">
        <ele>155.60059</ele>
        <time>2020-09-27T10:59:52+02:00</time>
      </trkpt>
      <trkpt lat="43.50195" lon="1.52892">
        <ele>156.10059</ele>
        <time>2020-09-27T10:59:57+02:00</time>
      </trkpt>
      <trkpt lat="43.50194" lon="1.52893">
        <ele>156.10059</ele>
        <time>2020-09-27T10:59:58+02:00</time>
      </trkpt>
      <trkpt lat="43.5019" lon="1.52898">
        <ele>156</ele>
        <time>2020-09-27T11:00:02+02:00</time>
      </trkpt>
      <trkpt lat="43.50188" lon="1.52899">
        <ele>156.2998</ele>
        <time>2020-09-27T11:00:03+02:00</time>
      </trkpt>
      <trkpt lat="43.50184" lon="1.52903">
        <ele>156.10059</ele>
        <time>2020-09-27T11:00:08+02:00</time>
      </trkpt>
      <trkpt lat="43.50182" lon="1.52903">
        <ele>156.10059</ele>
        <time>2020-09-27T11:00:09+02:00</time>
      </trkpt>
      <trkpt lat="43.50177" lon="1.52907">
        <ele>155.60059</ele>
        <time>2020-09-27T11:00:16+02:00</time>
      </trkpt>
      <trkpt lat="43.50176" lon="1.52908">
        <ele>156</ele>
        <time>2020-09-27T11:00:17+02:00</time>
      </trkpt>
      <trkpt lat="43.50171" lon="1.52908">
        <ele>155.7002</ele>
        <time>2020-09-27T11:00:22+02:00</time>
      </trkpt>
      <trkpt lat="43.5017" lon="1.52908">
        <ele>155.7002</ele>
        <time>2020-09-27T11:00:23+02:00</time>
      </trkpt>
      <trkpt lat="43.50166" lon="1.52909">
        <ele>155.5</ele>
        <time>2020-09-27T11:00:28+02:00</time>
      </trkpt>
      <trkpt lat="43.50165" lon="1.52909">
        <ele>155.5</ele>
        <time>2020-09-27T11:00:29+02:00</time>
      </trkpt>
      <trkpt lat="43.5016" lon="1.5291">
        <ele>155.2002</ele>
        <time>2020-09-27T11:00:34+02:00</time>
      </trkpt>
      <trkpt lat="43.50158" lon="1.52911">
        <ele>155.2002</ele>
        <time>2020-09-27T11:00:35+02:00</time>
      </trkpt>
      <trkpt lat="43.50153" lon="1.52912">
        <ele>155</ele>
        <time>2020-09-27T11:00:39+02:00</time>
      </trkpt>
      <trkpt lat="43.50151" lon="1.52913">
        <ele>155</ele>
        <time>2020-09-27T11:00:41+02:00</time>
      </trkpt>
      <trkpt lat="43.50144" lon="1.52916">
        <ele>155.2998</ele>
        <time>2020-09-27T11:00:46+02:00</time>
      </trkpt>
      <trkpt lat="43.50143" lon="1.52917">
        <ele>154.90039</ele>
        <time>2020-09-27T11:00:47+02:00</time>
      </trkpt>
      <trkpt lat="43.50137" lon="1.52919">
        <ele>154.5</ele>
        <time>2020-09-27T11:00:52+02:00</time>
      </trkpt>
      <trkpt lat="43.50135" lon="1.5292">
        <ele>154.5</ele>
        <time>2020-09-27T11:00:53+02:00</time>
      </trkpt>
      <trkpt lat="43.50129" lon="1.52922">
        <ele>154</ele>
        <time>2020-09-27T11:00:57+02:00</time>
      </trkpt>
      <trkpt lat="43.50128" lon="1.52922">
        <ele>154</ele>
        <time>2020-09-27T11:00:58+02:00</time>
      </trkpt>
      <trkpt lat="43.50123" lon="1.52924">
        <ele>153.40039</ele>
        <time>2020-09-27T11:01:04+02:00</time>
      </trkpt>
      <trkpt lat="43.50121" lon="1.52925">
        <ele>153.90039</ele>
        <time>2020-09-27T11:01:05+02:00</time>
      </trkpt>
      <trkpt lat="43.50117" lon="1.52929">
        <ele>153.2998</ele>
        <time>2020-09-27T11:01:09+02:00</time>
      </trkpt>
      <trkpt lat="43.50116" lon="1.5293">
        <ele>153.2998</ele>
        <time>2020-09-27T11:01:10+02:00</time>
      </trkpt>
      <trkpt lat="43.50112" lon="1.52941">
        <ele>153.40039</ele>
        <time>2020-09-27T11:01:15+02:00</time>
      </trkpt>
      <trkpt lat="43.50111" lon="1.52943">
        <ele>154.10059</ele>
        <time>2020-09-27T11:01:16+02:00</time>
      </trkpt>
      <trkpt lat="43.50109" lon="1.52952">
        <ele>154.5</ele>
        <time>2020-09-27T11:01:20+02:00</time>
      </trkpt>
      <trkpt lat="43.50108" lon="1.52954">
        <ele>154.5</ele>
        <time>2020-09-27T11:01:22+02:00</time>
      </trkpt>
      <trkpt lat="43.50105" lon="1.52963">
        <ele>154.40039</ele>
        <time>2020-09-27T11:01:26+02:00</time>
      </trkpt>
      <trkpt lat="43.50104" lon="1.52965">
        <ele>154.40039</ele>
        <time>2020-09-27T11:01:28+02:00</time>
      </trkpt>
      <trkpt lat="43.50099" lon="1.52974">
        <ele>154.2998</ele>
        <time>2020-09-27T11:01:32+02:00</time>
      </trkpt>
      <trkpt lat="43.50098" lon="1.52976">
        <ele>154.2998</ele>
        <time>2020-09-27T11:01:34+02:00</time>
      </trkpt>
      <trkpt lat="43.50093" lon="1.52982">
        <ele>154.60059</ele>
        <time>2020-09-27T11:01:38+02:00</time>
      </trkpt>
      <trkpt lat="43.50092" lon="1.52983">
        <ele>154.60059</ele>
        <time>2020-09-27T11:01:40+02:00</time>
      </trkpt>
      <trkpt lat="43.50086" lon="1.52989">
        <ele>154.90039</ele>
        <time>2020-09-27T11:01:44+02:00</time>
      </trkpt>
      <trkpt lat="43.50085" lon="1.5299">
        <ele>154.90039</ele>
        <time>2020-09-27T11:01:46+02:00</time>
      </trkpt>
      <trkpt lat="43.5008" lon="1.52995">
        <ele>155.2998</ele>
        <time>2020-09-27T11:01:50+02:00</time>
      </trkpt>
      <trkpt lat="43.50078" lon="1.52996">
        <ele>155.2998</ele>
        <time>2020-09-27T11:01:51+02:00</time>
      </trkpt>
      <trkpt lat="43.50074" lon="1.53002">
        <ele>155</ele>
        <time>2020-09-27T11:01:56+02:00</time>
      </trkpt>
      <trkpt lat="43.50073" lon="1.53003">
        <ele>155.5</ele>
        <time>2020-09-27T11:01:57+02:00</time>
      </trkpt>
      <trkpt lat="43.50067" lon="1.53009">
        <ele>155.10059</ele>
        <time>2020-09-27T11:02:02+02:00</time>
      </trkpt>
      <trkpt lat="43.50066" lon="1.53011">
        <ele>155.40039</ele>
        <time>2020-09-27T11:02:03+02:00</time>
      </trkpt>
      <trkpt lat="43.5006" lon="1.53016">
        <ele>155</ele>
        <time>2020-09-27T11:02:07+02:00</time>
      </trkpt>
      <trkpt lat="43.50059" lon="1.53018">
        <ele>155</ele>
        <time>2020-09-27T11:02:08+02:00</time>
      </trkpt>
      <trkpt lat="43.50053" lon="1.53024">
        <ele>155</ele>
        <time>2020-09-27T11:02:13+02:00</time>
      </trkpt>
      <trkpt lat="43.50052" lon="1.53025">
        <ele>155</ele>
        <time>2020-09-27T11:02:15+02:00</time>
      </trkpt>
      <trkpt lat="43.50046" lon="1.5303">
        <ele>154.90039</ele>
        <time>2020-09-27T11:02:20+02:00</time>
      </trkpt>
      <trkpt lat="43.50045" lon="1.53031">
        <ele>154.90039</ele>
        <time>2020-09-27T11:02:21+02:00</time>
      </trkpt>
      <trkpt lat="43.50041" lon="1.53035">
        <ele>154.40039</ele>
        <time>2020-09-27T11:02:25+02:00</time>
      </trkpt>
      <trkpt lat="43.5004" lon="1.53036">
        <ele>154.7998</ele>
        <time>2020-09-27T11:02:26+02:00</time>
      </trkpt>
      <trkpt lat="43.50035" lon="1.53039">
        <ele>154.2998</ele>
        <time>2020-09-27T11:02:31+02:00</time>
      </trkpt>
      <trkpt lat="43.50034" lon="1.5304">
        <ele>154.2998</ele>
        <time>2020-09-27T11:02:32+02:00</time>
      </trkpt>
      <trkpt lat="43.5003" lon="1.53043">
        <ele>153.7002</ele>
        <time>2020-09-27T11:02:36+02:00</time>
      </trkpt>
      <trkpt lat="43.50029" lon="1.53044">
        <ele>153.7002</ele>
        <time>2020-09-27T11:02:37+02:00</time>
      </trkpt>
      <trkpt lat="43.50023" lon="1.53047">
        <ele>154.2998</ele>
        <time>2020-09-27T11:02:44+02:00</time>
      </trkpt>
      <trkpt lat="43.50022" lon="1.53048">
        <ele>154.2998</ele>
        <time>2020-09-27T11:02:45+02:00</time>
      </trkpt>
      <trkpt lat="43.50018" lon="1.53051">
        <ele>153.90039</ele>
        <time>2020-09-27T11:02:49+02:00</time>
      </trkpt>
      <trkpt lat="43.50017" lon="1.53052">
        <ele>153.90039</ele>
        <time>2020-09-27T11:02:51+02:00</time>
      </trkpt>
      <trkpt lat="43.50013" lon="1.53057">
        <ele>154.7002</ele>
        <time>2020-09-27T11:02:55+02:00</time>
      </trkpt>
      <trkpt lat="43.50012" lon="1.53058">
        <ele>154.2998</ele>
        <time>2020-09-27T11:02:56+02:00</time>
      </trkpt>
      <trkpt lat="43.50009" lon="1.53062">
        <ele>155</ele>
        <time>2020-09-27T11:03:01+02:00</time>
      </trkpt>
      <trkpt lat="43.50007" lon="1.53063">
        <ele>155</ele>
        <time>2020-09-27T11:03:02+02:00</time>
      </trkpt>
      <trkpt lat="43.50003" lon="1.53067">
        <ele>154.40039</ele>
        <time>2020-09-27T11:03:07+02:00</time>
      </trkpt>
      <trkpt lat="43.50001" lon="1.53068">
        <ele>154.40039</ele>
        <time>2020-09-27T11:03:09+02:00</time>
      </trkpt>
      <trkpt lat="43.49996" lon="1.53072">
        <ele>154.5</ele>
        <time>2020-09-27T11:03:13+02:00</time>
      </trkpt>
      <trkpt lat="43.49995" lon="1.53074">
        <ele>154.5</ele>
        <time>2020-09-27T11:03:15+02:00</time>
      </trkpt>
      <trkpt lat="43.49989" lon="1.53079">
        <ele>154.7998</ele>
        <time>2020-09-27T11:03:19+02:00</time>
      </trkpt>
      <trkpt lat="43.49988" lon="1.53081">
        <ele>154.7998</ele>
        <time>2020-09-27T11:03:21+02:00</time>
      </trkpt>
      <trkpt lat="43.49984" lon="1.53085">
        <ele>154.40039</ele>
        <time>2020-09-27T11:03:25+02:00</time>
      </trkpt>
      <trkpt lat="43.49982" lon="1.53087">
        <ele>154.40039</ele>
        <time>2020-09-27T11:03:27+02:00</time>
      </trkpt>
      <trkpt lat="43.49977" lon="1.53092">
        <ele>155</ele>
        <time>2020-09-27T11:03:32+02:00</time>
      </trkpt>
      <trkpt lat="43.49976" lon="1.53093">
        <ele>154.7002</ele>
        <time>2020-09-27T11:03:33+02:00</time>
      </trkpt>
      <trkpt lat="43.49971" lon="1.53097">
        <ele>155.5</ele>
        <time>2020-09-27T11:03:37+02:00</time>
      </trkpt>
      <trkpt lat="43.4997" lon="1.53099">
        <ele>155.5</ele>
        <time>2020-09-27T11:03:38+02:00</time>
      </trkpt>
      <trkpt lat="43.49964" lon="1.53104">
        <ele>155.2002</ele>
        <time>2020-09-27T11:03:44+02:00</time>
      </trkpt>
      <trkpt lat="43.49963" lon="1.53105">
        <ele>155.2998</ele>
        <time>2020-09-27T11:03:45+02:00</time>
      </trkpt>
      <trkpt lat="43.49958" lon="1.53111">
        <ele>155.2998</ele>
        <time>2020-09-27T11:03:49+02:00</time>
      </trkpt>
      <trkpt lat="43.49957" lon="1.53112">
        <ele>155.2998</ele>
        <time>2020-09-27T11:03:51+02:00</time>
      </trkpt>
      <trkpt lat="43.49952" lon="1.5312">
        <ele>155.10059</ele>
        <time>2020-09-27T11:03:55+02:00</time>
      </trkpt>
      <trkpt lat="43.49951" lon="1.53122">
        <ele>155.10059</ele>
        <time>2020-09-27T11:03:57+02:00</time>
      </trkpt>
      <trkpt lat="43.49945" lon="1.53133">
        <ele>155.60059</ele>
        <time>2020-09-27T11:04:02+02:00</time>
      </trkpt>
      <trkpt lat="43.49943" lon="1.53135">
        <ele>155.10059</ele>
        <time>2020-09-27T11:04:04+02:00</time>
      </trkpt>
      <trkpt lat="43.49938" lon="1.53143">
        <ele>154.90039</ele>
        <time>2020-09-27T11:04:08+02:00</time>
      </trkpt>
      <trkpt lat="43.49937" lon="1.53145">
        <ele>154.90039</ele>
        <time>2020-09-27T11:04:09+02:00</time>
      </trkpt>
      <trkpt lat="43.49931" lon="1.53151">
        <ele>154.90039</ele>
        <time>2020-09-27T11:04:15+02:00</time>
      </trkpt>
      <trkpt lat="43.4993" lon="1.53153">
        <ele>154.90039</ele>
        <time>2020-09-27T11:04:16+02:00</time>
      </trkpt>
      <trkpt lat="43.49924" lon="1.53158">
        <ele>155.40039</ele>
        <time>2020-09-27T11:04:21+02:00</time>
      </trkpt>
      <trkpt lat="43.49923" lon="1.53159">
        <ele>155.40039</ele>
        <time>2020-09-27T11:04:22+02:00</time>
      </trkpt>
      <trkpt lat="43.49917" lon="1.53163">
        <ele>155</ele>
        <time>2020-09-27T11:04:26+02:00</time>
      </trkpt>
      <trkpt lat="43.49916" lon="1.53164">
        <ele>155</ele>
        <time>2020-09-27T11:04:27+02:00</time>
      </trkpt>
      <trkpt lat="43.4991" lon="1.53167">
        <ele>155.40039</ele>
        <time>2020-09-27T11:04:32+02:00</time>
      </trkpt>
      <trkpt lat="43.49909" lon="1.53168">
        <ele>155.40039</ele>
        <time>2020-09-27T11:04:33+02:00</time>
      </trkpt>
      <trkpt lat="43.49904" lon="1.5317">
        <ele>154.7998</ele>
        <time>2020-09-27T11:04:37+02:00</time>
      </trkpt>
      <trkpt lat="43.49903" lon="1.53171">
        <ele>154.7998</ele>
        <time>2020-09-27T11:04:38+02:00</time>
      </trkpt>
      <trkpt lat="43.49898" lon="1.53174">
        <ele>155</ele>
        <time>2020-09-27T11:04:43+02:00</time>
      </trkpt>
      <trkpt lat="43.49896" lon="1.53175">
        <ele>155</ele>
        <time>2020-09-27T11:04:44+02:00</time>
      </trkpt>
      <trkpt lat="43.49891" lon="1.53179">
        <ele>154.2998</ele>
        <time>2020-09-27T11:04:49+02:00</time>
      </trkpt>
      <trkpt lat="43.4989" lon="1.5318">
        <ele>154.2998</ele>
        <time>2020-09-27T11:04:50+02:00</time>
      </trkpt>
      <trkpt lat="43.49885" lon="1.53184">
        <ele>154.60059</ele>
        <time>2020-09-27T11:04:54+02:00</time>
      </trkpt>
      <trkpt lat="43.49884" lon="1.53185">
        <ele>154.60059</ele>
        <time>2020-09-27T11:04:55+02:00</time>
      </trkpt>
      <trkpt lat="43.49879" lon="1.53189">
        <ele>154</ele>
        <time>2020-09-27T11:05:00+02:00</time>
      </trkpt>
      <trkpt lat="43.49878" lon="1.5319">
        <ele>154</ele>
        <time>2020-09-27T11:05:01+02:00</time>
      </trkpt>
      <trkpt lat="43.49873" lon="1.53195">
        <ele>154.7002</ele>
        <time>2020-09-27T11:05:06+02:00</time>
      </trkpt>
      <trkpt lat="43.49872" lon="1.53196">
        <ele>154.7002</ele>
        <time>2020-09-27T11:05:07+02:00</time>
      </trkpt>
      <trkpt lat="43.49868" lon="1.532">
        <ele>155.2998</ele>
        <time>2020-09-27T11:05:12+02:00</time>
      </trkpt>
      <trkpt lat="43.49867" lon="1.53201">
        <ele>155.2998</ele>
        <time>2020-09-27T11:05:13+02:00</time>
      </trkpt>
      <trkpt lat="43.49863" lon="1.53204">
        <ele>154.7002</ele>
        <time>2020-09-27T11:05:17+02:00</time>
      </trkpt>
      <trkpt lat="43.49862" lon="1.53205">
        <ele>154.7002</ele>
        <time>2020-09-27T11:05:18+02:00</time>
      </trkpt>
      <trkpt lat="43.49858" lon="1.53208">
        <ele>155.60059</ele>
        <time>2020-09-27T11:05:23+02:00</time>
      </trkpt>
      <trkpt lat="43.49857" lon="1.53209">
        <ele>155</ele>
        <time>2020-09-27T11:05:24+02:00</time>
      </trkpt>
      <trkpt lat="43.49853" lon="1.53212">
        <ele>155</ele>
        <time>2020-09-27T11:05:29+02:00</time>
      </trkpt>
      <trkpt lat="43.49852" lon="1.53212">
        <ele>155</ele>
        <time>2020-09-27T11:05:30+02:00</time>
      </trkpt>
      <trkpt lat="43.49847" lon="1.53214">
        <ele>154.10059</ele>
        <time>2020-09-27T11:05:34+02:00</time>
      </trkpt>
      <trkpt lat="43.49846" lon="1.53215">
        <ele>154.10059</ele>
        <time>2020-09-27T11:05:36+02:00</time>
      </trkpt>
      <trkpt lat="43.49842" lon="1.53218">
        <ele>154.2998</ele>
        <time>2020-09-27T11:05:40+02:00</time>
      </trkpt>
      <trkpt lat="43.49841" lon="1.53218">
        <ele>154.2998</ele>
        <time>2020-09-27T11:05:41+02:00</time>
      </trkpt>
      <trkpt lat="43.49836" lon="1.53222">
        <ele>153.60059</ele>
        <time>2020-09-27T11:05:46+02:00</time>
      </trkpt>
      <trkpt lat="43.49835" lon="1.53223">
        <ele>153.60059</ele>
        <time>2020-09-27T11:05:47+02:00</time>
      </trkpt>
      <trkpt lat="43.4983" lon="1.53228">
        <ele>154.40039</ele>
        <time>2020-09-27T11:05:52+02:00</time>
      </trkpt>
      <trkpt lat="43.49829" lon="1.53229">
        <ele>154.40039</ele>
        <time>2020-09-27T11:05:53+02:00</time>
      </trkpt>
      <trkpt lat="43.49825" lon="1.53234">
        <ele>155.10059</ele>
        <time>2020-09-27T11:05:58+02:00</time>
      </trkpt>
      <trkpt lat="43.49824" lon="1.53235">
        <ele>155.10059</ele>
        <time>2020-09-27T11:06:00+02:00</time>
      </trkpt>
      <trkpt lat="43.49819" lon="1.5324">
        <ele>154.5</ele>
        <time>2020-09-27T11:06:05+02:00</time>
      </trkpt>
      <trkpt lat="43.49818" lon="1.53241">
        <ele>154.5</ele>
        <time>2020-09-27T11:06:06+02:00</time>
      </trkpt>
      <trkpt lat="43.49813" lon="1.53246">
        <ele>154.60059</ele>
        <time>2020-09-27T11:06:10+02:00</time>
      </trkpt>
      <trkpt lat="43.49812" lon="1.53247">
        <ele>154.60059</ele>
        <time>2020-09-27T11:06:12+02:00</time>
      </trkpt>
      <trkpt lat="43.49807" lon="1.53252">
        <ele>154.60059</ele>
        <time>2020-09-27T11:06:16+02:00</time>
      </trkpt>
      <trkpt lat="43.49806" lon="1.53253">
        <ele>154.60059</ele>
        <time>2020-09-27T11:06:18+02:00</time>
      </trkpt>
      <trkpt lat="43.49801" lon="1.53259">
        <ele>153.7002</ele>
        <time>2020-09-27T11:06:22+02:00</time>
      </trkpt>
      <trkpt lat="43.498" lon="1.53261">
        <ele>154.7002</ele>
        <time>2020-09-27T11:06:23+02:00</time>
      </trkpt>
      <trkpt lat="43.49796" lon="1.53268">
        <ele>155.7002</ele>
        <time>2020-09-27T11:06:28+02:00</time>
      </trkpt>
      <trkpt lat="43.49795" lon="1.5327">
        <ele>154.90039</ele>
        <time>2020-09-27T11:06:29+02:00</time>
      </trkpt>
      <trkpt lat="43.49791" lon="1.53277">
        <ele>155.60059</ele>
        <time>2020-09-27T11:06:34+02:00</time>
      </trkpt>
      <trkpt lat="43.4979" lon="1.53278">
        <ele>155.60059</ele>
        <time>2020-09-27T11:06:35+02:00</time>
      </trkpt>
      <trkpt lat="43.49786" lon="1.53284">
        <ele>154.60059</ele>
        <time>2020-09-27T11:06:39+02:00</time>
      </trkpt>
      <trkpt lat="43.49785" lon="1.53286">
        <ele>155.2998</ele>
        <time>2020-09-27T11:06:40+02:00</time>
      </trkpt>
      <trkpt lat="43.49781" lon="1.53291">
        <ele>154.2002</ele>
        <time>2020-09-27T11:06:45+02:00</time>
      </trkpt>
      <trkpt lat="43.4978" lon="1.53293">
        <ele>154.2002</ele>
        <time>2020-09-27T11:06:46+02:00</time>
      </trkpt>
      <trkpt lat="43.49776" lon="1.533">
        <ele>154.2002</ele>
        <time>2020-09-27T11:06:51+02:00</time>
      </trkpt>
      <trkpt lat="43.49775" lon="1.53302">
        <ele>154.2002</ele>
        <time>2020-09-27T11:06:52+02:00</time>
      </trkpt>
      <trkpt lat="43.49771" lon="1.53309">
        <ele>155.10059</ele>
        <time>2020-09-27T11:06:56+02:00</time>
      </trkpt>
      <trkpt lat="43.4977" lon="1.53311">
        <ele>154.10059</ele>
        <time>2020-09-27T11:06:57+02:00</time>
      </trkpt>
      <trkpt lat="43.49764" lon="1.53318">
        <ele>154.7002</ele>
        <time>2020-09-27T11:07:02+02:00</time>
      </trkpt>
      <trkpt lat="43.49763" lon="1.5332">
        <ele>154.60059</ele>
        <time>2020-09-27T11:07:03+02:00</time>
      </trkpt>
      <trkpt lat="43.49758" lon="1.53327">
        <ele>154.60059</ele>
        <time>2020-09-27T11:07:07+02:00</time>
      </trkpt>
      <trkpt lat="43.49757" lon="1.53329">
        <ele>155.10059</ele>
        <time>2020-09-27T11:07:09+02:00</time>
      </trkpt>
      <trkpt lat="43.49752" lon="1.53336">
        <ele>155.10059</ele>
        <time>2020-09-27T11:07:13+02:00</time>
      </trkpt>
      <trkpt lat="43.49751" lon="1.53338">
        <ele>155.40039</ele>
        <time>2020-09-27T11:07:15+02:00</time>
      </trkpt>
      <trkpt lat="43.49747" lon="1.53345">
        <ele>155.7998</ele>
        <time>2020-09-27T11:07:19+02:00</time>
      </trkpt>
      <trkpt lat="43.49746" lon="1.53347">
        <ele>155.7998</ele>
        <time>2020-09-27T11:07:21+02:00</time>
      </trkpt>
      <trkpt lat="43.49742" lon="1.53354">
        <ele>154.2998</ele>
        <time>2020-09-27T11:07:25+02:00</time>
      </trkpt>
      <trkpt lat="43.49742" lon="1.53355">
        <ele>154.90039</ele>
        <time>2020-09-27T11:07:26+02:00</time>
      </trkpt>
      <trkpt lat="43.49739" lon="1.53362">
        <ele>153.5</ele>
        <time>2020-09-27T11:07:31+02:00</time>
      </trkpt>
      <trkpt lat="43.49738" lon="1.53363">
        <ele>154.5</ele>
        <time>2020-09-27T11:07:32+02:00</time>
      </trkpt>
      <trkpt lat="43.49735" lon="1.5337">
        <ele>154.5</ele>
        <time>2020-09-27T11:07:36+02:00</time>
      </trkpt>
      <trkpt lat="43.49734" lon="1.53372">
        <ele>155.2998</ele>
        <time>2020-09-27T11:07:37+02:00</time>
      </trkpt>
      <trkpt lat="43.49731" lon="1.53378">
        <ele>154.5</ele>
        <time>2020-09-27T11:07:42+02:00</time>
      </trkpt>
      <trkpt lat="43.4973" lon="1.5338">
        <ele>155</ele>
        <time>2020-09-27T11:07:43+02:00</time>
      </trkpt>
      <trkpt lat="43.49727" lon="1.53385">
        <ele>155</ele>
        <time>2020-09-27T11:07:47+02:00</time>
      </trkpt>
      <trkpt lat="43.49726" lon="1.53387">
        <ele>154</ele>
        <time>2020-09-27T11:07:48+02:00</time>
      </trkpt>
      <trkpt lat="43.49723" lon="1.53392">
        <ele>154.60059</ele>
        <time>2020-09-27T11:07:53+02:00</time>
      </trkpt>
      <trkpt lat="43.49722" lon="1.53394">
        <ele>154.60059</ele>
        <time>2020-09-27T11:07:54+02:00</time>
      </trkpt>
      <trkpt lat="43.49718" lon="1.534">
        <ele>154.40039</ele>
        <time>2020-09-27T11:07:59+02:00</time>
      </trkpt>
      <trkpt lat="43.49717" lon="1.53401">
        <ele>154.40039</ele>
        <time>2020-09-27T11:08:00+02:00</time>
      </trkpt>
      <trkpt lat="43.49713" lon="1.53406">
        <ele>154.40039</ele>
        <time>2020-09-27T11:08:04+02:00</time>
      </trkpt>
      <trkpt lat="43.49712" lon="1.53407">
        <ele>154.40039</ele>
        <time>2020-09-27T11:08:05+02:00</time>
      </trkpt>
      <trkpt lat="43.49709" lon="1.53413">
        <ele>154.40039</ele>
        <time>2020-09-27T11:08:10+02:00</time>
      </trkpt>
      <trkpt lat="43.49708" lon="1.53414">
        <ele>153.5</ele>
        <time>2020-09-27T11:08:11+02:00</time>
      </trkpt>
      <trkpt lat="43.49704" lon="1.53419">
        <ele>153.90039</ele>
        <time>2020-09-27T11:08:16+02:00</time>
      </trkpt>
      <trkpt lat="43.49703" lon="1.5342">
        <ele>153.90039</ele>
        <time>2020-09-27T11:08:17+02:00</time>
      </trkpt>
      <trkpt lat="43.497" lon="1.53426">
        <ele>153.60059</ele>
        <time>2020-09-27T11:08:21+02:00</time>
      </trkpt>
      <trkpt lat="43.49699" lon="1.53427">
        <ele>153.60059</ele>
        <time>2020-09-27T11:08:22+02:00</time>
      </trkpt>
      <trkpt lat="43.49696" lon="1.53434">
        <ele>154.2002</ele>
        <time>2020-09-27T11:08:27+02:00</time>
      </trkpt>
      <trkpt lat="43.49695" lon="1.53436">
        <ele>153.5</ele>
        <time>2020-09-27T11:08:28+02:00</time>
      </trkpt>
      <trkpt lat="43.49692" lon="1.53444">
        <ele>154.2002</ele>
        <time>2020-09-27T11:08:33+02:00</time>
      </trkpt>
      <trkpt lat="43.49692" lon="1.53447">
        <ele>154.2002</ele>
        <time>2020-09-27T11:08:34+02:00</time>
      </trkpt>
      <trkpt lat="43.49689" lon="1.53455">
        <ele>153.7998</ele>
        <time>2020-09-27T11:08:38+02:00</time>
      </trkpt>
      <trkpt lat="43.49688" lon="1.53457">
        <ele>154.2002</ele>
        <time>2020-09-27T11:08:40+02:00</time>
      </trkpt>
      <trkpt lat="43.49685" lon="1.53464">
        <ele>154.2002</ele>
        <time>2020-09-27T11:08:45+02:00</time>
      </trkpt>
      <trkpt lat="43.49684" lon="1.53466">
        <ele>154.5</ele>
        <time>2020-09-27T11:08:47+02:00</time>
      </trkpt>
      <trkpt lat="43.49681" lon="1.53472">
        <ele>154</ele>
        <time>2020-09-27T11:08:51+02:00</time>
      </trkpt>
      <trkpt lat="43.4968" lon="1.53473">
        <ele>154</ele>
        <time>2020-09-27T11:08:53+02:00</time>
      </trkpt>
      <trkpt lat="43.49677" lon="1.53478">
        <ele>154.40039</ele>
        <time>2020-09-27T11:08:57+02:00</time>
      </trkpt>
      <trkpt lat="43.49676" lon="1.53479">
        <ele>153.90039</ele>
        <time>2020-09-27T11:08:58+02:00</time>
      </trkpt>
      <trkpt lat="43.49672" lon="1.53483">
        <ele>154.2002</ele>
        <time>2020-09-27T11:09:02+02:00</time>
      </trkpt>
      <trkpt lat="43.49671" lon="1.53484">
        <ele>154.2002</ele>
        <time>2020-09-27T11:09:03+02:00</time>
      </trkpt>
      <trkpt lat="43.49666" lon="1.53489">
        <ele>153.60059</ele>
        <time>2020-09-27T11:09:08+02:00</time>
      </trkpt>
      <trkpt lat="43.49665" lon="1.5349">
        <ele>153.60059</ele>
        <time>2020-09-27T11:09:09+02:00</time>
      </trkpt>
      <trkpt lat="43.4966" lon="1.53493">
        <ele>153.2998</ele>
        <time>2020-09-27T11:09:14+02:00</time>
      </trkpt>
      <trkpt lat="43.49659" lon="1.53494">
        <ele>153.2998</ele>
        <time>2020-09-27T11:09:15+02:00</time>
      </trkpt>
      <trkpt lat="43.49654" lon="1.53499">
        <ele>152.7002</ele>
        <time>2020-09-27T11:09:20+02:00</time>
      </trkpt>
      <trkpt lat="43.49653" lon="1.535">
        <ele>152.7002</ele>
        <time>2020-09-27T11:09:21+02:00</time>
      </trkpt>
      <trkpt lat="43.49649" lon="1.53504">
        <ele>152.7002</ele>
        <time>2020-09-27T11:09:25+02:00</time>
      </trkpt>
      <trkpt lat="43.49647" lon="1.53506">
        <ele>152.7002</ele>
        <time>2020-09-27T11:09:26+02:00</time>
      </trkpt>
      <trkpt lat="43.49642" lon="1.53513">
        <ele>152.5</ele>
        <time>2020-09-27T11:09:31+02:00</time>
      </trkpt>
      <trkpt lat="43.49641" lon="1.53515">
        <ele>152.5</ele>
        <time>2020-09-27T11:09:32+02:00</time>
      </trkpt>
      <trkpt lat="43.49636" lon="1.53523">
        <ele>152.2998</ele>
        <time>2020-09-27T11:09:37+02:00</time>
      </trkpt>
      <trkpt lat="43.49635" lon="1.53525">
        <ele>152.2998</ele>
        <time>2020-09-27T11:09:39+02:00</time>
      </trkpt>
      <trkpt lat="43.49631" lon="1.53533">
        <ele>152.2998</ele>
        <time>2020-09-27T11:09:44+02:00</time>
      </trkpt>
      <trkpt lat="43.4963" lon="1.53535">
        <ele>152.90039</ele>
        <time>2020-09-27T11:09:45+02:00</time>
      </trkpt>
      <trkpt lat="43.49626" lon="1.53544">
        <ele>153.2002</ele>
        <time>2020-09-27T11:09:50+02:00</time>
      </trkpt>
      <trkpt lat="43.49625" lon="1.53546">
        <ele>153.2002</ele>
        <time>2020-09-27T11:09:52+02:00</time>
      </trkpt>
      <trkpt lat="43.49621" lon="1.53554">
        <ele>153.40039</ele>
        <time>2020-09-27T11:09:57+02:00</time>
      </trkpt>
      <trkpt lat="43.4962" lon="1.53556">
        <ele>153.2998</ele>
        <time>2020-09-27T11:09:58+02:00</time>
      </trkpt>
      <trkpt lat="43.49615" lon="1.53563">
        <ele>153.40039</ele>
        <time>2020-09-27T11:10:03+02:00</time>
      </trkpt>
      <trkpt lat="43.49614" lon="1.53564">
        <ele>153.2002</ele>
        <time>2020-09-27T11:10:04+02:00</time>
      </trkpt>
      <trkpt lat="43.49609" lon="1.53569">
        <ele>153.2002</ele>
        <time>2020-09-27T11:10:09+02:00</time>
      </trkpt>
      <trkpt lat="43.49608" lon="1.5357">
        <ele>153</ele>
        <time>2020-09-27T11:10:11+02:00</time>
      </trkpt>
      <trkpt lat="43.49603" lon="1.53571">
        <ele>153</ele>
        <time>2020-09-27T11:10:15+02:00</time>
      </trkpt>
      <trkpt lat="43.49601" lon="1.53571">
        <ele>152.7002</ele>
        <time>2020-09-27T11:10:16+02:00</time>
      </trkpt>
      <trkpt lat="43.49595" lon="1.53571">
        <ele>152.40039</ele>
        <time>2020-09-27T11:10:21+02:00</time>
      </trkpt>
      <trkpt lat="43.49594" lon="1.53571">
        <ele>152.40039</ele>
        <time>2020-09-27T11:10:22+02:00</time>
      </trkpt>
      <trkpt lat="43.49587" lon="1.5357">
        <ele>152.2002</ele>
        <time>2020-09-27T11:10:26+02:00</time>
      </trkpt>
      <trkpt lat="43.49586" lon="1.5357">
        <ele>152.2002</ele>
        <time>2020-09-27T11:10:28+02:00</time>
      </trkpt>
      <trkpt lat="43.49579" lon="1.53571">
        <ele>152.10059</ele>
        <time>2020-09-27T11:10:32+02:00</time>
      </trkpt>
      <trkpt lat="43.49577" lon="1.53572">
        <ele>152.10059</ele>
        <time>2020-09-27T11:10:33+02:00</time>
      </trkpt>
      <trkpt lat="43.49571" lon="1.53575">
        <ele>152</ele>
        <time>2020-09-27T11:10:38+02:00</time>
      </trkpt>
      <trkpt lat="43.4957" lon="1.53576">
        <ele>151.90039</ele>
        <time>2020-09-27T11:10:39+02:00</time>
      </trkpt>
      <trkpt lat="43.49564" lon="1.5358">
        <ele>152.2002</ele>
        <time>2020-09-27T11:10:44+02:00</time>
      </trkpt>
      <trkpt lat="43.49562" lon="1.53581">
        <ele>152.2002</ele>
        <time>2020-09-27T11:10:45+02:00</time>
      </trkpt>
      <trkpt lat="43.49557" lon="1.53584">
        <ele>152.10059</ele>
        <time>2020-09-27T11:10:49+02:00</time>
      </trkpt>
      <trkpt lat="43.49556" lon="1.53585">
        <ele>152.10059</ele>
        <time>2020-09-27T11:10:50+02:00</time>
      </trkpt>
      <trkpt lat="43.49551" lon="1.5359">
        <ele>152.2998</ele>
        <time>2020-09-27T11:10:55+02:00</time>
      </trkpt>
      <trkpt lat="43.49549" lon="1.53591">
        <ele>152.2998</ele>
        <time>2020-09-27T11:10:56+02:00</time>
      </trkpt>
      <trkpt lat="43.49544" lon="1.53596">
        <ele>152.2998</ele>
        <time>2020-09-27T11:11:01+02:00</time>
      </trkpt>
      <trkpt lat="43.49543" lon="1.53597">
        <ele>152.2998</ele>
        <time>2020-09-27T11:11:02+02:00</time>
      </trkpt>
      <trkpt lat="43.49538" lon="1.53601">
        <ele>152.2998</ele>
        <time>2020-09-27T11:11:06+02:00</time>
      </trkpt>
      <trkpt lat="43.49537" lon="1.53602">
        <ele>152.2998</ele>
        <time>2020-09-27T11:11:08+02:00</time>
      </trkpt>
      <trkpt lat="43.49532" lon="1.53606">
        <ele>152.2998</ele>
        <time>2020-09-27T11:11:12+02:00</time>
      </trkpt>
      <trkpt lat="43.49531" lon="1.53607">
        <ele>152.2998</ele>
        <time>2020-09-27T11:11:13+02:00</time>
      </trkpt>
      <trkpt lat="43.49526" lon="1.53611">
        <ele>152.40039</ele>
        <time>2020-09-27T11:11:18+02:00</time>
      </trkpt>
      <trkpt lat="43.49525" lon="1.53611">
        <ele>152.40039</ele>
        <time>2020-09-27T11:11:19+02:00</time>
      </trkpt>
      <trkpt lat="43.49521" lon="1.53614">
        <ele>152.2998</ele>
        <time>2020-09-27T11:11:23+02:00</time>
      </trkpt>
      <trkpt lat="43.4952" lon="1.53614">
        <ele>152.2998</ele>
        <time>2020-09-27T11:11:24+02:00</time>
      </trkpt>
      <trkpt lat="43.49515" lon="1.53616">
        <ele>152.2998</ele>
        <time>2020-09-27T11:11:29+02:00</time>
      </trkpt>
      <trkpt lat="43.49514" lon="1.53617">
        <ele>152.40039</ele>
        <time>2020-09-27T11:11:30+02:00</time>
      </trkpt>
      <trkpt lat="43.4951" lon="1.53618">
        <ele>152.40039</ele>
        <time>2020-09-27T11:11:34+02:00</time>
      </trkpt>
      <trkpt lat="43.49508" lon="1.53618">
        <ele>152.5</ele>
        <time>2020-09-27T11:11:35+02:00</time>
      </trkpt>
      <trkpt lat="43.49504" lon="1.53618">
        <ele>152.5</ele>
        <time>2020-09-27T11:11:40+02:00</time>
      </trkpt>
      <trkpt lat="43.49502" lon="1.53618">
        <ele>152.60059</ele>
        <time>2020-09-27T11:11:41+02:00</time>
      </trkpt>
      <trkpt lat="43.49497" lon="1.53618">
        <ele>152.60059</ele>
        <time>2020-09-27T11:11:45+02:00</time>
      </trkpt>
      <trkpt lat="43.49496" lon="1.53618">
        <ele>152.7002</ele>
        <time>2020-09-27T11:11:47+02:00</time>
      </trkpt>
      <trkpt lat="43.49491" lon="1.53618">
        <ele>152.7002</ele>
        <time>2020-09-27T11:11:51+02:00</time>
      </trkpt>
      <trkpt lat="43.4949" lon="1.53618">
        <ele>152.7002</ele>
        <time>2020-09-27T11:11:52+02:00</time>
      </trkpt>
      <trkpt lat="43.49484" lon="1.53618">
        <ele>152.7002</ele>
        <time>2020-09-27T11:11:57+02:00</time>
      </trkpt>
      <trkpt lat="43.49483" lon="1.53618">
        <ele>152.7998</ele>
        <time>2020-09-27T11:11:58+02:00</time>
      </trkpt>
      <trkpt lat="43.49477" lon="1.53619">
        <ele>152.60059</ele>
        <time>2020-09-27T11:12:03+02:00</time>
      </trkpt>
      <trkpt lat="43.49476" lon="1.53619">
        <ele>152.60059</ele>
        <time>2020-09-27T11:12:04+02:00</time>
      </trkpt>
      <trkpt lat="43.4947" lon="1.5362">
        <ele>152.5</ele>
        <time>2020-09-27T11:12:08+02:00</time>
      </trkpt>
      <trkpt lat="43.49469" lon="1.53621">
        <ele>152.5</ele>
        <time>2020-09-27T11:12:09+02:00</time>
      </trkpt>
      <trkpt lat="43.49463" lon="1.53623">
        <ele>152.2998</ele>
        <time>2020-09-27T11:12:14+02:00</time>
      </trkpt>
      <trkpt lat="43.49461" lon="1.53624">
        <ele>152.2998</ele>
        <time>2020-09-27T11:12:15+02:00</time>
      </trkpt>
      <trkpt lat="43.49456" lon="1.53626">
        <ele>152.10059</ele>
        <time>2020-09-27T11:12:20+02:00</time>
      </trkpt>
      <trkpt lat="43.49454" lon="1.53627">
        <ele>152.10059</ele>
        <time>2020-09-27T11:12:21+02:00</time>
      </trkpt>
      <trkpt lat="43.49449" lon="1.53629">
        <ele>152.2002</ele>
        <time>2020-09-27T11:12:26+02:00</time>
      </trkpt>
      <trkpt lat="43.49447" lon="1.53629">
        <ele>152.2002</ele>
        <time>2020-09-27T11:12:27+02:00</time>
      </trkpt>
      <trkpt lat="43.49442" lon="1.53631">
        <ele>152.10059</ele>
        <time>2020-09-27T11:12:32+02:00</time>
      </trkpt>
      <trkpt lat="43.4944" lon="1.53632">
        <ele>152</ele>
        <time>2020-09-27T11:12:34+02:00</time>
      </trkpt>
      <trkpt lat="43.49434" lon="1.53631">
        <ele>152</ele>
        <time>2020-09-27T11:12:39+02:00</time>
      </trkpt>
      <trkpt lat="43.49432" lon="1.53631">
        <ele>152</ele>
        <time>2020-09-27T11:12:41+02:00</time>
      </trkpt>
      <trkpt lat="43.49426" lon="1.53631">
        <ele>152</ele>
        <time>2020-09-27T11:12:45+02:00</time>
      </trkpt>
      <trkpt lat="43.49425" lon="1.5363">
        <ele>152</ele>
        <time>2020-09-27T11:12:47+02:00</time>
      </trkpt>
      <trkpt lat="43.49419" lon="1.53629">
        <ele>152</ele>
        <time>2020-09-27T11:12:51+02:00</time>
      </trkpt>
      <trkpt lat="43.49418" lon="1.53629">
        <ele>152</ele>
        <time>2020-09-27T11:12:52+02:00</time>
      </trkpt>
      <trkpt lat="43.49411" lon="1.53627">
        <ele>151.7998</ele>
        <time>2020-09-27T11:12:57+02:00</time>
      </trkpt>
      <trkpt lat="43.49409" lon="1.53627">
        <ele>151.7998</ele>
        <time>2020-09-27T11:12:59+02:00</time>
      </trkpt>
      <trkpt lat="43.49402" lon="1.53628">
        <ele>151.7998</ele>
        <time>2020-09-27T11:13:03+02:00</time>
      </trkpt>
      <trkpt lat="43.494" lon="1.53628">
        <ele>151.7998</ele>
        <time>2020-09-27T11:13:05+02:00</time>
      </trkpt>
      <trkpt lat="43.49392" lon="1.53631">
        <ele>152</ele>
        <time>2020-09-27T11:13:10+02:00</time>
      </trkpt>
      <trkpt lat="43.4939" lon="1.53632">
        <ele>152</ele>
        <time>2020-09-27T11:13:11+02:00</time>
      </trkpt>
      <trkpt lat="43.49384" lon="1.53636">
        <ele>152</ele>
        <time>2020-09-27T11:13:15+02:00</time>
      </trkpt>
      <trkpt lat="43.49382" lon="1.53637">
        <ele>152.10059</ele>
        <time>2020-09-27T11:13:16+02:00</time>
      </trkpt>
      <trkpt lat="43.49377" lon="1.53641">
        <ele>152.10059</ele>
        <time>2020-09-27T11:13:20+02:00</time>
      </trkpt>
      <trkpt lat="43.49375" lon="1.53642">
        <ele>152.10059</ele>
        <time>2020-09-27T11:13:21+02:00</time>
      </trkpt>
      <trkpt lat="43.4937" lon="1.53645">
        <ele>152.2002</ele>
        <time>2020-09-27T11:13:26+02:00</time>
      </trkpt>
      <trkpt lat="43.49369" lon="1.53646">
        <ele>152.2002</ele>
        <time>2020-09-27T11:13:27+02:00</time>
      </trkpt>
      <trkpt lat="43.49363" lon="1.53649">
        <ele>152.2002</ele>
        <time>2020-09-27T11:13:32+02:00</time>
      </trkpt>
      <trkpt lat="43.49361" lon="1.5365">
        <ele>152.2002</ele>
        <time>2020-09-27T11:13:33+02:00</time>
      </trkpt>
      <trkpt lat="43.49355" lon="1.53654">
        <ele>152.2002</ele>
        <time>2020-09-27T11:13:39+02:00</time>
      </trkpt>
      <trkpt lat="43.49354" lon="1.53655">
        <ele>152.2002</ele>
        <time>2020-09-27T11:13:40+02:00</time>
      </trkpt>
      <trkpt lat="43.49348" lon="1.53658">
        <ele>152.2002</ele>
        <time>2020-09-27T11:13:45+02:00</time>
      </trkpt>
      <trkpt lat="43.49347" lon="1.53659">
        <ele>152.2002</ele>
        <time>2020-09-27T11:13:46+02:00</time>
      </trkpt>
      <trkpt lat="43.49342" lon="1.53662">
        <ele>152.2998</ele>
        <time>2020-09-27T11:13:50+02:00</time>
      </trkpt>
      <trkpt lat="43.49341" lon="1.53662">
        <ele>152.2998</ele>
        <time>2020-09-27T11:13:51+02:00</time>
      </trkpt>
      <trkpt lat="43.49337" lon="1.53664">
        <ele>152.2998</ele>
        <time>2020-09-27T11:13:56+02:00</time>
      </trkpt>
      <trkpt lat="43.49336" lon="1.53664">
        <ele>152.2998</ele>
        <time>2020-09-27T11:13:57+02:00</time>
      </trkpt>
      <trkpt lat="43.4933" lon="1.53667">
        <ele>152.2998</ele>
        <time>2020-09-27T11:14:02+02:00</time>
      </trkpt>
      <trkpt lat="43.49328" lon="1.53667">
        <ele>152.2998</ele>
        <time>2020-09-27T11:14:03+02:00</time>
      </trkpt>
      <trkpt lat="43.49322" lon="1.53668">
        <ele>152.2998</ele>
        <time>2020-09-27T11:14:08+02:00</time>
      </trkpt>
      <trkpt lat="43.49321" lon="1.53669">
        <ele>152.2998</ele>
        <time>2020-09-27T11:14:09+02:00</time>
      </trkpt>
      <trkpt lat="43.49315" lon="1.53669">
        <ele>152.2998</ele>
        <time>2020-09-27T11:14:13+02:00</time>
      </trkpt>
      <trkpt lat="43.49313" lon="1.53669">
        <ele>152.2998</ele>
        <time>2020-09-27T11:14:14+02:00</time>
      </trkpt>
      <trkpt lat="43.49307" lon="1.53668">
        <ele>152.2998</ele>
        <time>2020-09-27T11:14:19+02:00</time>
      </trkpt>
      <trkpt lat="43.49306" lon="1.53668">
        <ele>152.2998</ele>
        <time>2020-09-27T11:14:20+02:00</time>
      </trkpt>
      <trkpt lat="43.493" lon="1.53667">
        <ele>152.2998</ele>
        <time>2020-09-27T11:14:24+02:00</time>
      </trkpt>
      <trkpt lat="43.49298" lon="1.53667">
        <ele>152.2998</ele>
        <time>2020-09-27T11:14:25+02:00</time>
      </trkpt>
      <trkpt lat="43.49292" lon="1.53667">
        <ele>152.2998</ele>
        <time>2020-09-27T11:14:30+02:00</time>
      </trkpt>
      <trkpt lat="43.49291" lon="1.53667">
        <ele>152.2998</ele>
        <time>2020-09-27T11:14:31+02:00</time>
      </trkpt>
      <trkpt lat="43.49285" lon="1.53668">
        <ele>152.2998</ele>
        <time>2020-09-27T11:14:35+02:00</time>
      </trkpt>
      <trkpt lat="43.49283" lon="1.53668">
        <ele>152.2998</ele>
        <time>2020-09-27T11:14:36+02:00</time>
      </trkpt>
      <trkpt lat="43.49277" lon="1.5367">
        <ele>152.2998</ele>
        <time>2020-09-27T11:14:41+02:00</time>
      </trkpt>
      <trkpt lat="43.49276" lon="1.5367">
        <ele>152.2998</ele>
        <time>2020-09-27T11:14:42+02:00</time>
      </trkpt>
      <trkpt lat="43.49269" lon="1.53671">
        <ele>152.2998</ele>
        <time>2020-09-27T11:14:47+02:00</time>
      </trkpt>
      <trkpt lat="43.49268" lon="1.53671">
        <ele>152.2998</ele>
        <time>2020-09-27T11:14:48+02:00</time>
      </trkpt>
      <trkpt lat="43.49262" lon="1.53671">
        <ele>152.40039</ele>
        <time>2020-09-27T11:14:52+02:00</time>
      </trkpt>
      <trkpt lat="43.49261" lon="1.53671">
        <ele>152.40039</ele>
        <time>2020-09-27T11:14:53+02:00</time>
      </trkpt>
      <trkpt lat="43.49255" lon="1.53671">
        <ele>152.40039</ele>
        <time>2020-09-27T11:14:58+02:00</time>
      </trkpt>
      <trkpt lat="43.49253" lon="1.53671">
        <ele>152.5</ele>
        <time>2020-09-27T11:14:59+02:00</time>
      </trkpt>
      <trkpt lat="43.49247" lon="1.5367">
        <ele>152.5</ele>
        <time>2020-09-27T11:15:03+02:00</time>
      </trkpt>
      <trkpt lat="43.49245" lon="1.5367">
        <ele>152.5</ele>
        <time>2020-09-27T11:15:05+02:00</time>
      </trkpt>
      <trkpt lat="43.49239" lon="1.53669">
        <ele>152.60059</ele>
        <time>2020-09-27T11:15:10+02:00</time>
      </trkpt>
      <trkpt lat="43.49237" lon="1.53669">
        <ele>152.60059</ele>
        <time>2020-09-27T11:15:11+02:00</time>
      </trkpt>
      <trkpt lat="43.49231" lon="1.53667">
        <ele>152.7002</ele>
        <time>2020-09-27T11:15:15+02:00</time>
      </trkpt>
      <trkpt lat="43.49229" lon="1.53667">
        <ele>152.7002</ele>
        <time>2020-09-27T11:15:16+02:00</time>
      </trkpt>
      <trkpt lat="43.49222" lon="1.53666">
        <ele>152.7998</ele>
        <time>2020-09-27T11:15:21+02:00</time>
      </trkpt>
      <trkpt lat="43.4922" lon="1.53666">
        <ele>152.7998</ele>
        <time>2020-09-27T11:15:22+02:00</time>
      </trkpt>
      <trkpt lat="43.49213" lon="1.53665">
        <ele>152.90039</ele>
        <time>2020-09-27T11:15:26+02:00</time>
      </trkpt>
      <trkpt lat="43.49211" lon="1.53664">
        <ele>152.90039</ele>
        <time>2020-09-27T11:15:27+02:00</time>
      </trkpt>
      <trkpt lat="43.49206" lon="1.53661">
        <ele>153.10059</ele>
        <time>2020-09-27T11:15:32+02:00</time>
      </trkpt>
      <trkpt lat="43.49205" lon="1.5366">
        <ele>153.10059</ele>
        <time>2020-09-27T11:15:33+02:00</time>
      </trkpt>
      <trkpt lat="43.492" lon="1.53656">
        <ele>153.10059</ele>
        <time>2020-09-27T11:15:39+02:00</time>
      </trkpt>
      <trkpt lat="43.49198" lon="1.53656">
        <ele>153.10059</ele>
        <time>2020-09-27T11:15:40+02:00</time>
      </trkpt>
      <trkpt lat="43.4919" lon="1.53655">
        <ele>153.2998</ele>
        <time>2020-09-27T11:15:45+02:00</time>
      </trkpt>
      <trkpt lat="43.49188" lon="1.53654">
        <ele>153.2998</ele>
        <time>2020-09-27T11:15:46+02:00</time>
      </trkpt>
      <trkpt lat="43.49185" lon="1.53653">
        <ele>153.40039</ele>
        <time>2020-09-27T11:15:51+02:00</time>
      </trkpt>
      <trkpt lat="43.49184" lon="1.53653">
        <ele>153.40039</ele>
        <time>2020-09-27T11:15:54+02:00</time>
      </trkpt>
      <trkpt lat="43.49177" lon="1.53653">
        <ele>153.40039</ele>
        <time>2020-09-27T11:15:59+02:00</time>
      </trkpt>
      <trkpt lat="43.49175" lon="1.53654">
        <ele>153.40039</ele>
        <time>2020-09-27T11:16:00+02:00</time>
      </trkpt>
      <trkpt lat="43.49166" lon="1.53654">
        <ele>153.40039</ele>
        <time>2020-09-27T11:16:05+02:00</time>
      </trkpt>
      <trkpt lat="43.49165" lon="1.53655">
        <ele>153.5</ele>
        <time>2020-09-27T11:16:06+02:00</time>
      </trkpt>
      <trkpt lat="43.49158" lon="1.53655">
        <ele>153.60059</ele>
        <time>2020-09-27T11:16:10+02:00</time>
      </trkpt>
      <trkpt lat="43.49157" lon="1.53655">
        <ele>153.60059</ele>
        <time>2020-09-27T11:16:11+02:00</time>
      </trkpt>
      <trkpt lat="43.49151" lon="1.53654">
        <ele>153.60059</ele>
        <time>2020-09-27T11:16:16+02:00</time>
      </trkpt>
      <trkpt lat="43.4915" lon="1.53654">
        <ele>153.60059</ele>
        <time>2020-09-27T11:16:17+02:00</time>
      </trkpt>
      <trkpt lat="43.49144" lon="1.53654">
        <ele>153.7998</ele>
        <time>2020-09-27T11:16:21+02:00</time>
      </trkpt>
      <trkpt lat="43.49143" lon="1.53653">
        <ele>153.7998</ele>
        <time>2020-09-27T11:16:22+02:00</time>
      </trkpt>
      <trkpt lat="43.49137" lon="1.53652">
        <ele>153.90039</ele>
        <time>2020-09-27T11:16:27+02:00</time>
      </trkpt>
      <trkpt lat="43.49136" lon="1.53652">
        <ele>153.90039</ele>
        <time>2020-09-27T11:16:28+02:00</time>
      </trkpt>
      <trkpt lat="43.4913" lon="1.5365">
        <ele>154</ele>
        <time>2020-09-27T11:16:32+02:00</time>
      </trkpt>
      <trkpt lat="43.49129" lon="1.5365">
        <ele>154.10059</ele>
        <time>2020-09-27T11:16:33+02:00</time>
      </trkpt>
      <trkpt lat="43.49123" lon="1.53648">
        <ele>154.10059</ele>
        <time>2020-09-27T11:16:38+02:00</time>
      </trkpt>
      <trkpt lat="43.49122" lon="1.53648">
        <ele>154.2002</ele>
        <time>2020-09-27T11:16:39+02:00</time>
      </trkpt>
      <trkpt lat="43.49117" lon="1.53647">
        <ele>154.2002</ele>
        <time>2020-09-27T11:16:43+02:00</time>
      </trkpt>
      <trkpt lat="43.49115" lon="1.53646">
        <ele>154.2002</ele>
        <time>2020-09-27T11:16:44+02:00</time>
      </trkpt>
      <trkpt lat="43.4911" lon="1.53645">
        <ele>154.2002</ele>
        <time>2020-09-27T11:16:49+02:00</time>
      </trkpt>
      <trkpt lat="43.49109" lon="1.53645">
        <ele>154.2002</ele>
        <time>2020-09-27T11:16:50+02:00</time>
      </trkpt>
      <trkpt lat="43.49103" lon="1.53645">
        <ele>154.2002</ele>
        <time>2020-09-27T11:16:55+02:00</time>
      </trkpt>
      <trkpt lat="43.49102" lon="1.53645">
        <ele>154.2002</ele>
        <time>2020-09-27T11:16:56+02:00</time>
      </trkpt>
      <trkpt lat="43.49096" lon="1.53645">
        <ele>154.2002</ele>
        <time>2020-09-27T11:17:01+02:00</time>
      </trkpt>
      <trkpt lat="43.49094" lon="1.53646">
        <ele>154.2002</ele>
        <time>2020-09-27T11:17:02+02:00</time>
      </trkpt>
      <trkpt lat="43.49089" lon="1.53646">
        <ele>154.2998</ele>
        <time>2020-09-27T11:17:06+02:00</time>
      </trkpt>
      <trkpt lat="43.49087" lon="1.53645">
        <ele>154.2998</ele>
        <time>2020-09-27T11:17:07+02:00</time>
      </trkpt>
      <trkpt lat="43.4908" lon="1.53644">
        <ele>154.2998</ele>
        <time>2020-09-27T11:17:12+02:00</time>
      </trkpt>
      <trkpt lat="43.49079" lon="1.53643">
        <ele>154.40039</ele>
        <time>2020-09-27T11:17:13+02:00</time>
      </trkpt>
      <trkpt lat="43.49073" lon="1.53641">
        <ele>154.40039</ele>
        <time>2020-09-27T11:17:17+02:00</time>
      </trkpt>
      <trkpt lat="43.49072" lon="1.5364">
        <ele>154.40039</ele>
        <time>2020-09-27T11:17:18+02:00</time>
      </trkpt>
      <trkpt lat="43.49067" lon="1.53638">
        <ele>154.40039</ele>
        <time>2020-09-27T11:17:23+02:00</time>
      </trkpt>
      <trkpt lat="43.49066" lon="1.53637">
        <ele>154.40039</ele>
        <time>2020-09-27T11:17:24+02:00</time>
      </trkpt>
      <trkpt lat="43.49062" lon="1.53636">
        <ele>154.2998</ele>
        <time>2020-09-27T11:17:28+02:00</time>
      </trkpt>
      <trkpt lat="43.4906" lon="1.53635">
        <ele>154.40039</ele>
        <time>2020-09-27T11:17:29+02:00</time>
      </trkpt>
      <trkpt lat="43.49055" lon="1.53634">
        <ele>154.40039</ele>
        <time>2020-09-27T11:17:34+02:00</time>
      </trkpt>
      <trkpt lat="43.49053" lon="1.53633">
        <ele>154.40039</ele>
        <time>2020-09-27T11:17:35+02:00</time>
      </trkpt>
      <trkpt lat="43.49046" lon="1.53631">
        <ele>154.40039</ele>
        <time>2020-09-27T11:17:40+02:00</time>
      </trkpt>
      <trkpt lat="43.49044" lon="1.53631">
        <ele>154.40039</ele>
        <time>2020-09-27T11:17:41+02:00</time>
      </trkpt>
      <trkpt lat="43.49038" lon="1.5363">
        <ele>154.2998</ele>
        <time>2020-09-27T11:17:46+02:00</time>
      </trkpt>
      <trkpt lat="43.49036" lon="1.5363">
        <ele>154.2998</ele>
        <time>2020-09-27T11:17:47+02:00</time>
      </trkpt>
      <trkpt lat="43.4903" lon="1.53629">
        <ele>154.2998</ele>
        <time>2020-09-27T11:17:51+02:00</time>
      </trkpt>
      <trkpt lat="43.49028" lon="1.53629">
        <ele>154.2002</ele>
        <time>2020-09-27T11:17:52+02:00</time>
      </trkpt>
      <trkpt lat="43.49022" lon="1.53628">
        <ele>154</ele>
        <time>2020-09-27T11:17:57+02:00</time>
      </trkpt>
      <trkpt lat="43.49021" lon="1.53628">
        <ele>154</ele>
        <time>2020-09-27T11:17:58+02:00</time>
      </trkpt>
      <trkpt lat="43.49014" lon="1.53628">
        <ele>153.90039</ele>
        <time>2020-09-27T11:18:03+02:00</time>
      </trkpt>
      <trkpt lat="43.49013" lon="1.53628">
        <ele>153.90039</ele>
        <time>2020-09-27T11:18:04+02:00</time>
      </trkpt>
      <trkpt lat="43.49007" lon="1.5363">
        <ele>153.90039</ele>
        <time>2020-09-27T11:18:08+02:00</time>
      </trkpt>
      <trkpt lat="43.49006" lon="1.5363">
        <ele>153.90039</ele>
        <time>2020-09-27T11:18:10+02:00</time>
      </trkpt>
      <trkpt lat="43.49001" lon="1.53633">
        <ele>153.7998</ele>
        <time>2020-09-27T11:18:14+02:00</time>
      </trkpt>
      <trkpt lat="43.49" lon="1.53633">
        <ele>153.7998</ele>
        <time>2020-09-27T11:18:15+02:00</time>
      </trkpt>
      <trkpt lat="43.48995" lon="1.53636">
        <ele>153.7998</ele>
        <time>2020-09-27T11:18:20+02:00</time>
      </trkpt>
      <trkpt lat="43.48993" lon="1.53637">
        <ele>153.7998</ele>
        <time>2020-09-27T11:18:21+02:00</time>
      </trkpt>
      <trkpt lat="43.48989" lon="1.53641">
        <ele>153.7998</ele>
        <time>2020-09-27T11:18:25+02:00</time>
      </trkpt>
      <trkpt lat="43.48987" lon="1.53642">
        <ele>153.7998</ele>
        <time>2020-09-27T11:18:26+02:00</time>
      </trkpt>
      <trkpt lat="43.48983" lon="1.53647">
        <ele>153.7002</ele>
        <time>2020-09-27T11:18:31+02:00</time>
      </trkpt>
      <trkpt lat="43.48982" lon="1.53648">
        <ele>153.7002</ele>
        <time>2020-09-27T11:18:32+02:00</time>
      </trkpt>
      <trkpt lat="43.48977" lon="1.53653">
        <ele>153.60059</ele>
        <time>2020-09-27T11:18:37+02:00</time>
      </trkpt>
      <trkpt lat="43.48976" lon="1.53655">
        <ele>153.60059</ele>
        <time>2020-09-27T11:18:38+02:00</time>
      </trkpt>
      <trkpt lat="43.48973" lon="1.53663">
        <ele>153.60059</ele>
        <time>2020-09-27T11:18:43+02:00</time>
      </trkpt>
      <trkpt lat="43.48972" lon="1.53665">
        <ele>153.60059</ele>
        <time>2020-09-27T11:18:44+02:00</time>
      </trkpt>
      <trkpt lat="43.48969" lon="1.53672">
        <ele>153.5</ele>
        <time>2020-09-27T11:18:50+02:00</time>
      </trkpt>
      <trkpt lat="43.48969" lon="1.53674">
        <ele>153.5</ele>
        <time>2020-09-27T11:18:51+02:00</time>
      </trkpt>
      <trkpt lat="43.48967" lon="1.53683">
        <ele>153.5</ele>
        <time>2020-09-27T11:18:56+02:00</time>
      </trkpt>
      <trkpt lat="43.48967" lon="1.53684">
        <ele>153.5</ele>
        <time>2020-09-27T11:18:57+02:00</time>
      </trkpt>
      <trkpt lat="43.48965" lon="1.53692">
        <ele>153.5</ele>
        <time>2020-09-27T11:19:02+02:00</time>
      </trkpt>
      <trkpt lat="43.48965" lon="1.53694">
        <ele>153.5</ele>
        <time>2020-09-27T11:19:03+02:00</time>
      </trkpt>
      <trkpt lat="43.48964" lon="1.53702">
        <ele>153.40039</ele>
        <time>2020-09-27T11:19:08+02:00</time>
      </trkpt>
      <trkpt lat="43.48964" lon="1.53705">
        <ele>153.40039</ele>
        <time>2020-09-27T11:19:09+02:00</time>
      </trkpt>
      <trkpt lat="43.48963" lon="1.53713">
        <ele>153.40039</ele>
        <time>2020-09-27T11:19:13+02:00</time>
      </trkpt>
      <trkpt lat="43.48963" lon="1.53716">
        <ele>153.40039</ele>
        <time>2020-09-27T11:19:14+02:00</time>
      </trkpt>
      <trkpt lat="43.48964" lon="1.53725">
        <ele>153.2998</ele>
        <time>2020-09-27T11:19:19+02:00</time>
      </trkpt>
      <trkpt lat="43.48964" lon="1.53727">
        <ele>153.2998</ele>
        <time>2020-09-27T11:19:20+02:00</time>
      </trkpt>
      <trkpt lat="43.48965" lon="1.53735">
        <ele>153.2998</ele>
        <time>2020-09-27T11:19:25+02:00</time>
      </trkpt>
      <trkpt lat="43.48965" lon="1.53738">
        <ele>153.2998</ele>
        <time>2020-09-27T11:19:27+02:00</time>
      </trkpt>
      <trkpt lat="43.48965" lon="1.53746">
        <ele>153.2998</ele>
        <time>2020-09-27T11:19:32+02:00</time>
      </trkpt>
      <trkpt lat="43.48965" lon="1.53747">
        <ele>153.2998</ele>
        <time>2020-09-27T11:19:33+02:00</time>
      </trkpt>
      <trkpt lat="43.48965" lon="1.53755">
        <ele>153.2998</ele>
        <time>2020-09-27T11:19:37+02:00</time>
      </trkpt>
      <trkpt lat="43.48965" lon="1.53756">
        <ele>153.2998</ele>
        <time>2020-09-27T11:19:38+02:00</time>
      </trkpt>
      <trkpt lat="43.48965" lon="1.53764">
        <ele>153.2998</ele>
        <time>2020-09-27T11:19:43+02:00</time>
      </trkpt>
      <trkpt lat="43.48965" lon="1.53766">
        <ele>153.2998</ele>
        <time>2020-09-27T11:19:45+02:00</time>
      </trkpt>
      <trkpt lat="43.48966" lon="1.53774">
        <ele>153.40039</ele>
        <time>2020-09-27T11:19:50+02:00</time>
      </trkpt>
      <trkpt lat="43.48966" lon="1.53777">
        <ele>153.40039</ele>
        <time>2020-09-27T11:19:51+02:00</time>
      </trkpt>
      <trkpt lat="43.48968" lon="1.53786">
        <ele>153.2998</ele>
        <time>2020-09-27T11:19:56+02:00</time>
      </trkpt>
      <trkpt lat="43.48968" lon="1.53788">
        <ele>153.2998</ele>
        <time>2020-09-27T11:19:57+02:00</time>
      </trkpt>
      <trkpt lat="43.4897" lon="1.53796">
        <ele>153.40039</ele>
        <time>2020-09-27T11:20:01+02:00</time>
      </trkpt>
      <trkpt lat="43.4897" lon="1.53798">
        <ele>153.40039</ele>
        <time>2020-09-27T11:20:02+02:00</time>
      </trkpt>
      <trkpt lat="43.48971" lon="1.53805">
        <ele>153.40039</ele>
        <time>2020-09-27T11:20:07+02:00</time>
      </trkpt>
      <trkpt lat="43.48972" lon="1.53807">
        <ele>153.40039</ele>
        <time>2020-09-27T11:20:08+02:00</time>
      </trkpt>
      <trkpt lat="43.48973" lon="1.53814">
        <ele>153.40039</ele>
        <time>2020-09-27T11:20:12+02:00</time>
      </trkpt>
      <trkpt lat="43.48973" lon="1.53816">
        <ele>153.40039</ele>
        <time>2020-09-27T11:20:14+02:00</time>
      </trkpt>
      <trkpt lat="43.48974" lon="1.53824">
        <ele>153.40039</ele>
        <time>2020-09-27T11:20:18+02:00</time>
      </trkpt>
      <trkpt lat="43.48975" lon="1.53826">
        <ele>153.5</ele>
        <time>2020-09-27T11:20:19+02:00</time>
      </trkpt>
      <trkpt lat="43.48976" lon="1.53835">
        <ele>153.5</ele>
        <time>2020-09-27T11:20:23+02:00</time>
      </trkpt>
      <trkpt lat="43.48976" lon="1.53837">
        <ele>153.5</ele>
        <time>2020-09-27T11:20:25+02:00</time>
      </trkpt>
      <trkpt lat="43.48976" lon="1.53845">
        <ele>153.5</ele>
        <time>2020-09-27T11:20:29+02:00</time>
      </trkpt>
      <trkpt lat="43.48976" lon="1.53847">
        <ele>153.5</ele>
        <time>2020-09-27T11:20:30+02:00</time>
      </trkpt>
      <trkpt lat="43.48977" lon="1.53856">
        <ele>153.5</ele>
        <time>2020-09-27T11:20:34+02:00</time>
      </trkpt>
      <trkpt lat="43.48977" lon="1.53858">
        <ele>153.5</ele>
        <time>2020-09-27T11:20:36+02:00</time>
      </trkpt>
      <trkpt lat="43.48977" lon="1.53866">
        <ele>153.5</ele>
        <time>2020-09-27T11:20:40+02:00</time>
      </trkpt>
      <trkpt lat="43.48978" lon="1.53868">
        <ele>153.5</ele>
        <time>2020-09-27T11:20:41+02:00</time>
      </trkpt>
      <trkpt lat="43.48979" lon="1.53877">
        <ele>153.5</ele>
        <time>2020-09-27T11:20:45+02:00</time>
      </trkpt>
      <trkpt lat="43.48979" lon="1.53879">
        <ele>153.5</ele>
        <time>2020-09-27T11:20:46+02:00</time>
      </trkpt>
      <trkpt lat="43.4898" lon="1.53887">
        <ele>153.5</ele>
        <time>2020-09-27T11:20:51+02:00</time>
      </trkpt>
      <trkpt lat="43.4898" lon="1.53889">
        <ele>153.5</ele>
        <time>2020-09-27T11:20:52+02:00</time>
      </trkpt>
      <trkpt lat="43.48982" lon="1.53896">
        <ele>153.5</ele>
        <time>2020-09-27T11:20:56+02:00</time>
      </trkpt>
      <trkpt lat="43.48982" lon="1.53898">
        <ele>153.5</ele>
        <time>2020-09-27T11:20:57+02:00</time>
      </trkpt>
      <trkpt lat="43.48983" lon="1.53906">
        <ele>153.5</ele>
        <time>2020-09-27T11:21:02+02:00</time>
      </trkpt>
      <trkpt lat="43.48983" lon="1.53908">
        <ele>153.5</ele>
        <time>2020-09-27T11:21:03+02:00</time>
      </trkpt>
      <trkpt lat="43.48985" lon="1.53916">
        <ele>153.5</ele>
        <time>2020-09-27T11:21:07+02:00</time>
      </trkpt>
      <trkpt lat="43.48986" lon="1.53919">
        <ele>153.5</ele>
        <time>2020-09-27T11:21:08+02:00</time>
      </trkpt>
      <trkpt lat="43.48988" lon="1.53927">
        <ele>153.5</ele>
        <time>2020-09-27T11:21:13+02:00</time>
      </trkpt>
      <trkpt lat="43.48988" lon="1.53929">
        <ele>153.5</ele>
        <time>2020-09-27T11:21:14+02:00</time>
      </trkpt>
      <trkpt lat="43.4899" lon="1.53938">
        <ele>153.5</ele>
        <time>2020-09-27T11:21:18+02:00</time>
      </trkpt>
      <trkpt lat="43.48991" lon="1.5394">
        <ele>153.5</ele>
        <time>2020-09-27T11:21:19+02:00</time>
      </trkpt>
      <trkpt lat="43.48992" lon="1.53948">
        <ele>153.5</ele>
        <time>2020-09-27T11:21:24+02:00</time>
      </trkpt>
      <trkpt lat="43.48992" lon="1.5395">
        <ele>153.5</ele>
        <time>2020-09-27T11:21:25+02:00</time>
      </trkpt>
      <trkpt lat="43.48994" lon="1.53958">
        <ele>153.5</ele>
        <time>2020-09-27T11:21:29+02:00</time>
      </trkpt>
      <trkpt lat="43.48994" lon="1.5396">
        <ele>153.5</ele>
        <time>2020-09-27T11:21:31+02:00</time>
      </trkpt>
      <trkpt lat="43.48996" lon="1.53969">
        <ele>153.60059</ele>
        <time>2020-09-27T11:21:35+02:00</time>
      </trkpt>
      <trkpt lat="43.48996" lon="1.5397">
        <ele>153.60059</ele>
        <time>2020-09-27T11:21:36+02:00</time>
      </trkpt>
      <trkpt lat="43.48997" lon="1.53978">
        <ele>153.60059</ele>
        <time>2020-09-27T11:21:40+02:00</time>
      </trkpt>
      <trkpt lat="43.48997" lon="1.5398">
        <ele>153.60059</ele>
        <time>2020-09-27T11:21:42+02:00</time>
      </trkpt>
      <trkpt lat="43.48998" lon="1.53987">
        <ele>153.60059</ele>
        <time>2020-09-27T11:21:46+02:00</time>
      </trkpt>
      <trkpt lat="43.48998" lon="1.53989">
        <ele>153.7002</ele>
        <time>2020-09-27T11:21:47+02:00</time>
      </trkpt>
      <trkpt lat="43.48997" lon="1.53996">
        <ele>153.7002</ele>
        <time>2020-09-27T11:21:52+02:00</time>
      </trkpt>
      <trkpt lat="43.48997" lon="1.53998">
        <ele>153.7002</ele>
        <time>2020-09-27T11:21:53+02:00</time>
      </trkpt>
      <trkpt lat="43.48996" lon="1.54005">
        <ele>153.7002</ele>
        <time>2020-09-27T11:21:57+02:00</time>
      </trkpt>
      <trkpt lat="43.48995" lon="1.54006">
        <ele>153.7002</ele>
        <time>2020-09-27T11:21:58+02:00</time>
      </trkpt>
      <trkpt lat="43.48993" lon="1.54013">
        <ele>153.7002</ele>
        <time>2020-09-27T11:22:03+02:00</time>
      </trkpt>
      <trkpt lat="43.48993" lon="1.54015">
        <ele>153.7002</ele>
        <time>2020-09-27T11:22:04+02:00</time>
      </trkpt>
      <trkpt lat="43.48991" lon="1.54022">
        <ele>153.7002</ele>
        <time>2020-09-27T11:22:08+02:00</time>
      </trkpt>
      <trkpt lat="43.48991" lon="1.54023">
        <ele>153.7998</ele>
        <time>2020-09-27T11:22:10+02:00</time>
      </trkpt>
      <trkpt lat="43.48989" lon="1.5403">
        <ele>153.7998</ele>
        <time>2020-09-27T11:22:14+02:00</time>
      </trkpt>
      <trkpt lat="43.48988" lon="1.54032">
        <ele>153.7998</ele>
        <time>2020-09-27T11:22:16+02:00</time>
      </trkpt>
      <trkpt lat="43.48987" lon="1.54039">
        <ele>153.7998</ele>
        <time>2020-09-27T11:22:20+02:00</time>
      </trkpt>
      <trkpt lat="43.48987" lon="1.5404">
        <ele>153.7998</ele>
        <time>2020-09-27T11:22:22+02:00</time>
      </trkpt>
      <trkpt lat="43.48986" lon="1.54047">
        <ele>153.90039</ele>
        <time>2020-09-27T11:22:26+02:00</time>
      </trkpt>
      <trkpt lat="43.48986" lon="1.54048">
        <ele>153.90039</ele>
        <time>2020-09-27T11:22:27+02:00</time>
      </trkpt>
      <trkpt lat="43.48985" lon="1.54055">
        <ele>153.7998</ele>
        <time>2020-09-27T11:22:32+02:00</time>
      </trkpt>
      <trkpt lat="43.48985" lon="1.54056">
        <ele>153.7998</ele>
        <time>2020-09-27T11:22:33+02:00</time>
      </trkpt>
      <trkpt lat="43.48984" lon="1.54062">
        <ele>153.90039</ele>
        <time>2020-09-27T11:22:37+02:00</time>
      </trkpt>
      <trkpt lat="43.48984" lon="1.54064">
        <ele>153.90039</ele>
        <time>2020-09-27T11:22:38+02:00</time>
      </trkpt>
      <trkpt lat="43.48984" lon="1.54071">
        <ele>154.10059</ele>
        <time>2020-09-27T11:22:44+02:00</time>
      </trkpt>
      <trkpt lat="43.48985" lon="1.54073">
        <ele>154.10059</ele>
        <time>2020-09-27T11:22:46+02:00</time>
      </trkpt>
      <trkpt lat="43.48986" lon="1.54081">
        <ele>154.2998</ele>
        <time>2020-09-27T11:22:52+02:00</time>
      </trkpt>
      <trkpt lat="43.48986" lon="1.54082">
        <ele>154.2998</ele>
        <time>2020-09-27T11:22:53+02:00</time>
      </trkpt>
      <trkpt lat="43.48988" lon="1.5408">
        <ele>154.2998</ele>
        <time>2020-09-27T11:22:58+02:00</time>
      </trkpt>
      <trkpt lat="43.48988" lon="1.54079">
        <ele>154.2998</ele>
        <time>2020-09-27T11:22:59+02:00</time>
      </trkpt>
      <trkpt lat="43.4899" lon="1.54075">
        <ele>154.2002</ele>
        <time>2020-09-27T11:23:03+02:00</time>
      </trkpt>
      <trkpt lat="43.48991" lon="1.54073">
        <ele>154.2002</ele>
        <time>2020-09-27T11:23:05+02:00</time>
      </trkpt>
      <trkpt lat="43.48992" lon="1.54068">
        <ele>154.2002</ele>
        <time>2020-09-27T11:23:10+02:00</time>
      </trkpt>
      <trkpt lat="43.48993" lon="1.54067">
        <ele>154.2002</ele>
        <time>2020-09-27T11:23:11+02:00</time>
      </trkpt>
      <trkpt lat="43.48993" lon="1.54061">
        <ele>154.10059</ele>
        <time>2020-09-27T11:23:15+02:00</time>
      </trkpt>
      <trkpt lat="43.48992" lon="1.5406">
        <ele>154.10059</ele>
        <time>2020-09-27T11:23:16+02:00</time>
      </trkpt>
      <trkpt lat="43.48991" lon="1.54054">
        <ele>154</ele>
        <time>2020-09-27T11:23:21+02:00</time>
      </trkpt>
      <trkpt lat="43.4899" lon="1.54053">
        <ele>154</ele>
        <time>2020-09-27T11:23:22+02:00</time>
      </trkpt>
      <trkpt lat="43.48988" lon="1.54047">
        <ele>153.90039</ele>
        <time>2020-09-27T11:23:26+02:00</time>
      </trkpt>
      <trkpt lat="43.48987" lon="1.54045">
        <ele>153.90039</ele>
        <time>2020-09-27T11:23:27+02:00</time>
      </trkpt>
      <trkpt lat="43.48984" lon="1.54036">
        <ele>153.7002</ele>
        <time>2020-09-27T11:23:33+02:00</time>
      </trkpt>
      <trkpt lat="43.48983" lon="1.54034">
        <ele>153.7002</ele>
        <time>2020-09-27T11:23:34+02:00</time>
      </trkpt>
      <trkpt lat="43.48981" lon="1.54027">
        <ele>153.7002</ele>
        <time>2020-09-27T11:23:38+02:00</time>
      </trkpt>
      <trkpt lat="43.4898" lon="1.54025">
        <ele>153.7002</ele>
        <time>2020-09-27T11:23:39+02:00</time>
      </trkpt>
      <trkpt lat="43.48979" lon="1.54017">
        <ele>153.60059</ele>
        <time>2020-09-27T11:23:45+02:00</time>
      </trkpt>
      <trkpt lat="43.48979" lon="1.54015">
        <ele>153.60059</ele>
        <time>2020-09-27T11:23:46+02:00</time>
      </trkpt>
      <trkpt lat="43.48978" lon="1.54008">
        <ele>153.5</ele>
        <time>2020-09-27T11:23:50+02:00</time>
      </trkpt>
      <trkpt lat="43.48978" lon="1.54007">
        <ele>153.5</ele>
        <time>2020-09-27T11:23:51+02:00</time>
      </trkpt>
      <trkpt lat="43.48979" lon="1.53999">
        <ele>153.5</ele>
        <time>2020-09-27T11:23:56+02:00</time>
      </trkpt>
      <trkpt lat="43.48979" lon="1.53997">
        <ele>153.60059</ele>
        <time>2020-09-27T11:23:57+02:00</time>
      </trkpt>
      <trkpt lat="43.48981" lon="1.5399">
        <ele>153.60059</ele>
        <time>2020-09-27T11:24:02+02:00</time>
      </trkpt>
      <trkpt lat="43.48981" lon="1.53988">
        <ele>153.60059</ele>
        <time>2020-09-27T11:24:03+02:00</time>
      </trkpt>
      <trkpt lat="43.48983" lon="1.53981">
        <ele>153.60059</ele>
        <time>2020-09-27T11:24:07+02:00</time>
      </trkpt>
      <trkpt lat="43.48984" lon="1.53979">
        <ele>153.60059</ele>
        <time>2020-09-27T11:24:09+02:00</time>
      </trkpt>
      <trkpt lat="43.48986" lon="1.53972">
        <ele>153.60059</ele>
        <time>2020-09-27T11:24:13+02:00</time>
      </trkpt>
      <trkpt lat="43.48987" lon="1.5397">
        <ele>153.60059</ele>
        <time>2020-09-27T11:24:14+02:00</time>
      </trkpt>
      <trkpt lat="43.48987" lon="1.5396">
        <ele>153.60059</ele>
        <time>2020-09-27T11:24:19+02:00</time>
      </trkpt>
      <trkpt lat="43.48987" lon="1.53958">
        <ele>153.60059</ele>
        <time>2020-09-27T11:24:20+02:00</time>
      </trkpt>
      <trkpt lat="43.48985" lon="1.53947">
        <ele>153.60059</ele>
        <time>2020-09-27T11:24:24+02:00</time>
      </trkpt>
      <trkpt lat="43.48984" lon="1.53944">
        <ele>153.60059</ele>
        <time>2020-09-27T11:24:26+02:00</time>
      </trkpt>
      <trkpt lat="43.48982" lon="1.53935">
        <ele>153.5</ele>
        <time>2020-09-27T11:24:30+02:00</time>
      </trkpt>
      <trkpt lat="43.48982" lon="1.53933">
        <ele>153.5</ele>
        <time>2020-09-27T11:24:31+02:00</time>
      </trkpt>
      <trkpt lat="43.4898" lon="1.53925">
        <ele>153.5</ele>
        <time>2020-09-27T11:24:35+02:00</time>
      </trkpt>
      <trkpt lat="43.48979" lon="1.53923">
        <ele>153.5</ele>
        <time>2020-09-27T11:24:36+02:00</time>
      </trkpt>
      <trkpt lat="43.48978" lon="1.53915">
        <ele>153.5</ele>
        <time>2020-09-27T11:24:41+02:00</time>
      </trkpt>
      <trkpt lat="43.48978" lon="1.53913">
        <ele>153.5</ele>
        <time>2020-09-27T11:24:42+02:00</time>
      </trkpt>
      <trkpt lat="43.48977" lon="1.53905">
        <ele>153.5</ele>
        <time>2020-09-27T11:24:47+02:00</time>
      </trkpt>
      <trkpt lat="43.48977" lon="1.53903">
        <ele>153.5</ele>
        <time>2020-09-27T11:24:48+02:00</time>
      </trkpt>
      <trkpt lat="43.48977" lon="1.53894">
        <ele>153.5</ele>
        <time>2020-09-27T11:24:54+02:00</time>
      </trkpt>
      <trkpt lat="43.48977" lon="1.53891">
        <ele>153.5</ele>
        <time>2020-09-27T11:24:55+02:00</time>
      </trkpt>
      <trkpt lat="43.48977" lon="1.53884">
        <ele>153.5</ele>
        <time>2020-09-27T11:24:59+02:00</time>
      </trkpt>
      <trkpt lat="43.48977" lon="1.53882">
        <ele>153.5</ele>
        <time>2020-09-27T11:25:01+02:00</time>
      </trkpt>
      <trkpt lat="43.48976" lon="1.53875">
        <ele>153.5</ele>
        <time>2020-09-27T11:25:05+02:00</time>
      </trkpt>
      <trkpt lat="43.48976" lon="1.53873">
        <ele>153.5</ele>
        <time>2020-09-27T11:25:06+02:00</time>
      </trkpt>
      <trkpt lat="43.48974" lon="1.53866">
        <ele>153.5</ele>
        <time>2020-09-27T11:25:10+02:00</time>
      </trkpt>
      <trkpt lat="43.48974" lon="1.53865">
        <ele>153.5</ele>
        <time>2020-09-27T11:25:11+02:00</time>
      </trkpt>
      <trkpt lat="43.48971" lon="1.53857">
        <ele>153.5</ele>
        <time>2020-09-27T11:25:17+02:00</time>
      </trkpt>
      <trkpt lat="43.4897" lon="1.53855">
        <ele>153.5</ele>
        <time>2020-09-27T11:25:18+02:00</time>
      </trkpt>
      <trkpt lat="43.48968" lon="1.53848">
        <ele>153.5</ele>
        <time>2020-09-27T11:25:22+02:00</time>
      </trkpt>
      <trkpt lat="43.48967" lon="1.53846">
        <ele>153.5</ele>
        <time>2020-09-27T11:25:23+02:00</time>
      </trkpt>
      <trkpt lat="43.48965" lon="1.53839">
        <ele>153.5</ele>
        <time>2020-09-27T11:25:28+02:00</time>
      </trkpt>
      <trkpt lat="43.48964" lon="1.53837">
        <ele>153.5</ele>
        <time>2020-09-27T11:25:29+02:00</time>
      </trkpt>
      <trkpt lat="43.48962" lon="1.5383">
        <ele>153.5</ele>
        <time>2020-09-27T11:25:33+02:00</time>
      </trkpt>
      <trkpt lat="43.48961" lon="1.53828">
        <ele>153.5</ele>
        <time>2020-09-27T11:25:34+02:00</time>
      </trkpt>
      <trkpt lat="43.48957" lon="1.5382">
        <ele>153.5</ele>
        <time>2020-09-27T11:25:39+02:00</time>
      </trkpt>
      <trkpt lat="43.48956" lon="1.53818">
        <ele>153.5</ele>
        <time>2020-09-27T11:25:40+02:00</time>
      </trkpt>
      <trkpt lat="43.48953" lon="1.5381">
        <ele>153.60059</ele>
        <time>2020-09-27T11:25:44+02:00</time>
      </trkpt>
      <trkpt lat="43.48952" lon="1.53808">
        <ele>153.60059</ele>
        <time>2020-09-27T11:25:45+02:00</time>
      </trkpt>
      <trkpt lat="43.48949" lon="1.538">
        <ele>153.60059</ele>
        <time>2020-09-27T11:25:50+02:00</time>
      </trkpt>
      <trkpt lat="43.48948" lon="1.53798">
        <ele>153.7002</ele>
        <time>2020-09-27T11:25:51+02:00</time>
      </trkpt>
      <trkpt lat="43.48945" lon="1.53791">
        <ele>153.7002</ele>
        <time>2020-09-27T11:25:56+02:00</time>
      </trkpt>
      <trkpt lat="43.48945" lon="1.53789">
        <ele>153.7002</ele>
        <time>2020-09-27T11:25:57+02:00</time>
      </trkpt>
      <trkpt lat="43.48943" lon="1.53782">
        <ele>153.7002</ele>
        <time>2020-09-27T11:26:02+02:00</time>
      </trkpt>
      <trkpt lat="43.48943" lon="1.5378">
        <ele>153.7002</ele>
        <time>2020-09-27T11:26:03+02:00</time>
      </trkpt>
      <trkpt lat="43.48941" lon="1.53773">
        <ele>153.7998</ele>
        <time>2020-09-27T11:26:07+02:00</time>
      </trkpt>
      <trkpt lat="43.48941" lon="1.53771">
        <ele>153.7998</ele>
        <time>2020-09-27T11:26:09+02:00</time>
      </trkpt>
      <trkpt lat="43.48941" lon="1.53763">
        <ele>153.7998</ele>
        <time>2020-09-27T11:26:13+02:00</time>
      </trkpt>
      <trkpt lat="43.48941" lon="1.53761">
        <ele>153.7998</ele>
        <time>2020-09-27T11:26:14+02:00</time>
      </trkpt>
      <trkpt lat="43.48941" lon="1.53753">
        <ele>153.7998</ele>
        <time>2020-09-27T11:26:19+02:00</time>
      </trkpt>
      <trkpt lat="43.48941" lon="1.53751">
        <ele>153.7998</ele>
        <time>2020-09-27T11:26:20+02:00</time>
      </trkpt>
      <trkpt lat="43.48942" lon="1.53743">
        <ele>153.7002</ele>
        <time>2020-09-27T11:26:25+02:00</time>
      </trkpt>
      <trkpt lat="43.48942" lon="1.5374">
        <ele>153.60059</ele>
        <time>2020-09-27T11:26:26+02:00</time>
      </trkpt>
      <trkpt lat="43.48945" lon="1.53731">
        <ele>153.60059</ele>
        <time>2020-09-27T11:26:31+02:00</time>
      </trkpt>
      <trkpt lat="43.48945" lon="1.53728">
        <ele>153.60059</ele>
        <time>2020-09-27T11:26:32+02:00</time>
      </trkpt>
      <trkpt lat="43.48947" lon="1.53719">
        <ele>153.5</ele>
        <time>2020-09-27T11:26:38+02:00</time>
      </trkpt>
      <trkpt lat="43.48948" lon="1.53717">
        <ele>153.5</ele>
        <time>2020-09-27T11:26:39+02:00</time>
      </trkpt>
      <trkpt lat="43.48951" lon="1.53707">
        <ele>153.40039</ele>
        <time>2020-09-27T11:26:44+02:00</time>
      </trkpt>
      <trkpt lat="43.48952" lon="1.53705">
        <ele>153.5</ele>
        <time>2020-09-27T11:26:46+02:00</time>
      </trkpt>
      <trkpt lat="43.48954" lon="1.53697">
        <ele>153.5</ele>
        <time>2020-09-27T11:26:50+02:00</time>
      </trkpt>
      <trkpt lat="43.48955" lon="1.53695">
        <ele>153.5</ele>
        <time>2020-09-27T11:26:51+02:00</time>
      </trkpt>
      <trkpt lat="43.48957" lon="1.53688">
        <ele>153.5</ele>
        <time>2020-09-27T11:26:55+02:00</time>
      </trkpt>
      <trkpt lat="43.48958" lon="1.53687">
        <ele>153.5</ele>
        <time>2020-09-27T11:26:56+02:00</time>
      </trkpt>
      <trkpt lat="43.48961" lon="1.5368">
        <ele>153.5</ele>
        <time>2020-09-27T11:27:01+02:00</time>
      </trkpt>
      <trkpt lat="43.48962" lon="1.53678">
        <ele>153.5</ele>
        <time>2020-09-27T11:27:03+02:00</time>
      </trkpt>
      <trkpt lat="43.48966" lon="1.53673">
        <ele>153.5</ele>
        <time>2020-09-27T11:27:07+02:00</time>
      </trkpt>
      <trkpt lat="43.48967" lon="1.53671">
        <ele>153.60059</ele>
        <time>2020-09-27T11:27:08+02:00</time>
      </trkpt>
      <trkpt lat="43.48972" lon="1.53666">
        <ele>153.60059</ele>
        <time>2020-09-27T11:27:12+02:00</time>
      </trkpt>
      <trkpt lat="43.48973" lon="1.53665">
        <ele>153.60059</ele>
        <time>2020-09-27T11:27:14+02:00</time>
      </trkpt>
      <trkpt lat="43.48978" lon="1.53661">
        <ele>153.60059</ele>
        <time>2020-09-27T11:27:18+02:00</time>
      </trkpt>
      <trkpt lat="43.48979" lon="1.5366">
        <ele>153.60059</ele>
        <time>2020-09-27T11:27:19+02:00</time>
      </trkpt>
      <trkpt lat="43.48983" lon="1.53655">
        <ele>153.7002</ele>
        <time>2020-09-27T11:27:24+02:00</time>
      </trkpt>
      <trkpt lat="43.48985" lon="1.53654">
        <ele>153.7002</ele>
        <time>2020-09-27T11:27:26+02:00</time>
      </trkpt>
      <trkpt lat="43.48989" lon="1.5365">
        <ele>153.7998</ele>
        <time>2020-09-27T11:27:30+02:00</time>
      </trkpt>
      <trkpt lat="43.4899" lon="1.53649">
        <ele>153.7998</ele>
        <time>2020-09-27T11:27:31+02:00</time>
      </trkpt>
      <trkpt lat="43.48994" lon="1.53645">
        <ele>153.7998</ele>
        <time>2020-09-27T11:27:35+02:00</time>
      </trkpt>
      <trkpt lat="43.48995" lon="1.53644">
        <ele>153.7998</ele>
        <time>2020-09-27T11:27:36+02:00</time>
      </trkpt>
      <trkpt lat="43.48999" lon="1.53639">
        <ele>153.90039</ele>
        <time>2020-09-27T11:27:41+02:00</time>
      </trkpt>
      <trkpt lat="43.49" lon="1.53638">
        <ele>153.90039</ele>
        <time>2020-09-27T11:27:42+02:00</time>
      </trkpt>
      <trkpt lat="43.49004" lon="1.53633">
        <ele>153.7998</ele>
        <time>2020-09-27T11:27:47+02:00</time>
      </trkpt>
      <trkpt lat="43.49005" lon="1.53633">
        <ele>153.90039</ele>
        <time>2020-09-27T11:27:48+02:00</time>
      </trkpt>
      <trkpt lat="43.4901" lon="1.5363">
        <ele>153.90039</ele>
        <time>2020-09-27T11:27:53+02:00</time>
      </trkpt>
      <trkpt lat="43.49011" lon="1.53629">
        <ele>154</ele>
        <time>2020-09-27T11:27:54+02:00</time>
      </trkpt>
      <trkpt lat="43.49017" lon="1.53628">
        <ele>154.10059</ele>
        <time>2020-09-27T11:27:58+02:00</time>
      </trkpt>
      <trkpt lat="43.49018" lon="1.53629">
        <ele>154.10059</ele>
        <time>2020-09-27T11:27:59+02:00</time>
      </trkpt>
      <trkpt lat="43.49024" lon="1.5363">
        <ele>154.2002</ele>
        <time>2020-09-27T11:28:04+02:00</time>
      </trkpt>
      <trkpt lat="43.49025" lon="1.5363">
        <ele>154.2002</ele>
        <time>2020-09-27T11:28:05+02:00</time>
      </trkpt>
      <trkpt lat="43.4903" lon="1.53632">
        <ele>154.2998</ele>
        <time>2020-09-27T11:28:09+02:00</time>
      </trkpt>
      <trkpt lat="43.49031" lon="1.53633">
        <ele>154.2998</ele>
        <time>2020-09-27T11:28:10+02:00</time>
      </trkpt>
      <trkpt lat="43.49035" lon="1.53636">
        <ele>154.2998</ele>
        <time>2020-09-27T11:28:15+02:00</time>
      </trkpt>
      <trkpt lat="43.49037" lon="1.53636">
        <ele>154.2998</ele>
        <time>2020-09-27T11:28:16+02:00</time>
      </trkpt>
      <trkpt lat="43.49042" lon="1.53639">
        <ele>154.2998</ele>
        <time>2020-09-27T11:28:20+02:00</time>
      </trkpt>
      <trkpt lat="43.49043" lon="1.53639">
        <ele>154.2998</ele>
        <time>2020-09-27T11:28:22+02:00</time>
      </trkpt>
      <trkpt lat="43.49048" lon="1.53641">
        <ele>154.2998</ele>
        <time>2020-09-27T11:28:26+02:00</time>
      </trkpt>
      <trkpt lat="43.4905" lon="1.53642">
        <ele>154.2998</ele>
        <time>2020-09-27T11:28:28+02:00</time>
      </trkpt>
      <trkpt lat="43.49055" lon="1.53644">
        <ele>154.40039</ele>
        <time>2020-09-27T11:28:32+02:00</time>
      </trkpt>
      <trkpt lat="43.49056" lon="1.53645">
        <ele>154.40039</ele>
        <time>2020-09-27T11:28:33+02:00</time>
      </trkpt>
      <trkpt lat="43.49062" lon="1.53647">
        <ele>154.2998</ele>
        <time>2020-09-27T11:28:38+02:00</time>
      </trkpt>
      <trkpt lat="43.49063" lon="1.53648">
        <ele>154.2998</ele>
        <time>2020-09-27T11:28:39+02:00</time>
      </trkpt>
      <trkpt lat="43.49068" lon="1.53651">
        <ele>154.40039</ele>
        <time>2020-09-27T11:28:43+02:00</time>
      </trkpt>
      <trkpt lat="43.49069" lon="1.53651">
        <ele>154.40039</ele>
        <time>2020-09-27T11:28:45+02:00</time>
      </trkpt>
      <trkpt lat="43.49075" lon="1.53655">
        <ele>154.2998</ele>
        <time>2020-09-27T11:28:50+02:00</time>
      </trkpt>
      <trkpt lat="43.49076" lon="1.53656">
        <ele>154.2998</ele>
        <time>2020-09-27T11:28:51+02:00</time>
      </trkpt>
      <trkpt lat="43.49081" lon="1.53661">
        <ele>154.2998</ele>
        <time>2020-09-27T11:28:56+02:00</time>
      </trkpt>
      <trkpt lat="43.49083" lon="1.53662">
        <ele>154.2998</ele>
        <time>2020-09-27T11:28:57+02:00</time>
      </trkpt>
      <trkpt lat="43.49088" lon="1.53668">
        <ele>154.10059</ele>
        <time>2020-09-27T11:29:02+02:00</time>
      </trkpt>
      <trkpt lat="43.49089" lon="1.53669">
        <ele>154.10059</ele>
        <time>2020-09-27T11:29:04+02:00</time>
      </trkpt>
      <trkpt lat="43.49095" lon="1.53673">
        <ele>153.90039</ele>
        <time>2020-09-27T11:29:09+02:00</time>
      </trkpt>
      <trkpt lat="43.49096" lon="1.53674">
        <ele>153.90039</ele>
        <time>2020-09-27T11:29:10+02:00</time>
      </trkpt>
      <trkpt lat="43.49102" lon="1.53677">
        <ele>153.90039</ele>
        <time>2020-09-27T11:29:14+02:00</time>
      </trkpt>
      <trkpt lat="43.49103" lon="1.53677">
        <ele>153.90039</ele>
        <time>2020-09-27T11:29:16+02:00</time>
      </trkpt>
      <trkpt lat="43.49109" lon="1.53679">
        <ele>153.7998</ele>
        <time>2020-09-27T11:29:20+02:00</time>
      </trkpt>
      <trkpt lat="43.4911" lon="1.5368">
        <ele>153.7998</ele>
        <time>2020-09-27T11:29:22+02:00</time>
      </trkpt>
      <trkpt lat="43.49116" lon="1.53681">
        <ele>153.5</ele>
        <time>2020-09-27T11:29:26+02:00</time>
      </trkpt>
      <trkpt lat="43.49118" lon="1.53681">
        <ele>153.5</ele>
        <time>2020-09-27T11:29:28+02:00</time>
      </trkpt>
      <trkpt lat="43.49124" lon="1.53682">
        <ele>153.5</ele>
        <time>2020-09-27T11:29:32+02:00</time>
      </trkpt>
      <trkpt lat="43.49125" lon="1.53682">
        <ele>153.5</ele>
        <time>2020-09-27T11:29:33+02:00</time>
      </trkpt>
      <trkpt lat="43.49131" lon="1.53681">
        <ele>153.40039</ele>
        <time>2020-09-27T11:29:37+02:00</time>
      </trkpt>
      <trkpt lat="43.49133" lon="1.53681">
        <ele>153.40039</ele>
        <time>2020-09-27T11:29:38+02:00</time>
      </trkpt>
      <trkpt lat="43.49139" lon="1.53679">
        <ele>153.60059</ele>
        <time>2020-09-27T11:29:43+02:00</time>
      </trkpt>
      <trkpt lat="43.49141" lon="1.53679">
        <ele>153.60059</ele>
        <time>2020-09-27T11:29:44+02:00</time>
      </trkpt>
      <trkpt lat="43.49147" lon="1.53676">
        <ele>153.5</ele>
        <time>2020-09-27T11:29:48+02:00</time>
      </trkpt>
      <trkpt lat="43.49148" lon="1.53676">
        <ele>153.40039</ele>
        <time>2020-09-27T11:29:50+02:00</time>
      </trkpt>
      <trkpt lat="43.49154" lon="1.53673">
        <ele>153.40039</ele>
        <time>2020-09-27T11:29:54+02:00</time>
      </trkpt>
      <trkpt lat="43.49156" lon="1.53672">
        <ele>153.40039</ele>
        <time>2020-09-27T11:29:55+02:00</time>
      </trkpt>
      <trkpt lat="43.49161" lon="1.5367">
        <ele>153.40039</ele>
        <time>2020-09-27T11:30:00+02:00</time>
      </trkpt>
      <trkpt lat="43.49162" lon="1.53669">
        <ele>153.40039</ele>
        <time>2020-09-27T11:30:01+02:00</time>
      </trkpt>
      <trkpt lat="43.49167" lon="1.53667">
        <ele>153.2998</ele>
        <time>2020-09-27T11:30:05+02:00</time>
      </trkpt>
      <trkpt lat="43.49169" lon="1.53667">
        <ele>153.2998</ele>
        <time>2020-09-27T11:30:06+02:00</time>
      </trkpt>
      <trkpt lat="43.49173" lon="1.53666">
        <ele>153.2998</ele>
        <time>2020-09-27T11:30:11+02:00</time>
      </trkpt>
      <trkpt lat="43.49175" lon="1.53666">
        <ele>153.2998</ele>
        <time>2020-09-27T11:30:12+02:00</time>
      </trkpt>
      <trkpt lat="43.4918" lon="1.53666">
        <ele>153.2002</ele>
        <time>2020-09-27T11:30:17+02:00</time>
      </trkpt>
      <trkpt lat="43.49181" lon="1.53666">
        <ele>153.2002</ele>
        <time>2020-09-27T11:30:18+02:00</time>
      </trkpt>
      <trkpt lat="43.49188" lon="1.53667">
        <ele>153.2002</ele>
        <time>2020-09-27T11:30:24+02:00</time>
      </trkpt>
      <trkpt lat="43.49189" lon="1.53667">
        <ele>153.2002</ele>
        <time>2020-09-27T11:30:25+02:00</time>
      </trkpt>
      <trkpt lat="43.49195" lon="1.53668">
        <ele>153.10059</ele>
        <time>2020-09-27T11:30:29+02:00</time>
      </trkpt>
      <trkpt lat="43.49197" lon="1.53669">
        <ele>153.10059</ele>
        <time>2020-09-27T11:30:30+02:00</time>
      </trkpt>
      <trkpt lat="43.49204" lon="1.53671">
        <ele>153</ele>
        <time>2020-09-27T11:30:35+02:00</time>
      </trkpt>
      <trkpt lat="43.49205" lon="1.53672">
        <ele>152.90039</ele>
        <time>2020-09-27T11:30:36+02:00</time>
      </trkpt>
      <trkpt lat="43.49211" lon="1.53674">
        <ele>152.7998</ele>
        <time>2020-09-27T11:30:40+02:00</time>
      </trkpt>
      <trkpt lat="43.49213" lon="1.53675">
        <ele>152.7998</ele>
        <time>2020-09-27T11:30:42+02:00</time>
      </trkpt>
      <trkpt lat="43.49219" lon="1.53678">
        <ele>152.7002</ele>
        <time>2020-09-27T11:30:46+02:00</time>
      </trkpt>
      <trkpt lat="43.49221" lon="1.53679">
        <ele>152.7002</ele>
        <time>2020-09-27T11:30:47+02:00</time>
      </trkpt>
      <trkpt lat="43.49227" lon="1.53681">
        <ele>152.5</ele>
        <time>2020-09-27T11:30:52+02:00</time>
      </trkpt>
      <trkpt lat="43.49229" lon="1.53682">
        <ele>152.40039</ele>
        <time>2020-09-27T11:30:53+02:00</time>
      </trkpt>
      <trkpt lat="43.49235" lon="1.53683">
        <ele>152.40039</ele>
        <time>2020-09-27T11:30:57+02:00</time>
      </trkpt>
      <trkpt lat="43.49237" lon="1.53684">
        <ele>152.40039</ele>
        <time>2020-09-27T11:30:58+02:00</time>
      </trkpt>
      <trkpt lat="43.49243" lon="1.53685">
        <ele>152.2998</ele>
        <time>2020-09-27T11:31:03+02:00</time>
      </trkpt>
      <trkpt lat="43.49245" lon="1.53685">
        <ele>152.2998</ele>
        <time>2020-09-27T11:31:04+02:00</time>
      </trkpt>
      <trkpt lat="43.49251" lon="1.53686">
        <ele>152.2998</ele>
        <time>2020-09-27T11:31:09+02:00</time>
      </trkpt>
      <trkpt lat="43.49253" lon="1.53686">
        <ele>152.2998</ele>
        <time>2020-09-27T11:31:10+02:00</time>
      </trkpt>
      <trkpt lat="43.49259" lon="1.53687">
        <ele>152.2998</ele>
        <time>2020-09-27T11:31:15+02:00</time>
      </trkpt>
      <trkpt lat="43.49261" lon="1.53687">
        <ele>152.2002</ele>
        <time>2020-09-27T11:31:16+02:00</time>
      </trkpt>
      <trkpt lat="43.49268" lon="1.53687">
        <ele>152.2002</ele>
        <time>2020-09-27T11:31:21+02:00</time>
      </trkpt>
      <trkpt lat="43.49269" lon="1.53687">
        <ele>152.2002</ele>
        <time>2020-09-27T11:31:22+02:00</time>
      </trkpt>
      <trkpt lat="43.49275" lon="1.53687">
        <ele>152.2002</ele>
        <time>2020-09-27T11:31:26+02:00</time>
      </trkpt>
      <trkpt lat="43.49276" lon="1.53687">
        <ele>152.2002</ele>
        <time>2020-09-27T11:31:28+02:00</time>
      </trkpt>
      <trkpt lat="43.49283" lon="1.53686">
        <ele>152.2002</ele>
        <time>2020-09-27T11:31:32+02:00</time>
      </trkpt>
      <trkpt lat="43.49284" lon="1.53686">
        <ele>152.2002</ele>
        <time>2020-09-27T11:31:33+02:00</time>
      </trkpt>
      <trkpt lat="43.49291" lon="1.53686">
        <ele>152.2002</ele>
        <time>2020-09-27T11:31:38+02:00</time>
      </trkpt>
      <trkpt lat="43.49292" lon="1.53686">
        <ele>152.2002</ele>
        <time>2020-09-27T11:31:39+02:00</time>
      </trkpt>
      <trkpt lat="43.49298" lon="1.53685">
        <ele>152.2002</ele>
        <time>2020-09-27T11:31:44+02:00</time>
      </trkpt>
      <trkpt lat="43.49299" lon="1.53685">
        <ele>152.2002</ele>
        <time>2020-09-27T11:31:45+02:00</time>
      </trkpt>
      <trkpt lat="43.49305" lon="1.53684">
        <ele>152.2002</ele>
        <time>2020-09-27T11:31:49+02:00</time>
      </trkpt>
      <trkpt lat="43.49307" lon="1.53683">
        <ele>152.2002</ele>
        <time>2020-09-27T11:31:51+02:00</time>
      </trkpt>
      <trkpt lat="43.49314" lon="1.53681">
        <ele>152.2002</ele>
        <time>2020-09-27T11:31:56+02:00</time>
      </trkpt>
      <trkpt lat="43.49316" lon="1.5368">
        <ele>152.2002</ele>
        <time>2020-09-27T11:31:57+02:00</time>
      </trkpt>
      <trkpt lat="43.49322" lon="1.53678">
        <ele>152.2998</ele>
        <time>2020-09-27T11:32:02+02:00</time>
      </trkpt>
      <trkpt lat="43.49324" lon="1.53678">
        <ele>152.2998</ele>
        <time>2020-09-27T11:32:03+02:00</time>
      </trkpt>
      <trkpt lat="43.4933" lon="1.53677">
        <ele>152.2998</ele>
        <time>2020-09-27T11:32:08+02:00</time>
      </trkpt>
      <trkpt lat="43.49332" lon="1.53677">
        <ele>152.2998</ele>
        <time>2020-09-27T11:32:10+02:00</time>
      </trkpt>
      <trkpt lat="43.49339" lon="1.53677">
        <ele>152.2002</ele>
        <time>2020-09-27T11:32:15+02:00</time>
      </trkpt>
      <trkpt lat="43.4934" lon="1.53677">
        <ele>152.2002</ele>
        <time>2020-09-27T11:32:16+02:00</time>
      </trkpt>
      <trkpt lat="43.49346" lon="1.53676">
        <ele>152.2002</ele>
        <time>2020-09-27T11:32:21+02:00</time>
      </trkpt>
      <trkpt lat="43.49348" lon="1.53676">
        <ele>152.2002</ele>
        <time>2020-09-27T11:32:22+02:00</time>
      </trkpt>
      <trkpt lat="43.49353" lon="1.53674">
        <ele>152.10059</ele>
        <time>2020-09-27T11:32:26+02:00</time>
      </trkpt>
      <trkpt lat="43.49355" lon="1.53674">
        <ele>152.10059</ele>
        <time>2020-09-27T11:32:28+02:00</time>
      </trkpt>
      <trkpt lat="43.4936" lon="1.53672">
        <ele>152</ele>
        <time>2020-09-27T11:32:32+02:00</time>
      </trkpt>
      <trkpt lat="43.49362" lon="1.53671">
        <ele>152</ele>
        <time>2020-09-27T11:32:33+02:00</time>
      </trkpt>
      <trkpt lat="43.49368" lon="1.5367">
        <ele>152.10059</ele>
        <time>2020-09-27T11:32:38+02:00</time>
      </trkpt>
      <trkpt lat="43.49369" lon="1.53669">
        <ele>152.10059</ele>
        <time>2020-09-27T11:32:39+02:00</time>
      </trkpt>
      <trkpt lat="43.49375" lon="1.53668">
        <ele>152</ele>
        <time>2020-09-27T11:32:43+02:00</time>
      </trkpt>
      <trkpt lat="43.49376" lon="1.53667">
        <ele>152</ele>
        <time>2020-09-27T11:32:44+02:00</time>
      </trkpt>
      <trkpt lat="43.49382" lon="1.53665">
        <ele>152</ele>
        <time>2020-09-27T11:32:49+02:00</time>
      </trkpt>
      <trkpt lat="43.49384" lon="1.53665">
        <ele>152</ele>
        <time>2020-09-27T11:32:50+02:00</time>
      </trkpt>
      <trkpt lat="43.4939" lon="1.53663">
        <ele>152</ele>
        <time>2020-09-27T11:32:54+02:00</time>
      </trkpt>
      <trkpt lat="43.49391" lon="1.53662">
        <ele>152</ele>
        <time>2020-09-27T11:32:55+02:00</time>
      </trkpt>
      <trkpt lat="43.49398" lon="1.5366">
        <ele>152</ele>
        <time>2020-09-27T11:33:00+02:00</time>
      </trkpt>
      <trkpt lat="43.494" lon="1.53659">
        <ele>152</ele>
        <time>2020-09-27T11:33:02+02:00</time>
      </trkpt>
      <trkpt lat="43.49406" lon="1.53656">
        <ele>152</ele>
        <time>2020-09-27T11:33:06+02:00</time>
      </trkpt>
      <trkpt lat="43.49407" lon="1.53655">
        <ele>152</ele>
        <time>2020-09-27T11:33:07+02:00</time>
      </trkpt>
      <trkpt lat="43.49413" lon="1.53653">
        <ele>152</ele>
        <time>2020-09-27T11:33:12+02:00</time>
      </trkpt>
      <trkpt lat="43.49415" lon="1.53653">
        <ele>152</ele>
        <time>2020-09-27T11:33:13+02:00</time>
      </trkpt>
      <trkpt lat="43.49421" lon="1.5365">
        <ele>152</ele>
        <time>2020-09-27T11:33:17+02:00</time>
      </trkpt>
      <trkpt lat="43.49422" lon="1.5365">
        <ele>152</ele>
        <time>2020-09-27T11:33:19+02:00</time>
      </trkpt>
      <trkpt lat="43.49429" lon="1.53648">
        <ele>152</ele>
        <time>2020-09-27T11:33:24+02:00</time>
      </trkpt>
      <trkpt lat="43.4943" lon="1.53647">
        <ele>152</ele>
        <time>2020-09-27T11:33:25+02:00</time>
      </trkpt>
      <trkpt lat="43.49437" lon="1.53644">
        <ele>152</ele>
        <time>2020-09-27T11:33:29+02:00</time>
      </trkpt>
      <trkpt lat="43.49439" lon="1.53644">
        <ele>152</ele>
        <time>2020-09-27T11:33:31+02:00</time>
      </trkpt>
      <trkpt lat="43.49446" lon="1.53641">
        <ele>152.10059</ele>
        <time>2020-09-27T11:33:35+02:00</time>
      </trkpt>
      <trkpt lat="43.49447" lon="1.5364">
        <ele>152.10059</ele>
        <time>2020-09-27T11:33:37+02:00</time>
      </trkpt>
      <trkpt lat="43.49454" lon="1.53637">
        <ele>152.2002</ele>
        <time>2020-09-27T11:33:42+02:00</time>
      </trkpt>
      <trkpt lat="43.49455" lon="1.53637">
        <ele>152.2998</ele>
        <time>2020-09-27T11:33:43+02:00</time>
      </trkpt>
      <trkpt lat="43.49462" lon="1.53634">
        <ele>152.40039</ele>
        <time>2020-09-27T11:33:47+02:00</time>
      </trkpt>
      <trkpt lat="43.49463" lon="1.53633">
        <ele>152.40039</ele>
        <time>2020-09-27T11:33:48+02:00</time>
      </trkpt>
      <trkpt lat="43.4947" lon="1.5363">
        <ele>152.40039</ele>
        <time>2020-09-27T11:33:53+02:00</time>
      </trkpt>
      <trkpt lat="43.49471" lon="1.53629">
        <ele>152.40039</ele>
        <time>2020-09-27T11:33:54+02:00</time>
      </trkpt>
      <trkpt lat="43.49477" lon="1.53626">
        <ele>152.60059</ele>
        <time>2020-09-27T11:33:59+02:00</time>
      </trkpt>
      <trkpt lat="43.49478" lon="1.53626">
        <ele>152.7002</ele>
        <time>2020-09-27T11:34:00+02:00</time>
      </trkpt>
      <trkpt lat="43.49485" lon="1.53624">
        <ele>152.7002</ele>
        <time>2020-09-27T11:34:04+02:00</time>
      </trkpt>
      <trkpt lat="43.49487" lon="1.53624">
        <ele>152.7002</ele>
        <time>2020-09-27T11:34:06+02:00</time>
      </trkpt>
      <trkpt lat="43.49493" lon="1.53622">
        <ele>152.60059</ele>
        <time>2020-09-27T11:34:10+02:00</time>
      </trkpt>
      <trkpt lat="43.49495" lon="1.53622">
        <ele>152.60059</ele>
        <time>2020-09-27T11:34:11+02:00</time>
      </trkpt>
      <trkpt lat="43.49501" lon="1.53621">
        <ele>152.5</ele>
        <time>2020-09-27T11:34:16+02:00</time>
      </trkpt>
      <trkpt lat="43.49503" lon="1.5362">
        <ele>152.40039</ele>
        <time>2020-09-27T11:34:17+02:00</time>
      </trkpt>
      <trkpt lat="43.49509" lon="1.53619">
        <ele>152.40039</ele>
        <time>2020-09-27T11:34:22+02:00</time>
      </trkpt>
      <trkpt lat="43.49511" lon="1.53618">
        <ele>152.40039</ele>
        <time>2020-09-27T11:34:23+02:00</time>
      </trkpt>
      <trkpt lat="43.49516" lon="1.53617">
        <ele>152.2998</ele>
        <time>2020-09-27T11:34:28+02:00</time>
      </trkpt>
      <trkpt lat="43.49518" lon="1.53617">
        <ele>152.2998</ele>
        <time>2020-09-27T11:34:29+02:00</time>
      </trkpt>
      <trkpt lat="43.49523" lon="1.53615">
        <ele>152.2998</ele>
        <time>2020-09-27T11:34:33+02:00</time>
      </trkpt>
      <trkpt lat="43.49525" lon="1.53615">
        <ele>152.2998</ele>
        <time>2020-09-27T11:34:34+02:00</time>
      </trkpt>
      <trkpt lat="43.49531" lon="1.53612">
        <ele>152.2002</ele>
        <time>2020-09-27T11:34:40+02:00</time>
      </trkpt>
      <trkpt lat="43.49532" lon="1.53611">
        <ele>152.2998</ele>
        <time>2020-09-27T11:34:41+02:00</time>
      </trkpt>
      <trkpt lat="43.49538" lon="1.53607">
        <ele>152.2998</ele>
        <time>2020-09-27T11:34:45+02:00</time>
      </trkpt>
      <trkpt lat="43.49539" lon="1.53606">
        <ele>152.2998</ele>
        <time>2020-09-27T11:34:46+02:00</time>
      </trkpt>
      <trkpt lat="43.49545" lon="1.53602">
        <ele>152.2998</ele>
        <time>2020-09-27T11:34:51+02:00</time>
      </trkpt>
      <trkpt lat="43.49546" lon="1.53601">
        <ele>152.2998</ele>
        <time>2020-09-27T11:34:52+02:00</time>
      </trkpt>
      <trkpt lat="43.49552" lon="1.53596">
        <ele>152.2998</ele>
        <time>2020-09-27T11:34:57+02:00</time>
      </trkpt>
      <trkpt lat="43.49554" lon="1.53595">
        <ele>152.2998</ele>
        <time>2020-09-27T11:34:58+02:00</time>
      </trkpt>
      <trkpt lat="43.49559" lon="1.53592">
        <ele>152.2998</ele>
        <time>2020-09-27T11:35:03+02:00</time>
      </trkpt>
      <trkpt lat="43.49561" lon="1.53591">
        <ele>152.2998</ele>
        <time>2020-09-27T11:35:04+02:00</time>
      </trkpt>
      <trkpt lat="43.49566" lon="1.53588">
        <ele>152.2998</ele>
        <time>2020-09-27T11:35:08+02:00</time>
      </trkpt>
      <trkpt lat="43.49568" lon="1.53587">
        <ele>152.2998</ele>
        <time>2020-09-27T11:35:09+02:00</time>
      </trkpt>
      <trkpt lat="43.49573" lon="1.53583">
        <ele>152.2998</ele>
        <time>2020-09-27T11:35:14+02:00</time>
      </trkpt>
      <trkpt lat="43.49574" lon="1.53582">
        <ele>152.2998</ele>
        <time>2020-09-27T11:35:16+02:00</time>
      </trkpt>
      <trkpt lat="43.49579" lon="1.53578">
        <ele>152.40039</ele>
        <time>2020-09-27T11:35:20+02:00</time>
      </trkpt>
      <trkpt lat="43.4958" lon="1.53577">
        <ele>152.40039</ele>
        <time>2020-09-27T11:35:21+02:00</time>
      </trkpt>
      <trkpt lat="43.49584" lon="1.53572">
        <ele>152.2002</ele>
        <time>2020-09-27T11:35:26+02:00</time>
      </trkpt>
      <trkpt lat="43.49585" lon="1.53571">
        <ele>152.2002</ele>
        <time>2020-09-27T11:35:27+02:00</time>
      </trkpt>
      <trkpt lat="43.4959" lon="1.53566">
        <ele>152</ele>
        <time>2020-09-27T11:35:31+02:00</time>
      </trkpt>
      <trkpt lat="43.49592" lon="1.53565">
        <ele>152</ele>
        <time>2020-09-27T11:35:33+02:00</time>
      </trkpt>
      <trkpt lat="43.49597" lon="1.5356">
        <ele>152.2002</ele>
        <time>2020-09-27T11:35:37+02:00</time>
      </trkpt>
      <trkpt lat="43.49598" lon="1.53558">
        <ele>152.2002</ele>
        <time>2020-09-27T11:35:39+02:00</time>
      </trkpt>
      <trkpt lat="43.49604" lon="1.53553">
        <ele>152.7002</ele>
        <time>2020-09-27T11:35:43+02:00</time>
      </trkpt>
      <trkpt lat="43.49605" lon="1.53552">
        <ele>152.7002</ele>
        <time>2020-09-27T11:35:45+02:00</time>
      </trkpt>
      <trkpt lat="43.49611" lon="1.53547">
        <ele>152.90039</ele>
        <time>2020-09-27T11:35:50+02:00</time>
      </trkpt>
      <trkpt lat="43.49612" lon="1.53545">
        <ele>152.90039</ele>
        <time>2020-09-27T11:35:51+02:00</time>
      </trkpt>
      <trkpt lat="43.49618" lon="1.53541">
        <ele>152.60059</ele>
        <time>2020-09-27T11:35:55+02:00</time>
      </trkpt>
      <trkpt lat="43.49619" lon="1.5354">
        <ele>152.60059</ele>
        <time>2020-09-27T11:35:57+02:00</time>
      </trkpt>
      <trkpt lat="43.49625" lon="1.53535">
        <ele>152.7002</ele>
        <time>2020-09-27T11:36:01+02:00</time>
      </trkpt>
      <trkpt lat="43.49626" lon="1.53534">
        <ele>152.10059</ele>
        <time>2020-09-27T11:36:02+02:00</time>
      </trkpt>
      <trkpt lat="43.49631" lon="1.53529">
        <ele>152.2998</ele>
        <time>2020-09-27T11:36:07+02:00</time>
      </trkpt>
      <trkpt lat="43.49633" lon="1.53527">
        <ele>152.2998</ele>
        <time>2020-09-27T11:36:08+02:00</time>
      </trkpt>
      <trkpt lat="43.49638" lon="1.53521">
        <ele>152.2998</ele>
        <time>2020-09-27T11:36:13+02:00</time>
      </trkpt>
      <trkpt lat="43.4964" lon="1.5352">
        <ele>152.7998</ele>
        <time>2020-09-27T11:36:15+02:00</time>
      </trkpt>
      <trkpt lat="43.49646" lon="1.53512">
        <ele>153.10059</ele>
        <time>2020-09-27T11:36:19+02:00</time>
      </trkpt>
      <trkpt lat="43.49647" lon="1.53511">
        <ele>153.10059</ele>
        <time>2020-09-27T11:36:21+02:00</time>
      </trkpt>
      <trkpt lat="43.49653" lon="1.53504">
        <ele>153.2002</ele>
        <time>2020-09-27T11:36:25+02:00</time>
      </trkpt>
      <trkpt lat="43.49654" lon="1.53503">
        <ele>153.2002</ele>
        <time>2020-09-27T11:36:26+02:00</time>
      </trkpt>
      <trkpt lat="43.49659" lon="1.53496">
        <ele>153.2998</ele>
        <time>2020-09-27T11:36:31+02:00</time>
      </trkpt>
      <trkpt lat="43.49661" lon="1.53495">
        <ele>153.2998</ele>
        <time>2020-09-27T11:36:32+02:00</time>
      </trkpt>
      <trkpt lat="43.49666" lon="1.53488">
        <ele>153.60059</ele>
        <time>2020-09-27T11:36:38+02:00</time>
      </trkpt>
      <trkpt lat="43.49667" lon="1.53487">
        <ele>153.60059</ele>
        <time>2020-09-27T11:36:39+02:00</time>
      </trkpt>
      <trkpt lat="43.49672" lon="1.5348">
        <ele>153.90039</ele>
        <time>2020-09-27T11:36:43+02:00</time>
      </trkpt>
      <trkpt lat="43.49673" lon="1.53479">
        <ele>153.90039</ele>
        <time>2020-09-27T11:36:44+02:00</time>
      </trkpt>
      <trkpt lat="43.49678" lon="1.53471">
        <ele>154</ele>
        <time>2020-09-27T11:36:50+02:00</time>
      </trkpt>
      <trkpt lat="43.4968" lon="1.53469">
        <ele>154</ele>
        <time>2020-09-27T11:36:51+02:00</time>
      </trkpt>
      <trkpt lat="43.49685" lon="1.53462">
        <ele>154.2002</ele>
        <time>2020-09-27T11:36:56+02:00</time>
      </trkpt>
      <trkpt lat="43.49686" lon="1.5346">
        <ele>154.2002</ele>
        <time>2020-09-27T11:36:57+02:00</time>
      </trkpt>
      <trkpt lat="43.49691" lon="1.53452">
        <ele>154.60059</ele>
        <time>2020-09-27T11:37:02+02:00</time>
      </trkpt>
      <trkpt lat="43.49692" lon="1.5345">
        <ele>154.60059</ele>
        <time>2020-09-27T11:37:03+02:00</time>
      </trkpt>
      <trkpt lat="43.49696" lon="1.53442">
        <ele>154.7002</ele>
        <time>2020-09-27T11:37:07+02:00</time>
      </trkpt>
      <trkpt lat="43.49697" lon="1.5344">
        <ele>154.7002</ele>
        <time>2020-09-27T11:37:08+02:00</time>
      </trkpt>
      <trkpt lat="43.49701" lon="1.53431">
        <ele>153.60059</ele>
        <time>2020-09-27T11:37:13+02:00</time>
      </trkpt>
      <trkpt lat="43.49702" lon="1.53429">
        <ele>154.40039</ele>
        <time>2020-09-27T11:37:14+02:00</time>
      </trkpt>
      <trkpt lat="43.49706" lon="1.53421">
        <ele>153.90039</ele>
        <time>2020-09-27T11:37:19+02:00</time>
      </trkpt>
      <trkpt lat="43.49707" lon="1.53418">
        <ele>153.90039</ele>
        <time>2020-09-27T11:37:20+02:00</time>
      </trkpt>
      <trkpt lat="43.49711" lon="1.53411">
        <ele>154.40039</ele>
        <time>2020-09-27T11:37:25+02:00</time>
      </trkpt>
      <trkpt lat="43.49712" lon="1.53409">
        <ele>154.40039</ele>
        <time>2020-09-27T11:37:26+02:00</time>
      </trkpt>
      <trkpt lat="43.49716" lon="1.53399">
        <ele>154.40039</ele>
        <time>2020-09-27T11:37:31+02:00</time>
      </trkpt>
      <trkpt lat="43.49717" lon="1.53397">
        <ele>154.40039</ele>
        <time>2020-09-27T11:37:32+02:00</time>
      </trkpt>
      <trkpt lat="43.49721" lon="1.53388">
        <ele>154</ele>
        <time>2020-09-27T11:37:37+02:00</time>
      </trkpt>
      <trkpt lat="43.49722" lon="1.53386">
        <ele>154</ele>
        <time>2020-09-27T11:37:38+02:00</time>
      </trkpt>
      <trkpt lat="43.49725" lon="1.53376">
        <ele>153.40039</ele>
        <time>2020-09-27T11:37:43+02:00</time>
      </trkpt>
      <trkpt lat="43.49726" lon="1.53374">
        <ele>153.40039</ele>
        <time>2020-09-27T11:37:44+02:00</time>
      </trkpt>
      <trkpt lat="43.4973" lon="1.53366">
        <ele>153.5</ele>
        <time>2020-09-27T11:37:48+02:00</time>
      </trkpt>
      <trkpt lat="43.49731" lon="1.53364">
        <ele>153.5</ele>
        <time>2020-09-27T11:37:49+02:00</time>
      </trkpt>
      <trkpt lat="43.49734" lon="1.53355">
        <ele>153.5</ele>
        <time>2020-09-27T11:37:54+02:00</time>
      </trkpt>
      <trkpt lat="43.49735" lon="1.53353">
        <ele>152.7998</ele>
        <time>2020-09-27T11:37:55+02:00</time>
      </trkpt>
      <trkpt lat="43.49738" lon="1.53344">
        <ele>152.7002</ele>
        <time>2020-09-27T11:38:00+02:00</time>
      </trkpt>
      <trkpt lat="43.49739" lon="1.53342">
        <ele>152.7002</ele>
        <time>2020-09-27T11:38:01+02:00</time>
      </trkpt>
      <trkpt lat="43.49742" lon="1.53333">
        <ele>153.60059</ele>
        <time>2020-09-27T11:38:06+02:00</time>
      </trkpt>
      <trkpt lat="43.49743" lon="1.53331">
        <ele>153.60059</ele>
        <time>2020-09-27T11:38:07+02:00</time>
      </trkpt>
      <trkpt lat="43.49746" lon="1.53322">
        <ele>152.90039</ele>
        <time>2020-09-27T11:38:12+02:00</time>
      </trkpt>
      <trkpt lat="43.49746" lon="1.5332">
        <ele>152.90039</ele>
        <time>2020-09-27T11:38:13+02:00</time>
      </trkpt>
      <trkpt lat="43.49749" lon="1.53311">
        <ele>151.7998</ele>
        <time>2020-09-27T11:38:18+02:00</time>
      </trkpt>
      <trkpt lat="43.49749" lon="1.53309">
        <ele>151.2998</ele>
        <time>2020-09-27T11:38:20+02:00</time>
      </trkpt>
      <trkpt lat="43.49753" lon="1.53302">
        <ele>151.5</ele>
        <time>2020-09-27T11:38:25+02:00</time>
      </trkpt>
      <trkpt lat="43.49754" lon="1.533">
        <ele>151.5</ele>
        <time>2020-09-27T11:38:26+02:00</time>
      </trkpt>
      <trkpt lat="43.49759" lon="1.53294">
        <ele>152.2998</ele>
        <time>2020-09-27T11:38:31+02:00</time>
      </trkpt>
      <trkpt lat="43.4976" lon="1.53293">
        <ele>151.5</ele>
        <time>2020-09-27T11:38:32+02:00</time>
      </trkpt>
      <trkpt lat="43.49766" lon="1.53289">
        <ele>152.2002</ele>
        <time>2020-09-27T11:38:36+02:00</time>
      </trkpt>
      <trkpt lat="43.49768" lon="1.53289">
        <ele>152.2002</ele>
        <time>2020-09-27T11:38:38+02:00</time>
      </trkpt>
      <trkpt lat="43.49774" lon="1.53287">
        <ele>153.10059</ele>
        <time>2020-09-27T11:38:42+02:00</time>
      </trkpt>
      <trkpt lat="43.49776" lon="1.53286">
        <ele>153.10059</ele>
        <time>2020-09-27T11:38:43+02:00</time>
      </trkpt>
      <trkpt lat="43.49783" lon="1.53285">
        <ele>154.60059</ele>
        <time>2020-09-27T11:38:48+02:00</time>
      </trkpt>
      <trkpt lat="43.49785" lon="1.53285">
        <ele>154.60059</ele>
        <time>2020-09-27T11:38:50+02:00</time>
      </trkpt>
      <trkpt lat="43.49793" lon="1.53284">
        <ele>155.60059</ele>
        <time>2020-09-27T11:38:54+02:00</time>
      </trkpt>
      <trkpt lat="43.49795" lon="1.53284">
        <ele>155.60059</ele>
        <time>2020-09-27T11:38:55+02:00</time>
      </trkpt>
      <trkpt lat="43.49803" lon="1.53284">
        <ele>157.2002</ele>
        <time>2020-09-27T11:39:00+02:00</time>
      </trkpt>
      <trkpt lat="43.49804" lon="1.53283">
        <ele>157.2002</ele>
        <time>2020-09-27T11:39:01+02:00</time>
      </trkpt>
      <trkpt lat="43.49811" lon="1.53281">
        <ele>157.90039</ele>
        <time>2020-09-27T11:39:06+02:00</time>
      </trkpt>
      <trkpt lat="43.49812" lon="1.53281">
        <ele>157.90039</ele>
        <time>2020-09-27T11:39:07+02:00</time>
      </trkpt>
      <trkpt lat="43.49818" lon="1.53277">
        <ele>158.60059</ele>
        <time>2020-09-27T11:39:12+02:00</time>
      </trkpt>
      <trkpt lat="43.49819" lon="1.53276">
        <ele>157.90039</ele>
        <time>2020-09-27T11:39:13+02:00</time>
      </trkpt>
      <trkpt lat="43.49824" lon="1.53271">
        <ele>158.60059</ele>
        <time>2020-09-27T11:39:18+02:00</time>
      </trkpt>
      <trkpt lat="43.49825" lon="1.5327">
        <ele>158.60059</ele>
        <time>2020-09-27T11:39:20+02:00</time>
      </trkpt>
      <trkpt lat="43.49829" lon="1.53264">
        <ele>158.5</ele>
        <time>2020-09-27T11:39:24+02:00</time>
      </trkpt>
      <trkpt lat="43.49831" lon="1.53262">
        <ele>158.5</ele>
        <time>2020-09-27T11:39:26+02:00</time>
      </trkpt>
      <trkpt lat="43.49835" lon="1.53255">
        <ele>158.2998</ele>
        <time>2020-09-27T11:39:31+02:00</time>
      </trkpt>
      <trkpt lat="43.49836" lon="1.53253">
        <ele>158.2998</ele>
        <time>2020-09-27T11:39:32+02:00</time>
      </trkpt>
      <trkpt lat="43.49841" lon="1.53246">
        <ele>157.7002</ele>
        <time>2020-09-27T11:39:38+02:00</time>
      </trkpt>
      <trkpt lat="43.49842" lon="1.53244">
        <ele>157.7002</ele>
        <time>2020-09-27T11:39:39+02:00</time>
      </trkpt>
      <trkpt lat="43.49846" lon="1.53237">
        <ele>157.2002</ele>
        <time>2020-09-27T11:39:43+02:00</time>
      </trkpt>
      <trkpt lat="43.49848" lon="1.53236">
        <ele>157.2002</ele>
        <time>2020-09-27T11:39:44+02:00</time>
      </trkpt>
      <trkpt lat="43.49852" lon="1.53229">
        <ele>156.7002</ele>
        <time>2020-09-27T11:39:49+02:00</time>
      </trkpt>
      <trkpt lat="43.49853" lon="1.53227">
        <ele>156.7002</ele>
        <time>2020-09-27T11:39:51+02:00</time>
      </trkpt>
      <trkpt lat="43.49859" lon="1.53221">
        <ele>156.5</ele>
        <time>2020-09-27T11:39:56+02:00</time>
      </trkpt>
      <trkpt lat="43.4986" lon="1.5322">
        <ele>156.5</ele>
        <time>2020-09-27T11:39:57+02:00</time>
      </trkpt>
      <trkpt lat="43.49865" lon="1.53215">
        <ele>156.2998</ele>
        <time>2020-09-27T11:40:02+02:00</time>
      </trkpt>
      <trkpt lat="43.49867" lon="1.53214">
        <ele>156.2998</ele>
        <time>2020-09-27T11:40:04+02:00</time>
      </trkpt>
      <trkpt lat="43.49872" lon="1.5321">
        <ele>156.7998</ele>
        <time>2020-09-27T11:40:09+02:00</time>
      </trkpt>
      <trkpt lat="43.49873" lon="1.53209">
        <ele>156.7998</ele>
        <time>2020-09-27T11:40:10+02:00</time>
      </trkpt>
      <trkpt lat="43.49879" lon="1.53205">
        <ele>156.2998</ele>
        <time>2020-09-27T11:40:14+02:00</time>
      </trkpt>
      <trkpt lat="43.4988" lon="1.53204">
        <ele>156.2998</ele>
        <time>2020-09-27T11:40:16+02:00</time>
      </trkpt>
      <trkpt lat="43.49886" lon="1.53201">
        <ele>156.60059</ele>
        <time>2020-09-27T11:40:20+02:00</time>
      </trkpt>
      <trkpt lat="43.49887" lon="1.532">
        <ele>156.60059</ele>
        <time>2020-09-27T11:40:21+02:00</time>
      </trkpt>
      <trkpt lat="43.49892" lon="1.53198">
        <ele>156.10059</ele>
        <time>2020-09-27T11:40:25+02:00</time>
      </trkpt>
      <trkpt lat="43.49893" lon="1.53197">
        <ele>156.10059</ele>
        <time>2020-09-27T11:40:26+02:00</time>
      </trkpt>
      <trkpt lat="43.49898" lon="1.53195">
        <ele>156.5</ele>
        <time>2020-09-27T11:40:31+02:00</time>
      </trkpt>
      <trkpt lat="43.499" lon="1.53194">
        <ele>156.5</ele>
        <time>2020-09-27T11:40:32+02:00</time>
      </trkpt>
      <trkpt lat="43.49905" lon="1.5319">
        <ele>156.2998</ele>
        <time>2020-09-27T11:40:37+02:00</time>
      </trkpt>
      <trkpt lat="43.49906" lon="1.53189">
        <ele>156.2998</ele>
        <time>2020-09-27T11:40:38+02:00</time>
      </trkpt>
      <trkpt lat="43.49912" lon="1.53184">
        <ele>156.7998</ele>
        <time>2020-09-27T11:40:43+02:00</time>
      </trkpt>
      <trkpt lat="43.49913" lon="1.53183">
        <ele>156.7998</ele>
        <time>2020-09-27T11:40:44+02:00</time>
      </trkpt>
      <trkpt lat="43.49918" lon="1.53178">
        <ele>156.60059</ele>
        <time>2020-09-27T11:40:49+02:00</time>
      </trkpt>
      <trkpt lat="43.49919" lon="1.53176">
        <ele>156.60059</ele>
        <time>2020-09-27T11:40:50+02:00</time>
      </trkpt>
      <trkpt lat="43.49924" lon="1.53171">
        <ele>156.2002</ele>
        <time>2020-09-27T11:40:54+02:00</time>
      </trkpt>
      <trkpt lat="43.49925" lon="1.53169">
        <ele>156.2002</ele>
        <time>2020-09-27T11:40:56+02:00</time>
      </trkpt>
      <trkpt lat="43.49929" lon="1.53163">
        <ele>155.7002</ele>
        <time>2020-09-27T11:41:01+02:00</time>
      </trkpt>
      <trkpt lat="43.4993" lon="1.53162">
        <ele>155.7002</ele>
        <time>2020-09-27T11:41:02+02:00</time>
      </trkpt>
      <trkpt lat="43.49934" lon="1.53155">
        <ele>155.5</ele>
        <time>2020-09-27T11:41:06+02:00</time>
      </trkpt>
      <trkpt lat="43.49934" lon="1.53154">
        <ele>155.5</ele>
        <time>2020-09-27T11:41:08+02:00</time>
      </trkpt>
      <trkpt lat="43.49937" lon="1.53147">
        <ele>154.90039</ele>
        <time>2020-09-27T11:41:12+02:00</time>
      </trkpt>
      <trkpt lat="43.49938" lon="1.53145">
        <ele>154.90039</ele>
        <time>2020-09-27T11:41:13+02:00</time>
      </trkpt>
      <trkpt lat="43.49941" lon="1.53135">
        <ele>155.10059</ele>
        <time>2020-09-27T11:41:18+02:00</time>
      </trkpt>
      <trkpt lat="43.49941" lon="1.53132">
        <ele>155.10059</ele>
        <time>2020-09-27T11:41:19+02:00</time>
      </trkpt>
      <trkpt lat="43.49943" lon="1.53121">
        <ele>153.7002</ele>
        <time>2020-09-27T11:41:23+02:00</time>
      </trkpt>
      <trkpt lat="43.49944" lon="1.53118">
        <ele>153.7002</ele>
        <time>2020-09-27T11:41:24+02:00</time>
      </trkpt>
      <trkpt lat="43.49946" lon="1.53106">
        <ele>153.7002</ele>
        <time>2020-09-27T11:41:29+02:00</time>
      </trkpt>
      <trkpt lat="43.49946" lon="1.53103">
        <ele>153.10059</ele>
        <time>2020-09-27T11:41:31+02:00</time>
      </trkpt>
      <trkpt lat="43.49949" lon="1.53092">
        <ele>152.90039</ele>
        <time>2020-09-27T11:41:36+02:00</time>
      </trkpt>
      <trkpt lat="43.49949" lon="1.53089">
        <ele>152.90039</ele>
        <time>2020-09-27T11:41:37+02:00</time>
      </trkpt>
      <trkpt lat="43.49953" lon="1.53077">
        <ele>152.2002</ele>
        <time>2020-09-27T11:41:43+02:00</time>
      </trkpt>
      <trkpt lat="43.49954" lon="1.53075">
        <ele>152.2002</ele>
        <time>2020-09-27T11:41:44+02:00</time>
      </trkpt>
      <trkpt lat="43.49959" lon="1.53066">
        <ele>151.40039</ele>
        <time>2020-09-27T11:41:50+02:00</time>
      </trkpt>
      <trkpt lat="43.4996" lon="1.53064">
        <ele>151.40039</ele>
        <time>2020-09-27T11:41:51+02:00</time>
      </trkpt>
      <trkpt lat="43.49964" lon="1.53059">
        <ele>151.2002</ele>
        <time>2020-09-27T11:41:55+02:00</time>
      </trkpt>
      <trkpt lat="43.49965" lon="1.53057">
        <ele>151.2002</ele>
        <time>2020-09-27T11:41:56+02:00</time>
      </trkpt>
      <trkpt lat="43.49971" lon="1.53052">
        <ele>151.2002</ele>
        <time>2020-09-27T11:42:02+02:00</time>
      </trkpt>
      <trkpt lat="43.49973" lon="1.53052">
        <ele>151.2002</ele>
        <time>2020-09-27T11:42:03+02:00</time>
      </trkpt>
      <trkpt lat="43.49979" lon="1.53048">
        <ele>151.10059</ele>
        <time>2020-09-27T11:42:07+02:00</time>
      </trkpt>
      <trkpt lat="43.4998" lon="1.53048">
        <ele>151.10059</ele>
        <time>2020-09-27T11:42:08+02:00</time>
      </trkpt>
      <trkpt lat="43.49986" lon="1.53045">
        <ele>151.5</ele>
        <time>2020-09-27T11:42:13+02:00</time>
      </trkpt>
      <trkpt lat="43.49987" lon="1.53045">
        <ele>151.2002</ele>
        <time>2020-09-27T11:42:14+02:00</time>
      </trkpt>
      <trkpt lat="43.49993" lon="1.53043">
        <ele>151.60059</ele>
        <time>2020-09-27T11:42:18+02:00</time>
      </trkpt>
      <trkpt lat="43.49995" lon="1.53042">
        <ele>152</ele>
        <time>2020-09-27T11:42:19+02:00</time>
      </trkpt>
      <trkpt lat="43.50001" lon="1.5304">
        <ele>152.2998</ele>
        <time>2020-09-27T11:42:23+02:00</time>
      </trkpt>
      <trkpt lat="43.50002" lon="1.53039">
        <ele>152.2998</ele>
        <time>2020-09-27T11:42:24+02:00</time>
      </trkpt>
      <trkpt lat="43.50008" lon="1.53037">
        <ele>152.5</ele>
        <time>2020-09-27T11:42:29+02:00</time>
      </trkpt>
      <trkpt lat="43.50009" lon="1.53036">
        <ele>151.7002</ele>
        <time>2020-09-27T11:42:30+02:00</time>
      </trkpt>
      <trkpt lat="43.50015" lon="1.53033">
        <ele>151.7998</ele>
        <time>2020-09-27T11:42:35+02:00</time>
      </trkpt>
      <trkpt lat="43.50017" lon="1.53032">
        <ele>151.7998</ele>
        <time>2020-09-27T11:42:36+02:00</time>
      </trkpt>
      <trkpt lat="43.50022" lon="1.5303">
        <ele>152.2002</ele>
        <time>2020-09-27T11:42:40+02:00</time>
      </trkpt>
      <trkpt lat="43.50023" lon="1.53029">
        <ele>152.2002</ele>
        <time>2020-09-27T11:42:41+02:00</time>
      </trkpt>
      <trkpt lat="43.50029" lon="1.53026">
        <ele>152.10059</ele>
        <time>2020-09-27T11:42:46+02:00</time>
      </trkpt>
      <trkpt lat="43.5003" lon="1.53026">
        <ele>152.10059</ele>
        <time>2020-09-27T11:42:47+02:00</time>
      </trkpt>
      <trkpt lat="43.50035" lon="1.53023">
        <ele>153.10059</ele>
        <time>2020-09-27T11:42:51+02:00</time>
      </trkpt>
      <trkpt lat="43.50037" lon="1.53023">
        <ele>153.10059</ele>
        <time>2020-09-27T11:42:52+02:00</time>
      </trkpt>
      <trkpt lat="43.50043" lon="1.5302">
        <ele>154</ele>
        <time>2020-09-27T11:42:57+02:00</time>
      </trkpt>
      <trkpt lat="43.50044" lon="1.53019">
        <ele>153.40039</ele>
        <time>2020-09-27T11:42:58+02:00</time>
      </trkpt>
      <trkpt lat="43.50049" lon="1.53016">
        <ele>154</ele>
        <time>2020-09-27T11:43:03+02:00</time>
      </trkpt>
      <trkpt lat="43.50051" lon="1.53015">
        <ele>154.5</ele>
        <time>2020-09-27T11:43:04+02:00</time>
      </trkpt>
      <trkpt lat="43.50056" lon="1.53011">
        <ele>154.5</ele>
        <time>2020-09-27T11:43:08+02:00</time>
      </trkpt>
      <trkpt lat="43.50057" lon="1.5301">
        <ele>154.60059</ele>
        <time>2020-09-27T11:43:10+02:00</time>
      </trkpt>
      <trkpt lat="43.50062" lon="1.53004">
        <ele>154.60059</ele>
        <time>2020-09-27T11:43:15+02:00</time>
      </trkpt>
      <trkpt lat="43.50064" lon="1.53002">
        <ele>155.10059</ele>
        <time>2020-09-27T11:43:16+02:00</time>
      </trkpt>
      <trkpt lat="43.50069" lon="1.52993">
        <ele>154.40039</ele>
        <time>2020-09-27T11:43:22+02:00</time>
      </trkpt>
      <trkpt lat="43.5007" lon="1.52991">
        <ele>154.40039</ele>
        <time>2020-09-27T11:43:23+02:00</time>
      </trkpt>
      <trkpt lat="43.50075" lon="1.52982">
        <ele>153.7998</ele>
        <time>2020-09-27T11:43:28+02:00</time>
      </trkpt>
      <trkpt lat="43.50076" lon="1.52979">
        <ele>154</ele>
        <time>2020-09-27T11:43:29+02:00</time>
      </trkpt>
      <trkpt lat="43.50079" lon="1.52971">
        <ele>153</ele>
        <time>2020-09-27T11:43:33+02:00</time>
      </trkpt>
      <trkpt lat="43.5008" lon="1.52969">
        <ele>153</ele>
        <time>2020-09-27T11:43:34+02:00</time>
      </trkpt>
      <trkpt lat="43.50084" lon="1.52961">
        <ele>152.40039</ele>
        <time>2020-09-27T11:43:38+02:00</time>
      </trkpt>
      <trkpt lat="43.50085" lon="1.52959">
        <ele>151.7002</ele>
        <time>2020-09-27T11:43:39+02:00</time>
      </trkpt>
      <trkpt lat="43.50089" lon="1.5295">
        <ele>152.10059</ele>
        <time>2020-09-27T11:43:44+02:00</time>
      </trkpt>
      <trkpt lat="43.5009" lon="1.52947">
        <ele>152.10059</ele>
        <time>2020-09-27T11:43:45+02:00</time>
      </trkpt>
      <trkpt lat="43.50094" lon="1.52939">
        <ele>151.7998</ele>
        <time>2020-09-27T11:43:50+02:00</time>
      </trkpt>
      <trkpt lat="43.50095" lon="1.52937">
        <ele>152.2998</ele>
        <time>2020-09-27T11:43:51+02:00</time>
      </trkpt>
      <trkpt lat="43.50099" lon="1.52929">
        <ele>151.60059</ele>
        <time>2020-09-27T11:43:55+02:00</time>
      </trkpt>
      <trkpt lat="43.501" lon="1.52927">
        <ele>151.60059</ele>
        <time>2020-09-27T11:43:56+02:00</time>
      </trkpt>
      <trkpt lat="43.50104" lon="1.52918">
        <ele>151.60059</ele>
        <time>2020-09-27T11:44:01+02:00</time>
      </trkpt>
      <trkpt lat="43.50105" lon="1.52916">
        <ele>151.60059</ele>
        <time>2020-09-27T11:44:02+02:00</time>
      </trkpt>
      <trkpt lat="43.50109" lon="1.52908">
        <ele>151.7998</ele>
        <time>2020-09-27T11:44:07+02:00</time>
      </trkpt>
      <trkpt lat="43.5011" lon="1.52906">
        <ele>151.5</ele>
        <time>2020-09-27T11:44:09+02:00</time>
      </trkpt>
      <trkpt lat="43.50114" lon="1.52899">
        <ele>151.60059</ele>
        <time>2020-09-27T11:44:13+02:00</time>
      </trkpt>
      <trkpt lat="43.50115" lon="1.52897">
        <ele>151.60059</ele>
        <time>2020-09-27T11:44:14+02:00</time>
      </trkpt>
      <trkpt lat="43.5012" lon="1.5289">
        <ele>151.5</ele>
        <time>2020-09-27T11:44:19+02:00</time>
      </trkpt>
      <trkpt lat="43.50121" lon="1.52889">
        <ele>151.5</ele>
        <time>2020-09-27T11:44:21+02:00</time>
      </trkpt>
      <trkpt lat="43.50126" lon="1.52883">
        <ele>151.5</ele>
        <time>2020-09-27T11:44:25+02:00</time>
      </trkpt>
      <trkpt lat="43.50127" lon="1.52881">
        <ele>151.2998</ele>
        <time>2020-09-27T11:44:26+02:00</time>
      </trkpt>
      <trkpt lat="43.50132" lon="1.52876">
        <ele>151.2002</ele>
        <time>2020-09-27T11:44:31+02:00</time>
      </trkpt>
      <trkpt lat="43.50133" lon="1.52875">
        <ele>151.2002</ele>
        <time>2020-09-27T11:44:32+02:00</time>
      </trkpt>
      <trkpt lat="43.50138" lon="1.5287">
        <ele>151.2002</ele>
        <time>2020-09-27T11:44:36+02:00</time>
      </trkpt>
      <trkpt lat="43.5014" lon="1.52869">
        <ele>151.2002</ele>
        <time>2020-09-27T11:44:38+02:00</time>
      </trkpt>
      <trkpt lat="43.50146" lon="1.52867">
        <ele>151.2002</ele>
        <time>2020-09-27T11:44:42+02:00</time>
      </trkpt>
      <trkpt lat="43.50148" lon="1.52867">
        <ele>151.2002</ele>
        <time>2020-09-27T11:44:43+02:00</time>
      </trkpt>
      <trkpt lat="43.50154" lon="1.52867">
        <ele>151.60059</ele>
        <time>2020-09-27T11:44:47+02:00</time>
      </trkpt>
      <trkpt lat="43.50156" lon="1.52867">
        <ele>151.60059</ele>
        <time>2020-09-27T11:44:48+02:00</time>
      </trkpt>
      <trkpt lat="43.50163" lon="1.52868">
        <ele>152.60059</ele>
        <time>2020-09-27T11:44:53+02:00</time>
      </trkpt>
      <trkpt lat="43.50165" lon="1.52869">
        <ele>152.60059</ele>
        <time>2020-09-27T11:44:54+02:00</time>
      </trkpt>
      <trkpt lat="43.50173" lon="1.52871">
        <ele>153</ele>
        <time>2020-09-27T11:44:59+02:00</time>
      </trkpt>
      <trkpt lat="43.50175" lon="1.52871">
        <ele>153</ele>
        <time>2020-09-27T11:45:00+02:00</time>
      </trkpt>
      <trkpt lat="43.50182" lon="1.52873">
        <ele>153.7002</ele>
        <time>2020-09-27T11:45:05+02:00</time>
      </trkpt>
      <trkpt lat="43.50184" lon="1.52873">
        <ele>153.7002</ele>
        <time>2020-09-27T11:45:06+02:00</time>
      </trkpt>
      <trkpt lat="43.50191" lon="1.52873">
        <ele>154.90039</ele>
        <time>2020-09-27T11:45:11+02:00</time>
      </trkpt>
      <trkpt lat="43.50192" lon="1.52873">
        <ele>154.10059</ele>
        <time>2020-09-27T11:45:12+02:00</time>
      </trkpt>
      <trkpt lat="43.50198" lon="1.52872">
        <ele>154.40039</ele>
        <time>2020-09-27T11:45:16+02:00</time>
      </trkpt>
      <trkpt lat="43.502" lon="1.52871">
        <ele>154.40039</ele>
        <time>2020-09-27T11:45:17+02:00</time>
      </trkpt>
      <trkpt lat="43.50206" lon="1.52868">
        <ele>154.7002</ele>
        <time>2020-09-27T11:45:21+02:00</time>
      </trkpt>
      <trkpt lat="43.50207" lon="1.52868">
        <ele>155</ele>
        <time>2020-09-27T11:45:22+02:00</time>
      </trkpt>
      <trkpt lat="43.50213" lon="1.52864">
        <ele>155</ele>
        <time>2020-09-27T11:45:27+02:00</time>
      </trkpt>
      <trkpt lat="43.50214" lon="1.52863">
        <ele>155</ele>
        <time>2020-09-27T11:45:28+02:00</time>
      </trkpt>
      <trkpt lat="43.5022" lon="1.5286">
        <ele>155.5</ele>
        <time>2020-09-27T11:45:33+02:00</time>
      </trkpt>
      <trkpt lat="43.50222" lon="1.52859">
        <ele>155.5</ele>
        <time>2020-09-27T11:45:35+02:00</time>
      </trkpt>
      <trkpt lat="43.50229" lon="1.52856">
        <ele>155.5</ele>
        <time>2020-09-27T11:45:39+02:00</time>
      </trkpt>
      <trkpt lat="43.50231" lon="1.52855">
        <ele>155.7002</ele>
        <time>2020-09-27T11:45:41+02:00</time>
      </trkpt>
      <trkpt lat="43.50237" lon="1.52852">
        <ele>155.7998</ele>
        <time>2020-09-27T11:45:45+02:00</time>
      </trkpt>
      <trkpt lat="43.50238" lon="1.52852">
        <ele>155.7998</ele>
        <time>2020-09-27T11:45:46+02:00</time>
      </trkpt>
      <trkpt lat="43.50243" lon="1.52849">
        <ele>155.7998</ele>
        <time>2020-09-27T11:45:50+02:00</time>
      </trkpt>
      <trkpt lat="43.50245" lon="1.52848">
        <ele>155.7998</ele>
        <time>2020-09-27T11:45:51+02:00</time>
      </trkpt>
      <trkpt lat="43.50252" lon="1.52844">
        <ele>155.40039</ele>
        <time>2020-09-27T11:45:56+02:00</time>
      </trkpt>
      <trkpt lat="43.50253" lon="1.52843">
        <ele>155.40039</ele>
        <time>2020-09-27T11:45:58+02:00</time>
      </trkpt>
      <trkpt lat="43.50259" lon="1.52838">
        <ele>155.2998</ele>
        <time>2020-09-27T11:46:02+02:00</time>
      </trkpt>
      <trkpt lat="43.50261" lon="1.52837">
        <ele>155.2998</ele>
        <time>2020-09-27T11:46:03+02:00</time>
      </trkpt>
      <trkpt lat="43.50266" lon="1.52832">
        <ele>155.5</ele>
        <time>2020-09-27T11:46:08+02:00</time>
      </trkpt>
      <trkpt lat="43.50268" lon="1.52831">
        <ele>155.5</ele>
        <time>2020-09-27T11:46:09+02:00</time>
      </trkpt>
      <trkpt lat="43.50272" lon="1.52823">
        <ele>155.60059</ele>
        <time>2020-09-27T11:46:14+02:00</time>
      </trkpt>
      <trkpt lat="43.50273" lon="1.52821">
        <ele>155.5</ele>
        <time>2020-09-27T11:46:15+02:00</time>
      </trkpt>
      <trkpt lat="43.50277" lon="1.52813">
        <ele>155.5</ele>
        <time>2020-09-27T11:46:20+02:00</time>
      </trkpt>
      <trkpt lat="43.50277" lon="1.52811">
        <ele>155.5</ele>
        <time>2020-09-27T11:46:21+02:00</time>
      </trkpt>
      <trkpt lat="43.50281" lon="1.52802">
        <ele>155.5</ele>
        <time>2020-09-27T11:46:26+02:00</time>
      </trkpt>
      <trkpt lat="43.50282" lon="1.528">
        <ele>155.5</ele>
        <time>2020-09-27T11:46:27+02:00</time>
      </trkpt>
      <trkpt lat="43.50285" lon="1.52793">
        <ele>155.10059</ele>
        <time>2020-09-27T11:46:31+02:00</time>
      </trkpt>
      <trkpt lat="43.50287" lon="1.52791">
        <ele>155.10059</ele>
        <time>2020-09-27T11:46:32+02:00</time>
      </trkpt>
      <trkpt lat="43.50291" lon="1.52786">
        <ele>154.7002</ele>
        <time>2020-09-27T11:46:37+02:00</time>
      </trkpt>
      <trkpt lat="43.50292" lon="1.52784">
        <ele>154.7002</ele>
        <time>2020-09-27T11:46:38+02:00</time>
      </trkpt>
      <trkpt lat="43.50298" lon="1.52779">
        <ele>154.90039</ele>
        <time>2020-09-27T11:46:43+02:00</time>
      </trkpt>
      <trkpt lat="43.50299" lon="1.52778">
        <ele>154.2998</ele>
        <time>2020-09-27T11:46:44+02:00</time>
      </trkpt>
      <trkpt lat="43.50303" lon="1.52773">
        <ele>154.5</ele>
        <time>2020-09-27T11:46:49+02:00</time>
      </trkpt>
      <trkpt lat="43.50304" lon="1.52772">
        <ele>154.5</ele>
        <time>2020-09-27T11:46:50+02:00</time>
      </trkpt>
      <trkpt lat="43.50308" lon="1.52767">
        <ele>154.10059</ele>
        <time>2020-09-27T11:46:54+02:00</time>
      </trkpt>
      <trkpt lat="43.50309" lon="1.52765">
        <ele>154.10059</ele>
        <time>2020-09-27T11:46:56+02:00</time>
      </trkpt>
      <trkpt lat="43.50313" lon="1.52758">
        <ele>153.60059</ele>
        <time>2020-09-27T11:47:00+02:00</time>
      </trkpt>
      <trkpt lat="43.50314" lon="1.52757">
        <ele>153.60059</ele>
        <time>2020-09-27T11:47:01+02:00</time>
      </trkpt>
      <trkpt lat="43.50317" lon="1.5275">
        <ele>152.7002</ele>
        <time>2020-09-27T11:47:06+02:00</time>
      </trkpt>
      <trkpt lat="43.50318" lon="1.52748">
        <ele>153.2998</ele>
        <time>2020-09-27T11:47:07+02:00</time>
      </trkpt>
      <trkpt lat="43.50322" lon="1.52742">
        <ele>152.5</ele>
        <time>2020-09-27T11:47:11+02:00</time>
      </trkpt>
      <trkpt lat="43.50323" lon="1.5274">
        <ele>152.5</ele>
        <time>2020-09-27T11:47:12+02:00</time>
      </trkpt>
      <trkpt lat="43.50327" lon="1.52733">
        <ele>152.7998</ele>
        <time>2020-09-27T11:47:17+02:00</time>
      </trkpt>
      <trkpt lat="43.50329" lon="1.52731">
        <ele>152.7998</ele>
        <time>2020-09-27T11:47:18+02:00</time>
      </trkpt>
      <trkpt lat="43.50333" lon="1.52722">
        <ele>153.2002</ele>
        <time>2020-09-27T11:47:23+02:00</time>
      </trkpt>
      <trkpt lat="43.50334" lon="1.52719">
        <ele>153.2002</ele>
        <time>2020-09-27T11:47:24+02:00</time>
      </trkpt>
      <trkpt lat="43.50339" lon="1.52706">
        <ele>152.5</ele>
        <time>2020-09-27T11:47:29+02:00</time>
      </trkpt>
      <trkpt lat="43.5034" lon="1.52703">
        <ele>152.5</ele>
        <time>2020-09-27T11:47:31+02:00</time>
      </trkpt>
      <trkpt lat="43.50343" lon="1.5269">
        <ele>152.40039</ele>
        <time>2020-09-27T11:47:35+02:00</time>
      </trkpt>
      <trkpt lat="43.50344" lon="1.52687">
        <ele>152.40039</ele>
        <time>2020-09-27T11:47:37+02:00</time>
      </trkpt>
      <trkpt lat="43.50347" lon="1.52674">
        <ele>151.10059</ele>
        <time>2020-09-27T11:47:41+02:00</time>
      </trkpt>
      <trkpt lat="43.50347" lon="1.52671">
        <ele>151.10059</ele>
        <time>2020-09-27T11:47:42+02:00</time>
      </trkpt>
      <trkpt lat="43.5035" lon="1.52659">
        <ele>151.40039</ele>
        <time>2020-09-27T11:47:46+02:00</time>
      </trkpt>
      <trkpt lat="43.50351" lon="1.52656">
        <ele>151.90039</ele>
        <time>2020-09-27T11:47:48+02:00</time>
      </trkpt>
      <trkpt lat="43.50354" lon="1.52642">
        <ele>152.7002</ele>
        <time>2020-09-27T11:47:53+02:00</time>
      </trkpt>
      <trkpt lat="43.50355" lon="1.52639">
        <ele>153.2998</ele>
        <time>2020-09-27T11:47:54+02:00</time>
      </trkpt>
      <trkpt lat="43.50358" lon="1.52625">
        <ele>152.60059</ele>
        <time>2020-09-27T11:47:59+02:00</time>
      </trkpt>
      <trkpt lat="43.50359" lon="1.52622">
        <ele>152.60059</ele>
        <time>2020-09-27T11:48:00+02:00</time>
      </trkpt>
      <trkpt lat="43.50362" lon="1.5261">
        <ele>151.7002</ele>
        <time>2020-09-27T11:48:05+02:00</time>
      </trkpt>
      <trkpt lat="43.50362" lon="1.52608">
        <ele>151.7002</ele>
        <time>2020-09-27T11:48:06+02:00</time>
      </trkpt>
      <trkpt lat="43.50365" lon="1.52598">
        <ele>151.60059</ele>
        <time>2020-09-27T11:48:10+02:00</time>
      </trkpt>
      <trkpt lat="43.50366" lon="1.52596">
        <ele>151.60059</ele>
        <time>2020-09-27T11:48:12+02:00</time>
      </trkpt>
      <trkpt lat="43.50368" lon="1.52586">
        <ele>151.40039</ele>
        <time>2020-09-27T11:48:17+02:00</time>
      </trkpt>
      <trkpt lat="43.50369" lon="1.52584">
        <ele>151.40039</ele>
        <time>2020-09-27T11:48:18+02:00</time>
      </trkpt>
      <trkpt lat="43.50372" lon="1.52575">
        <ele>151.40039</ele>
        <time>2020-09-27T11:48:23+02:00</time>
      </trkpt>
      <trkpt lat="43.50373" lon="1.52573">
        <ele>151.60059</ele>
        <time>2020-09-27T11:48:24+02:00</time>
      </trkpt>
      <trkpt lat="43.50375" lon="1.52563">
        <ele>152.40039</ele>
        <time>2020-09-27T11:48:29+02:00</time>
      </trkpt>
      <trkpt lat="43.50376" lon="1.52561">
        <ele>152.40039</ele>
        <time>2020-09-27T11:48:30+02:00</time>
      </trkpt>
      <trkpt lat="43.50379" lon="1.52551">
        <ele>152.2998</ele>
        <time>2020-09-27T11:48:35+02:00</time>
      </trkpt>
      <trkpt lat="43.50379" lon="1.52548">
        <ele>152.2998</ele>
        <time>2020-09-27T11:48:36+02:00</time>
      </trkpt>
      <trkpt lat="43.50382" lon="1.52539">
        <ele>151.7998</ele>
        <time>2020-09-27T11:48:40+02:00</time>
      </trkpt>
      <trkpt lat="43.50383" lon="1.52537">
        <ele>151.5</ele>
        <time>2020-09-27T11:48:41+02:00</time>
      </trkpt>
      <trkpt lat="43.50386" lon="1.52528">
        <ele>151.40039</ele>
        <time>2020-09-27T11:48:46+02:00</time>
      </trkpt>
      <trkpt lat="43.50387" lon="1.52526">
        <ele>151.7002</ele>
        <time>2020-09-27T11:48:47+02:00</time>
      </trkpt>
      <trkpt lat="43.5039" lon="1.52519">
        <ele>151.7998</ele>
        <time>2020-09-27T11:48:51+02:00</time>
      </trkpt>
      <trkpt lat="43.5039" lon="1.52517">
        <ele>151.7998</ele>
        <time>2020-09-27T11:48:52+02:00</time>
      </trkpt>
      <trkpt lat="43.50393" lon="1.52508">
        <ele>152.5</ele>
        <time>2020-09-27T11:48:57+02:00</time>
      </trkpt>
      <trkpt lat="43.50394" lon="1.52505">
        <ele>152.5</ele>
        <time>2020-09-27T11:48:58+02:00</time>
      </trkpt>
      <trkpt lat="43.50395" lon="1.52494">
        <ele>152.5</ele>
        <time>2020-09-27T11:49:03+02:00</time>
      </trkpt>
      <trkpt lat="43.50395" lon="1.52491">
        <ele>152.5</ele>
        <time>2020-09-27T11:49:04+02:00</time>
      </trkpt>
      <trkpt lat="43.50394" lon="1.5248">
        <ele>152.60059</ele>
        <time>2020-09-27T11:49:08+02:00</time>
      </trkpt>
      <trkpt lat="43.50394" lon="1.52478">
        <ele>152.40039</ele>
        <time>2020-09-27T11:49:10+02:00</time>
      </trkpt>
      <trkpt lat="43.50394" lon="1.52467">
        <ele>152.2002</ele>
        <time>2020-09-27T11:49:14+02:00</time>
      </trkpt>
      <trkpt lat="43.50394" lon="1.52465">
        <ele>152.2002</ele>
        <time>2020-09-27T11:49:15+02:00</time>
      </trkpt>
      <trkpt lat="43.50395" lon="1.52455">
        <ele>151.7002</ele>
        <time>2020-09-27T11:49:20+02:00</time>
      </trkpt>
      <trkpt lat="43.50396" lon="1.52452">
        <ele>151.2998</ele>
        <time>2020-09-27T11:49:21+02:00</time>
      </trkpt>
      <trkpt lat="43.50398" lon="1.52444">
        <ele>151.10059</ele>
        <time>2020-09-27T11:49:26+02:00</time>
      </trkpt>
      <trkpt lat="43.50399" lon="1.52441">
        <ele>151.2998</ele>
        <time>2020-09-27T11:49:28+02:00</time>
      </trkpt>
      <trkpt lat="43.50402" lon="1.52434">
        <ele>151.2002</ele>
        <time>2020-09-27T11:49:32+02:00</time>
      </trkpt>
      <trkpt lat="43.50403" lon="1.52432">
        <ele>151.2002</ele>
        <time>2020-09-27T11:49:33+02:00</time>
      </trkpt>
      <trkpt lat="43.50405" lon="1.52425">
        <ele>151.60059</ele>
        <time>2020-09-27T11:49:38+02:00</time>
      </trkpt>
      <trkpt lat="43.50406" lon="1.52424">
        <ele>151.60059</ele>
        <time>2020-09-27T11:49:39+02:00</time>
      </trkpt>
      <trkpt lat="43.50409" lon="1.52417">
        <ele>151.7998</ele>
        <time>2020-09-27T11:49:43+02:00</time>
      </trkpt>
      <trkpt lat="43.50409" lon="1.52415">
        <ele>151.7998</ele>
        <time>2020-09-27T11:49:44+02:00</time>
      </trkpt>
      <trkpt lat="43.5041" lon="1.52408">
        <ele>152</ele>
        <time>2020-09-27T11:49:49+02:00</time>
      </trkpt>
      <trkpt lat="43.50411" lon="1.52406">
        <ele>152</ele>
        <time>2020-09-27T11:49:50+02:00</time>
      </trkpt>
      <trkpt lat="43.5041" lon="1.52398">
        <ele>152.10059</ele>
        <time>2020-09-27T11:49:55+02:00</time>
      </trkpt>
      <trkpt lat="43.5041" lon="1.52395">
        <ele>152.10059</ele>
        <time>2020-09-27T11:49:56+02:00</time>
      </trkpt>
      <trkpt lat="43.50407" lon="1.52387">
        <ele>152.10059</ele>
        <time>2020-09-27T11:50:00+02:00</time>
      </trkpt>
      <trkpt lat="43.50407" lon="1.52384">
        <ele>152.10059</ele>
        <time>2020-09-27T11:50:01+02:00</time>
      </trkpt>
      <trkpt lat="43.50404" lon="1.52376">
        <ele>152.60059</ele>
        <time>2020-09-27T11:50:06+02:00</time>
      </trkpt>
      <trkpt lat="43.50404" lon="1.52373">
        <ele>152.5</ele>
        <time>2020-09-27T11:50:07+02:00</time>
      </trkpt>
      <trkpt lat="43.50402" lon="1.52365">
        <ele>152.2998</ele>
        <time>2020-09-27T11:50:11+02:00</time>
      </trkpt>
      <trkpt lat="43.50401" lon="1.52363">
        <ele>152.2998</ele>
        <time>2020-09-27T11:50:12+02:00</time>
      </trkpt>
      <trkpt lat="43.50399" lon="1.52353">
        <ele>152.5</ele>
        <time>2020-09-27T11:50:17+02:00</time>
      </trkpt>
      <trkpt lat="43.50398" lon="1.52351">
        <ele>152.5</ele>
        <time>2020-09-27T11:50:18+02:00</time>
      </trkpt>
      <trkpt lat="43.50397" lon="1.52342">
        <ele>152.40039</ele>
        <time>2020-09-27T11:50:23+02:00</time>
      </trkpt>
      <trkpt lat="43.50397" lon="1.5234">
        <ele>152.2998</ele>
        <time>2020-09-27T11:50:24+02:00</time>
      </trkpt>
      <trkpt lat="43.50397" lon="1.52331">
        <ele>152.2002</ele>
        <time>2020-09-27T11:50:29+02:00</time>
      </trkpt>
      <trkpt lat="43.50397" lon="1.52328">
        <ele>152.2002</ele>
        <time>2020-09-27T11:50:30+02:00</time>
      </trkpt>
      <trkpt lat="43.50398" lon="1.5232">
        <ele>152.2002</ele>
        <time>2020-09-27T11:50:34+02:00</time>
      </trkpt>
      <trkpt lat="43.50398" lon="1.52317">
        <ele>152.2002</ele>
        <time>2020-09-27T11:50:35+02:00</time>
      </trkpt>
      <trkpt lat="43.50399" lon="1.52308">
        <ele>152.10059</ele>
        <time>2020-09-27T11:50:40+02:00</time>
      </trkpt>
      <trkpt lat="43.50399" lon="1.52305">
        <ele>152</ele>
        <time>2020-09-27T11:50:42+02:00</time>
      </trkpt>
      <trkpt lat="43.504" lon="1.52296">
        <ele>151.7002</ele>
        <time>2020-09-27T11:50:46+02:00</time>
      </trkpt>
      <trkpt lat="43.50401" lon="1.52294">
        <ele>151.7002</ele>
        <time>2020-09-27T11:50:47+02:00</time>
      </trkpt>
      <trkpt lat="43.50403" lon="1.52286">
        <ele>151.7002</ele>
        <time>2020-09-27T11:50:52+02:00</time>
      </trkpt>
      <trkpt lat="43.50404" lon="1.52285">
        <ele>151.7002</ele>
        <time>2020-09-27T11:50:53+02:00</time>
      </trkpt>
      <trkpt lat="43.50407" lon="1.52278">
        <ele>151.40039</ele>
        <time>2020-09-27T11:50:58+02:00</time>
      </trkpt>
      <trkpt lat="43.50408" lon="1.52277">
        <ele>151.40039</ele>
        <time>2020-09-27T11:50:59+02:00</time>
      </trkpt>
      <trkpt lat="43.50413" lon="1.5227">
        <ele>151.2998</ele>
        <time>2020-09-27T11:51:04+02:00</time>
      </trkpt>
      <trkpt lat="43.50414" lon="1.52269">
        <ele>151.2998</ele>
        <time>2020-09-27T11:51:05+02:00</time>
      </trkpt>
      <trkpt lat="43.50418" lon="1.52263">
        <ele>151.2998</ele>
        <time>2020-09-27T11:51:09+02:00</time>
      </trkpt>
      <trkpt lat="43.50418" lon="1.52261">
        <ele>151.5</ele>
        <time>2020-09-27T11:51:11+02:00</time>
      </trkpt>
      <trkpt lat="43.5042" lon="1.52254">
        <ele>151.5</ele>
        <time>2020-09-27T11:51:15+02:00</time>
      </trkpt>
      <trkpt lat="43.5042" lon="1.52253">
        <ele>151.5</ele>
        <time>2020-09-27T11:51:17+02:00</time>
      </trkpt>
      <trkpt lat="43.50422" lon="1.52245">
        <ele>151.60059</ele>
        <time>2020-09-27T11:51:21+02:00</time>
      </trkpt>
      <trkpt lat="43.50422" lon="1.52244">
        <ele>151.60059</ele>
        <time>2020-09-27T11:51:22+02:00</time>
      </trkpt>
      <trkpt lat="43.50423" lon="1.52236">
        <ele>151.60059</ele>
        <time>2020-09-27T11:51:28+02:00</time>
      </trkpt>
      <trkpt lat="43.50424" lon="1.52234">
        <ele>151.60059</ele>
        <time>2020-09-27T11:51:29+02:00</time>
      </trkpt>
      <trkpt lat="43.50424" lon="1.52225">
        <ele>151.5</ele>
        <time>2020-09-27T11:51:34+02:00</time>
      </trkpt>
      <trkpt lat="43.50425" lon="1.52224">
        <ele>151.5</ele>
        <time>2020-09-27T11:51:35+02:00</time>
      </trkpt>
      <trkpt lat="43.50427" lon="1.52218">
        <ele>151.40039</ele>
        <time>2020-09-27T11:51:39+02:00</time>
      </trkpt>
      <trkpt lat="43.50427" lon="1.52216">
        <ele>151.40039</ele>
        <time>2020-09-27T11:51:40+02:00</time>
      </trkpt>
      <trkpt lat="43.5043" lon="1.52211">
        <ele>151.40039</ele>
        <time>2020-09-27T11:51:45+02:00</time>
      </trkpt>
      <trkpt lat="43.5043" lon="1.52209">
        <ele>151.2998</ele>
        <time>2020-09-27T11:51:46+02:00</time>
      </trkpt>
      <trkpt lat="43.50431" lon="1.52201">
        <ele>151.2998</ele>
        <time>2020-09-27T11:51:51+02:00</time>
      </trkpt>
      <trkpt lat="43.50432" lon="1.52198">
        <ele>151.2998</ele>
        <time>2020-09-27T11:51:52+02:00</time>
      </trkpt>
      <trkpt lat="43.50433" lon="1.52188">
        <ele>151.2998</ele>
        <time>2020-09-27T11:51:57+02:00</time>
      </trkpt>
      <trkpt lat="43.50434" lon="1.52186">
        <ele>151.2998</ele>
        <time>2020-09-27T11:51:58+02:00</time>
      </trkpt>
      <trkpt lat="43.50436" lon="1.52177">
        <ele>151.2002</ele>
        <time>2020-09-27T11:52:03+02:00</time>
      </trkpt>
      <trkpt lat="43.50436" lon="1.52175">
        <ele>151.2998</ele>
        <time>2020-09-27T11:52:04+02:00</time>
      </trkpt>
      <trkpt lat="43.50439" lon="1.52169">
        <ele>151.2998</ele>
        <time>2020-09-27T11:52:08+02:00</time>
      </trkpt>
      <trkpt lat="43.5044" lon="1.52167">
        <ele>151.2998</ele>
        <time>2020-09-27T11:52:09+02:00</time>
      </trkpt>
      <trkpt lat="43.50443" lon="1.52161">
        <ele>151.40039</ele>
        <time>2020-09-27T11:52:14+02:00</time>
      </trkpt>
      <trkpt lat="43.50444" lon="1.52159">
        <ele>151.2998</ele>
        <time>2020-09-27T11:52:15+02:00</time>
      </trkpt>
      <trkpt lat="43.50448" lon="1.52153">
        <ele>151.2998</ele>
        <time>2020-09-27T11:52:20+02:00</time>
      </trkpt>
      <trkpt lat="43.50449" lon="1.52152">
        <ele>151.5</ele>
        <time>2020-09-27T11:52:21+02:00</time>
      </trkpt>
      <trkpt lat="43.50453" lon="1.52148">
        <ele>151.40039</ele>
        <time>2020-09-27T11:52:26+02:00</time>
      </trkpt>
      <trkpt lat="43.50454" lon="1.52146">
        <ele>151.40039</ele>
        <time>2020-09-27T11:52:27+02:00</time>
      </trkpt>
      <trkpt lat="43.50459" lon="1.52142">
        <ele>151.5</ele>
        <time>2020-09-27T11:52:32+02:00</time>
      </trkpt>
      <trkpt lat="43.5046" lon="1.52141">
        <ele>151.5</ele>
        <time>2020-09-27T11:52:33+02:00</time>
      </trkpt>
      <trkpt lat="43.50464" lon="1.52137">
        <ele>151.60059</ele>
        <time>2020-09-27T11:52:37+02:00</time>
      </trkpt>
      <trkpt lat="43.50466" lon="1.52136">
        <ele>151.60059</ele>
        <time>2020-09-27T11:52:39+02:00</time>
      </trkpt>
      <trkpt lat="43.50472" lon="1.52132">
        <ele>151.5</ele>
        <time>2020-09-27T11:52:44+02:00</time>
      </trkpt>
      <trkpt lat="43.50473" lon="1.52132">
        <ele>151.5</ele>
        <time>2020-09-27T11:52:45+02:00</time>
      </trkpt>
      <trkpt lat="43.50479" lon="1.5213">
        <ele>151.7002</ele>
        <time>2020-09-27T11:52:49+02:00</time>
      </trkpt>
      <trkpt lat="43.5048" lon="1.52129">
        <ele>151.7998</ele>
        <time>2020-09-27T11:52:50+02:00</time>
      </trkpt>
      <trkpt lat="43.50487" lon="1.52127">
        <ele>151.90039</ele>
        <time>2020-09-27T11:52:57+02:00</time>
      </trkpt>
      <trkpt lat="43.50488" lon="1.52127">
        <ele>151.90039</ele>
        <time>2020-09-27T11:52:58+02:00</time>
      </trkpt>
      <trkpt lat="43.50494" lon="1.52125">
        <ele>152</ele>
        <time>2020-09-27T11:53:02+02:00</time>
      </trkpt>
      <trkpt lat="43.50496" lon="1.52124">
        <ele>152</ele>
        <time>2020-09-27T11:53:03+02:00</time>
      </trkpt>
      <trkpt lat="43.50501" lon="1.52121">
        <ele>152.10059</ele>
        <time>2020-09-27T11:53:07+02:00</time>
      </trkpt>
      <trkpt lat="43.50502" lon="1.5212">
        <ele>152.10059</ele>
        <time>2020-09-27T11:53:08+02:00</time>
      </trkpt>
      <trkpt lat="43.50506" lon="1.52117">
        <ele>152</ele>
        <time>2020-09-27T11:53:13+02:00</time>
      </trkpt>
      <trkpt lat="43.50508" lon="1.52116">
        <ele>152</ele>
        <time>2020-09-27T11:53:14+02:00</time>
      </trkpt>
      <trkpt lat="43.50512" lon="1.52112">
        <ele>152.10059</ele>
        <time>2020-09-27T11:53:19+02:00</time>
      </trkpt>
      <trkpt lat="43.50514" lon="1.52113">
        <ele>152.10059</ele>
        <time>2020-09-27T11:53:20+02:00</time>
      </trkpt>
      <trkpt lat="43.50521" lon="1.52117">
        <ele>152.2002</ele>
        <time>2020-09-27T11:53:25+02:00</time>
      </trkpt>
      <trkpt lat="43.50523" lon="1.52118">
        <ele>152.2002</ele>
        <time>2020-09-27T11:53:26+02:00</time>
      </trkpt>
      <trkpt lat="43.50528" lon="1.5212">
        <ele>152.2998</ele>
        <time>2020-09-27T11:53:30+02:00</time>
      </trkpt>
      <trkpt lat="43.5053" lon="1.5212">
        <ele>152.2998</ele>
        <time>2020-09-27T11:53:32+02:00</time>
      </trkpt>
      <trkpt lat="43.50536" lon="1.52119">
        <ele>152.2998</ele>
        <time>2020-09-27T11:53:36+02:00</time>
      </trkpt>
      <trkpt lat="43.50537" lon="1.52118">
        <ele>152.2998</ele>
        <time>2020-09-27T11:53:38+02:00</time>
      </trkpt>
      <trkpt lat="43.50541" lon="1.52113">
        <ele>152.40039</ele>
        <time>2020-09-27T11:53:42+02:00</time>
      </trkpt>
      <trkpt lat="43.50543" lon="1.52112">
        <ele>152.5</ele>
        <time>2020-09-27T11:53:43+02:00</time>
      </trkpt>
      <trkpt lat="43.50548" lon="1.52108">
        <ele>152.5</ele>
        <time>2020-09-27T11:53:49+02:00</time>
      </trkpt>
      <trkpt lat="43.50549" lon="1.52108">
        <ele>152.7002</ele>
        <time>2020-09-27T11:53:50+02:00</time>
      </trkpt>
      <trkpt lat="43.50555" lon="1.52103">
        <ele>152.7002</ele>
        <time>2020-09-27T11:53:55+02:00</time>
      </trkpt>
      <trkpt lat="43.50556" lon="1.52102">
        <ele>152.7002</ele>
        <time>2020-09-27T11:53:56+02:00</time>
      </trkpt>
      <trkpt lat="43.50562" lon="1.52099">
        <ele>152.7002</ele>
        <time>2020-09-27T11:54:00+02:00</time>
      </trkpt>
      <trkpt lat="43.50563" lon="1.52098">
        <ele>152.7002</ele>
        <time>2020-09-27T11:54:01+02:00</time>
      </trkpt>
      <trkpt lat="43.50569" lon="1.52099">
        <ele>152.7002</ele>
        <time>2020-09-27T11:54:06+02:00</time>
      </trkpt>
      <trkpt lat="43.50571" lon="1.52099">
        <ele>152.7002</ele>
        <time>2020-09-27T11:54:07+02:00</time>
      </trkpt>
      <trkpt lat="43.50579" lon="1.52103">
        <ele>152.7002</ele>
        <time>2020-09-27T11:54:12+02:00</time>
      </trkpt>
      <trkpt lat="43.50581" lon="1.52104">
        <ele>152.60059</ele>
        <time>2020-09-27T11:54:13+02:00</time>
      </trkpt>
      <trkpt lat="43.50587" lon="1.52109">
        <ele>152.2002</ele>
        <time>2020-09-27T11:54:19+02:00</time>
      </trkpt>
      <trkpt lat="43.50589" lon="1.52111">
        <ele>152.2002</ele>
        <time>2020-09-27T11:54:20+02:00</time>
      </trkpt>
      <trkpt lat="43.50596" lon="1.52116">
        <ele>152</ele>
        <time>2020-09-27T11:54:25+02:00</time>
      </trkpt>
      <trkpt lat="43.50598" lon="1.52117">
        <ele>152</ele>
        <time>2020-09-27T11:54:26+02:00</time>
      </trkpt>
      <trkpt lat="43.50605" lon="1.52121">
        <ele>151</ele>
        <time>2020-09-27T11:54:31+02:00</time>
      </trkpt>
      <trkpt lat="43.50607" lon="1.52122">
        <ele>151</ele>
        <time>2020-09-27T11:54:32+02:00</time>
      </trkpt>
      <trkpt lat="43.50613" lon="1.52124">
        <ele>151</ele>
        <time>2020-09-27T11:54:36+02:00</time>
      </trkpt>
      <trkpt lat="43.50615" lon="1.52125">
        <ele>151</ele>
        <time>2020-09-27T11:54:37+02:00</time>
      </trkpt>
      <trkpt lat="43.5062" lon="1.52126">
        <ele>150.2998</ele>
        <time>2020-09-27T11:54:42+02:00</time>
      </trkpt>
      <trkpt lat="43.50622" lon="1.52127">
        <ele>150.2998</ele>
        <time>2020-09-27T11:54:43+02:00</time>
      </trkpt>
      <trkpt lat="43.50627" lon="1.52127">
        <ele>150.2998</ele>
        <time>2020-09-27T11:54:47+02:00</time>
      </trkpt>
      <trkpt lat="43.50628" lon="1.52127">
        <ele>150.2998</ele>
        <time>2020-09-27T11:54:49+02:00</time>
      </trkpt>
      <trkpt lat="43.50633" lon="1.52127">
        <ele>150.2998</ele>
        <time>2020-09-27T11:54:53+02:00</time>
      </trkpt>
      <trkpt lat="43.50634" lon="1.52127">
        <ele>150.2998</ele>
        <time>2020-09-27T11:54:54+02:00</time>
      </trkpt>
      <trkpt lat="43.50639" lon="1.52124">
        <ele>151</ele>
        <time>2020-09-27T11:55:00+02:00</time>
      </trkpt>
      <trkpt lat="43.50641" lon="1.52123">
        <ele>151</ele>
        <time>2020-09-27T11:55:01+02:00</time>
      </trkpt>
      <trkpt lat="43.50646" lon="1.52119">
        <ele>151.10059</ele>
        <time>2020-09-27T11:55:06+02:00</time>
      </trkpt>
      <trkpt lat="43.50647" lon="1.52118">
        <ele>151.90039</ele>
        <time>2020-09-27T11:55:07+02:00</time>
      </trkpt>
      <trkpt lat="43.50652" lon="1.52113">
        <ele>151.90039</ele>
        <time>2020-09-27T11:55:12+02:00</time>
      </trkpt>
      <trkpt lat="43.50653" lon="1.52112">
        <ele>151.90039</ele>
        <time>2020-09-27T11:55:13+02:00</time>
      </trkpt>
      <trkpt lat="43.50658" lon="1.52108">
        <ele>152.7002</ele>
        <time>2020-09-27T11:55:18+02:00</time>
      </trkpt>
      <trkpt lat="43.50659" lon="1.52107">
        <ele>152.7002</ele>
        <time>2020-09-27T11:55:19+02:00</time>
      </trkpt>
      <trkpt lat="43.50663" lon="1.52103">
        <ele>152.7002</ele>
        <time>2020-09-27T11:55:23+02:00</time>
      </trkpt>
      <trkpt lat="43.50665" lon="1.52102">
        <ele>152.7002</ele>
        <time>2020-09-27T11:55:24+02:00</time>
      </trkpt>
      <trkpt lat="43.50669" lon="1.52097">
        <ele>153.2002</ele>
        <time>2020-09-27T11:55:29+02:00</time>
      </trkpt>
      <trkpt lat="43.5067" lon="1.52096">
        <ele>153.2002</ele>
        <time>2020-09-27T11:55:30+02:00</time>
      </trkpt>
      <trkpt lat="43.50675" lon="1.52091">
        <ele>153.40039</ele>
        <time>2020-09-27T11:55:34+02:00</time>
      </trkpt>
      <trkpt lat="43.50676" lon="1.52089">
        <ele>153.40039</ele>
        <time>2020-09-27T11:55:35+02:00</time>
      </trkpt>
      <trkpt lat="43.5068" lon="1.52085">
        <ele>153.2002</ele>
        <time>2020-09-27T11:55:39+02:00</time>
      </trkpt>
      <trkpt lat="43.50681" lon="1.52083">
        <ele>153.2998</ele>
        <time>2020-09-27T11:55:40+02:00</time>
      </trkpt>
      <trkpt lat="43.50685" lon="1.52078">
        <ele>153.2998</ele>
        <time>2020-09-27T11:55:45+02:00</time>
      </trkpt>
      <trkpt lat="43.50686" lon="1.52077">
        <ele>153.2002</ele>
        <time>2020-09-27T11:55:46+02:00</time>
      </trkpt>
      <trkpt lat="43.5069" lon="1.52072">
        <ele>152.90039</ele>
        <time>2020-09-27T11:55:50+02:00</time>
      </trkpt>
      <trkpt lat="43.50691" lon="1.5207">
        <ele>152.90039</ele>
        <time>2020-09-27T11:55:52+02:00</time>
      </trkpt>
      <trkpt lat="43.50695" lon="1.52064">
        <ele>152.60059</ele>
        <time>2020-09-27T11:55:57+02:00</time>
      </trkpt>
      <trkpt lat="43.50696" lon="1.52063">
        <ele>152.60059</ele>
        <time>2020-09-27T11:55:58+02:00</time>
      </trkpt>
      <trkpt lat="43.507" lon="1.52057">
        <ele>152.5</ele>
        <time>2020-09-27T11:56:02+02:00</time>
      </trkpt>
      <trkpt lat="43.50701" lon="1.52056">
        <ele>152.5</ele>
        <time>2020-09-27T11:56:04+02:00</time>
      </trkpt>
      <trkpt lat="43.50705" lon="1.52051">
        <ele>152.60059</ele>
        <time>2020-09-27T11:56:08+02:00</time>
      </trkpt>
      <trkpt lat="43.50706" lon="1.52049">
        <ele>152.60059</ele>
        <time>2020-09-27T11:56:09+02:00</time>
      </trkpt>
      <trkpt lat="43.5071" lon="1.52043">
        <ele>152.2002</ele>
        <time>2020-09-27T11:56:14+02:00</time>
      </trkpt>
      <trkpt lat="43.50711" lon="1.52041">
        <ele>152.40039</ele>
        <time>2020-09-27T11:56:15+02:00</time>
      </trkpt>
      <trkpt lat="43.50715" lon="1.52035">
        <ele>151.90039</ele>
        <time>2020-09-27T11:56:20+02:00</time>
      </trkpt>
      <trkpt lat="43.50717" lon="1.52034">
        <ele>152.2998</ele>
        <time>2020-09-27T11:56:21+02:00</time>
      </trkpt>
      <trkpt lat="43.50721" lon="1.52027">
        <ele>152</ele>
        <time>2020-09-27T11:56:25+02:00</time>
      </trkpt>
      <trkpt lat="43.50722" lon="1.52026">
        <ele>152</ele>
        <time>2020-09-27T11:56:26+02:00</time>
      </trkpt>
      <trkpt lat="43.50726" lon="1.52019">
        <ele>152.5</ele>
        <time>2020-09-27T11:56:32+02:00</time>
      </trkpt>
      <trkpt lat="43.50728" lon="1.52018">
        <ele>152.5</ele>
        <time>2020-09-27T11:56:33+02:00</time>
      </trkpt>
      <trkpt lat="43.50732" lon="1.52012">
        <ele>152.40039</ele>
        <time>2020-09-27T11:56:38+02:00</time>
      </trkpt>
      <trkpt lat="43.50733" lon="1.52011">
        <ele>152.40039</ele>
        <time>2020-09-27T11:56:39+02:00</time>
      </trkpt>
      <trkpt lat="43.50738" lon="1.52005">
        <ele>151.7002</ele>
        <time>2020-09-27T11:56:44+02:00</time>
      </trkpt>
      <trkpt lat="43.50739" lon="1.52004">
        <ele>151.7002</ele>
        <time>2020-09-27T11:56:45+02:00</time>
      </trkpt>
      <trkpt lat="43.50743" lon="1.51999">
        <ele>151.7998</ele>
        <time>2020-09-27T11:56:50+02:00</time>
      </trkpt>
      <trkpt lat="43.50744" lon="1.51998">
        <ele>151.7998</ele>
        <time>2020-09-27T11:56:51+02:00</time>
      </trkpt>
      <trkpt lat="43.50749" lon="1.51994">
        <ele>151.40039</ele>
        <time>2020-09-27T11:56:55+02:00</time>
      </trkpt>
      <trkpt lat="43.5075" lon="1.51993">
        <ele>151.40039</ele>
        <time>2020-09-27T11:56:56+02:00</time>
      </trkpt>
      <trkpt lat="43.50754" lon="1.51989">
        <ele>151.60059</ele>
        <time>2020-09-27T11:57:00+02:00</time>
      </trkpt>
      <trkpt lat="43.50755" lon="1.51987">
        <ele>151.60059</ele>
        <time>2020-09-27T11:57:02+02:00</time>
      </trkpt>
      <trkpt lat="43.50761" lon="1.51983">
        <ele>152.10059</ele>
        <time>2020-09-27T11:57:07+02:00</time>
      </trkpt>
      <trkpt lat="43.50763" lon="1.51982">
        <ele>152.10059</ele>
        <time>2020-09-27T11:57:08+02:00</time>
      </trkpt>
      <trkpt lat="43.50768" lon="1.51977">
        <ele>152.40039</ele>
        <time>2020-09-27T11:57:13+02:00</time>
      </trkpt>
      <trkpt lat="43.50769" lon="1.51976">
        <ele>152.40039</ele>
        <time>2020-09-27T11:57:14+02:00</time>
      </trkpt>
      <trkpt lat="43.50774" lon="1.51972">
        <ele>151.90039</ele>
        <time>2020-09-27T11:57:18+02:00</time>
      </trkpt>
      <trkpt lat="43.50775" lon="1.5197">
        <ele>151.90039</ele>
        <time>2020-09-27T11:57:20+02:00</time>
      </trkpt>
      <trkpt lat="43.5078" lon="1.51965">
        <ele>152</ele>
        <time>2020-09-27T11:57:25+02:00</time>
      </trkpt>
      <trkpt lat="43.50781" lon="1.51964">
        <ele>152</ele>
        <time>2020-09-27T11:57:26+02:00</time>
      </trkpt>
      <trkpt lat="43.50785" lon="1.51958">
        <ele>151.5</ele>
        <time>2020-09-27T11:57:31+02:00</time>
      </trkpt>
      <trkpt lat="43.50786" lon="1.51956">
        <ele>151.5</ele>
        <time>2020-09-27T11:57:32+02:00</time>
      </trkpt>
      <trkpt lat="43.50791" lon="1.51949">
        <ele>151.10059</ele>
        <time>2020-09-27T11:57:37+02:00</time>
      </trkpt>
      <trkpt lat="43.50792" lon="1.51947">
        <ele>151.2998</ele>
        <time>2020-09-27T11:57:38+02:00</time>
      </trkpt>
      <trkpt lat="43.50796" lon="1.5194">
        <ele>151.10059</ele>
        <time>2020-09-27T11:57:42+02:00</time>
      </trkpt>
      <trkpt lat="43.50797" lon="1.51938">
        <ele>151.10059</ele>
        <time>2020-09-27T11:57:44+02:00</time>
      </trkpt>
      <trkpt lat="43.50802" lon="1.5193">
        <ele>151.2002</ele>
        <time>2020-09-27T11:57:49+02:00</time>
      </trkpt>
      <trkpt lat="43.50803" lon="1.51928">
        <ele>150.90039</ele>
        <time>2020-09-27T11:57:50+02:00</time>
      </trkpt>
      <trkpt lat="43.50808" lon="1.5192">
        <ele>151.10059</ele>
        <time>2020-09-27T11:57:55+02:00</time>
      </trkpt>
      <trkpt lat="43.50809" lon="1.51918">
        <ele>151.10059</ele>
        <time>2020-09-27T11:57:56+02:00</time>
      </trkpt>
      <trkpt lat="43.50814" lon="1.5191">
        <ele>151.5</ele>
        <time>2020-09-27T11:58:01+02:00</time>
      </trkpt>
      <trkpt lat="43.50816" lon="1.51908">
        <ele>151.5</ele>
        <time>2020-09-27T11:58:02+02:00</time>
      </trkpt>
      <trkpt lat="43.50821" lon="1.519">
        <ele>152</ele>
        <time>2020-09-27T11:58:07+02:00</time>
      </trkpt>
      <trkpt lat="43.50822" lon="1.51898">
        <ele>152</ele>
        <time>2020-09-27T11:58:08+02:00</time>
      </trkpt>
      <trkpt lat="43.50827" lon="1.51891">
        <ele>151.7998</ele>
        <time>2020-09-27T11:58:13+02:00</time>
      </trkpt>
      <trkpt lat="43.50828" lon="1.51889">
        <ele>151.7998</ele>
        <time>2020-09-27T11:58:14+02:00</time>
      </trkpt>
      <trkpt lat="43.50833" lon="1.51882">
        <ele>151.2998</ele>
        <time>2020-09-27T11:58:19+02:00</time>
      </trkpt>
      <trkpt lat="43.50834" lon="1.5188">
        <ele>151.2998</ele>
        <time>2020-09-27T11:58:20+02:00</time>
      </trkpt>
      <trkpt lat="43.50839" lon="1.51874">
        <ele>151.2002</ele>
        <time>2020-09-27T11:58:25+02:00</time>
      </trkpt>
      <trkpt lat="43.5084" lon="1.51872">
        <ele>151.2002</ele>
        <time>2020-09-27T11:58:27+02:00</time>
      </trkpt>
      <trkpt lat="43.50845" lon="1.51867">
        <ele>151.2002</ele>
        <time>2020-09-27T11:58:31+02:00</time>
      </trkpt>
      <trkpt lat="43.50846" lon="1.51865">
        <ele>151.2002</ele>
        <time>2020-09-27T11:58:32+02:00</time>
      </trkpt>
      <trkpt lat="43.50851" lon="1.51861">
        <ele>150.90039</ele>
        <time>2020-09-27T11:58:37+02:00</time>
      </trkpt>
      <trkpt lat="43.50852" lon="1.51859">
        <ele>151</ele>
        <time>2020-09-27T11:58:38+02:00</time>
      </trkpt>
      <trkpt lat="43.50858" lon="1.51853">
        <ele>150.7998</ele>
        <time>2020-09-27T11:58:44+02:00</time>
      </trkpt>
      <trkpt lat="43.5086" lon="1.51852">
        <ele>150.7998</ele>
        <time>2020-09-27T11:58:45+02:00</time>
      </trkpt>
      <trkpt lat="43.50866" lon="1.51847">
        <ele>150.7998</ele>
        <time>2020-09-27T11:58:49+02:00</time>
      </trkpt>
      <trkpt lat="43.50867" lon="1.51846">
        <ele>150.90039</ele>
        <time>2020-09-27T11:58:51+02:00</time>
      </trkpt>
      <trkpt lat="43.50874" lon="1.51843">
        <ele>151.40039</ele>
        <time>2020-09-27T11:58:55+02:00</time>
      </trkpt>
      <trkpt lat="43.50876" lon="1.51842">
        <ele>151.40039</ele>
        <time>2020-09-27T11:58:56+02:00</time>
      </trkpt>
      <trkpt lat="43.50882" lon="1.51839">
        <ele>151.90039</ele>
        <time>2020-09-27T11:59:01+02:00</time>
      </trkpt>
      <trkpt lat="43.50883" lon="1.51838">
        <ele>151.90039</ele>
        <time>2020-09-27T11:59:02+02:00</time>
      </trkpt>
      <trkpt lat="43.50889" lon="1.51835">
        <ele>152.60059</ele>
        <time>2020-09-27T11:59:07+02:00</time>
      </trkpt>
      <trkpt lat="43.50891" lon="1.51834">
        <ele>152.60059</ele>
        <time>2020-09-27T11:59:08+02:00</time>
      </trkpt>
      <trkpt lat="43.50898" lon="1.51832">
        <ele>152.90039</ele>
        <time>2020-09-27T11:59:13+02:00</time>
      </trkpt>
      <trkpt lat="43.509" lon="1.51831">
        <ele>152.90039</ele>
        <time>2020-09-27T11:59:14+02:00</time>
      </trkpt>
      <trkpt lat="43.50906" lon="1.51832">
        <ele>153.10059</ele>
        <time>2020-09-27T11:59:19+02:00</time>
      </trkpt>
      <trkpt lat="43.50908" lon="1.51833">
        <ele>153.10059</ele>
        <time>2020-09-27T11:59:21+02:00</time>
      </trkpt>
      <trkpt lat="43.50915" lon="1.51838">
        <ele>154.2002</ele>
        <time>2020-09-27T11:59:26+02:00</time>
      </trkpt>
      <trkpt lat="43.50916" lon="1.51839">
        <ele>154.5</ele>
        <time>2020-09-27T11:59:27+02:00</time>
      </trkpt>
      <trkpt lat="43.50922" lon="1.51845">
        <ele>155.2002</ele>
        <time>2020-09-27T11:59:33+02:00</time>
      </trkpt>
      <trkpt lat="43.50923" lon="1.51847">
        <ele>155.2002</ele>
        <time>2020-09-27T11:59:34+02:00</time>
      </trkpt>
      <trkpt lat="43.50928" lon="1.51853">
        <ele>155.60059</ele>
        <time>2020-09-27T11:59:38+02:00</time>
      </trkpt>
      <trkpt lat="43.50929" lon="1.51855">
        <ele>155.7002</ele>
        <time>2020-09-27T11:59:40+02:00</time>
      </trkpt>
      <trkpt lat="43.50933" lon="1.51862">
        <ele>155.7002</ele>
        <time>2020-09-27T11:59:44+02:00</time>
      </trkpt>
      <trkpt lat="43.50934" lon="1.51863">
        <ele>155.7002</ele>
        <time>2020-09-27T11:59:45+02:00</time>
      </trkpt>
      <trkpt lat="43.5094" lon="1.5187">
        <ele>155.5</ele>
        <time>2020-09-27T11:59:51+02:00</time>
      </trkpt>
      <trkpt lat="43.50942" lon="1.51871">
        <ele>155.5</ele>
        <time>2020-09-27T11:59:52+02:00</time>
      </trkpt>
      <trkpt lat="43.50951" lon="1.51875">
        <ele>155.5</ele>
        <time>2020-09-27T11:59:56+02:00</time>
      </trkpt>
      <trkpt lat="43.50953" lon="1.51875">
        <ele>155.5</ele>
        <time>2020-09-27T11:59:57+02:00</time>
      </trkpt>
      <trkpt lat="43.50962" lon="1.51877">
        <ele>155.40039</ele>
        <time>2020-09-27T12:00:02+02:00</time>
      </trkpt>
      <trkpt lat="43.50964" lon="1.51878">
        <ele>155.10059</ele>
        <time>2020-09-27T12:00:03+02:00</time>
      </trkpt>
      <trkpt lat="43.50975" lon="1.5188">
        <ele>155</ele>
        <time>2020-09-27T12:00:09+02:00</time>
      </trkpt>
      <trkpt lat="43.50977" lon="1.51881">
        <ele>155</ele>
        <time>2020-09-27T12:00:10+02:00</time>
      </trkpt>
      <trkpt lat="43.50986" lon="1.51884">
        <ele>154.7998</ele>
        <time>2020-09-27T12:00:15+02:00</time>
      </trkpt>
      <trkpt lat="43.50988" lon="1.51885">
        <ele>154.7998</ele>
        <time>2020-09-27T12:00:16+02:00</time>
      </trkpt>
      <trkpt lat="43.50995" lon="1.51889">
        <ele>154.40039</ele>
        <time>2020-09-27T12:00:21+02:00</time>
      </trkpt>
      <trkpt lat="43.50998" lon="1.5189">
        <ele>154.40039</ele>
        <time>2020-09-27T12:00:22+02:00</time>
      </trkpt>
      <trkpt lat="43.51005" lon="1.51896">
        <ele>154.2002</ele>
        <time>2020-09-27T12:00:27+02:00</time>
      </trkpt>
      <trkpt lat="43.51006" lon="1.51897">
        <ele>154.2002</ele>
        <time>2020-09-27T12:00:28+02:00</time>
      </trkpt>
      <trkpt lat="43.51013" lon="1.51905">
        <ele>154.10059</ele>
        <time>2020-09-27T12:00:33+02:00</time>
      </trkpt>
      <trkpt lat="43.51015" lon="1.51908">
        <ele>154.10059</ele>
        <time>2020-09-27T12:00:34+02:00</time>
      </trkpt>
      <trkpt lat="43.51021" lon="1.5192">
        <ele>154</ele>
        <time>2020-09-27T12:00:39+02:00</time>
      </trkpt>
      <trkpt lat="43.51022" lon="1.51923">
        <ele>154</ele>
        <time>2020-09-27T12:00:40+02:00</time>
      </trkpt>
      <trkpt lat="43.51029" lon="1.51936">
        <ele>154.10059</ele>
        <time>2020-09-27T12:00:46+02:00</time>
      </trkpt>
      <trkpt lat="43.5103" lon="1.51938">
        <ele>154</ele>
        <time>2020-09-27T12:00:47+02:00</time>
      </trkpt>
      <trkpt lat="43.51034" lon="1.51947">
        <ele>153.90039</ele>
        <time>2020-09-27T12:00:52+02:00</time>
      </trkpt>
      <trkpt lat="43.51034" lon="1.51949">
        <ele>154.10059</ele>
        <time>2020-09-27T12:00:53+02:00</time>
      </trkpt>
      <trkpt lat="43.51038" lon="1.51957">
        <ele>154</ele>
        <time>2020-09-27T12:01:00+02:00</time>
      </trkpt>
      <trkpt lat="43.51039" lon="1.51958">
        <ele>154</ele>
        <time>2020-09-27T12:01:02+02:00</time>
      </trkpt>
    </trkseg>
  </trk>
</gpx>